[[{"header":{"parameterUnit":"m.s-1","parameterCategory":1,"la1":30.6,"la2":29.2853,"lo1":-89.7004,"lo2":-87.6739,"dy":0.0162,"dx":0.0183,"nx":112,"ny":82,"refTime":"2023-09-05T06:00:00:Z","depth":0,"parameterNumber":2,"parameterNumberName":"U-component_of_WINDS"},"data":[0.0,0.0,0.0,0.0,0.0,0.0,0.0,0.0,0.0,0.0,0.0,0.0,0.0,0.0,0.0,0.0,0.0,0.0,0.0,0.0,0.0,0.0,0.0,0.0,0.0,0.0,0.0,0.0,0.0,0.0,0.0,0.0,0.0,0.0,0.0,0.0,0.0,0.0,0.0,0.0,0.0,0.0,0.0,0.0,0.0,0.0,0.0,0.0,0.0,0.0,0.0,0.0,0.0,0.0,0.0,0.0,0.0,0.0,0.0,0.0,0.0,0.0,0.0,0.0,0.0,0.0,0.0,0.0,0.0,0.0,0.0,0.0,0.0,0.0,0.0,0.0,0.0,0.0,0.0,0.0,0.0,0.0,0.0,0.0,0.0,0.0,0.0,0.0,0.0,0.0,0.0,-4.9537,-5.5382,-5.8203,-5.6178,-5.493,-5.0879,-4.2981,0.0,0.0,0.0,0.0,0.0,0.0,0.0,0.0,0.0,0.0,0.0,0.0,0.0,0.0,0.0,0.0,0.0,0.0,0.0,0.0,0.0,0.0,0.0,0.0,0.0,0.0,0.0,0.0,0.0,0.0,0.0,0.0,0.0,0.0,0.0,0.0,0.0,0.0,0.0,0.0,0.0,0.0,0.0,0.0,0.0,0.0,0.0,0.0,0.0,0.0,0.0,0.0,0.0,0.0,0.0,0.0,0.0,0.0,0.0,0.0,0.0,0.0,0.0,0.0,0.0,0.0,0.0,0.0,0.0,0.0,0.0,0.0,0.0,0.0,0.0,0.0,0.0,0.0,0.0,0.0,0.0,0.0,0.0,0.0,0.0,0.0,0.0,0.0,0.0,0.0,0.0,0.0,0.0,0.0,0.0,0.0,0.0,0.0,0.0,0.0,0.0,0.0,0.0,0.0,-4.439,-5.183,-5.537,-5.6513,-5.4825,-5.2064,-4.8402,-4.3625,0.0,0.0,0.0,0.0,0.0,0.0,0.0,0.0,0.0,0.0,0.0,0.0,0.0,0.0,0.0,0.0,0.0,0.0,0.0,0.0,0.0,0.0,0.0,0.0,0.0,0.0,0.0,0.0,0.0,0.0,0.0,0.0,0.0,0.0,0.0,0.0,0.0,0.0,0.0,0.0,0.0,0.0,0.0,0.0,0.0,0.0,0.0,0.0,0.0,0.0,0.0,0.0,0.0,0.0,0.0,0.0,0.0,0.0,0.0,0.0,0.0,0.0,0.0,0.0,0.0,0.0,0.0,0.0,0.0,0.0,0.0,0.0,0.0,0.0,0.0,0.0,0.0,0.0,0.0,0.0,0.0,0.0,0.0,0.0,0.0,0.0,0.0,0.0,0.0,0.0,0.0,0.0,0.0,0.0,0.0,0.0,0.0,0.0,0.0,0.0,0.0,0.0,0.0,-4.3287,-4.6782,-5.317,-5.5225,-5.55,-5.3904,-5.1187,-4.7551,-4.2759,-3.9027,0.0,0.0,0.0,0.0,0.0,0.0,0.0,0.0,0.0,0.0,0.0,0.0,0.0,0.0,0.0,0.0,0.0,0.0,0.0,0.0,0.0,0.0,0.0,0.0,0.0,0.0,0.0,0.0,0.0,0.0,0.0,0.0,0.0,0.0,0.0,0.0,0.0,0.0,0.0,0.0,0.0,0.0,0.0,0.0,0.0,0.0,0.0,0.0,0.0,0.0,0.0,0.0,0.0,0.0,0.0,0.0,0.0,0.0,0.0,0.0,0.0,0.0,0.0,0.0,0.0,0.0,0.0,0.0,0.0,0.0,0.0,0.0,0.0,0.0,0.0,0.0,0.0,0.0,0.0,0.0,0.0,0.0,0.0,0.0,0.0,0.0,0.0,0.0,0.0,0.0,0.0,0.0,0.0,0.0,0.0,0.0,0.0,0.0,0.0,0.0,0.0,0.0,-4.6428,-4.8593,-5.2867,-5.4041,-5.3932,-5.252,-4.9623,-4.601,-4.1615,-3.6715,0.0,0.0,0.0,0.0,0.0,0.0,0.0,0.0,0.0,0.0,0.0,0.0,0.0,0.0,0.0,0.0,0.0,0.0,0.0,0.0,0.0,0.0,0.0,0.0,0.0,0.0,0.0,0.0,0.0,0.0,0.0,0.0,0.0,0.0,0.0,0.0,0.0,0.0,0.0,0.0,0.0,0.0,0.0,0.0,0.0,0.0,0.0,0.0,0.0,0.0,0.0,0.0,0.0,0.0,0.0,0.0,0.0,0.0,0.0,0.0,0.0,0.0,0.0,0.0,0.0,0.0,0.0,0.0,0.0,0.0,0.0,0.0,0.0,0.0,0.0,0.0,0.0,0.0,0.0,0.0,0.0,0.0,0.0,0.0,0.0,0.0,0.0,0.0,0.0,0.0,0.0,0.0,0.0,0.0,0.0,0.0,0.0,0.0,0.0,0.0,0.0,0.0,-4.4451,-4.7454,-4.9866,-5.0841,-5.0968,-5.0113,-4.5604,-4.2168,-4.0672,-3.4315,0.0,0.0,0.0,0.0,0.0,0.0,0.0,0.0,0.0,0.0,0.0,0.0,0.0,0.0,0.0,0.0,0.0,0.0,0.0,0.0,0.0,0.0,0.0,0.0,0.0,0.0,0.0,0.0,0.0,0.0,0.0,0.0,0.0,0.0,0.0,0.0,0.0,0.0,0.0,0.0,0.0,0.0,0.0,0.0,0.0,0.0,0.0,0.0,0.0,0.0,0.0,0.0,0.0,0.0,0.0,0.0,0.0,0.0,0.0,0.0,0.0,0.0,0.0,0.0,0.0,0.0,0.0,0.0,0.0,0.0,0.0,0.0,0.0,0.0,0.0,0.0,0.0,0.0,0.0,0.0,0.0,0.0,0.0,0.0,0.0,0.0,0.0,0.0,0.0,0.0,0.0,0.0,0.0,0.0,0.0,0.0,0.0,0.0,0.0,0.0,0.0,0.0,-4.2261,-4.5364,0.0,-4.9252,-4.9156,-4.7847,-4.5143,-4.1928,-3.8312,0.0,0.0,0.0,0.0,0.0,0.0,0.0,0.0,0.0,0.0,0.0,0.0,0.0,0.0,0.0,0.0,0.0,0.0,0.0,0.0,0.0,0.0,0.0,0.0,0.0,0.0,0.0,0.0,0.0,0.0,0.0,0.0,0.0,0.0,0.0,0.0,0.0,0.0,0.0,0.0,0.0,0.0,0.0,0.0,0.0,0.0,0.0,0.0,0.0,0.0,0.0,0.0,0.0,0.0,0.0,0.0,0.0,0.0,0.0,0.0,0.0,0.0,0.0,0.0,0.0,0.0,0.0,0.0,0.0,0.0,0.0,0.0,0.0,0.0,0.0,0.0,0.0,0.0,0.0,0.0,0.0,0.0,0.0,0.0,0.0,0.0,0.0,0.0,0.0,0.0,0.0,0.0,0.0,0.0,0.0,0.0,0.0,0.0,0.0,0.0,0.0,0.0,-3.7282,-4.0436,-4.3401,0.0,-4.6828,-4.668,-4.5581,-4.3302,-4.0323,-3.6489,0.0,0.0,0.0,0.0,0.0,0.0,0.0,0.0,0.0,0.0,0.0,0.0,0.0,0.0,0.0,0.0,0.0,0.0,0.0,0.0,0.0,0.0,0.0,0.0,0.0,0.0,0.0,0.0,0.0,0.0,0.0,0.0,0.0,0.0,0.0,0.0,0.0,0.0,0.0,0.0,0.0,0.0,0.0,0.0,0.0,0.0,0.0,0.0,0.0,0.0,0.0,0.0,0.0,0.0,0.0,0.0,0.0,0.0,0.0,0.0,0.0,0.0,0.0,0.0,0.0,0.0,0.0,0.0,0.0,0.0,0.0,0.0,0.0,0.0,0.0,0.0,0.0,0.0,0.0,0.0,0.0,0.0,0.0,0.0,0.0,0.0,0.0,0.0,0.0,0.0,0.0,0.0,0.0,0.0,0.0,0.0,0.0,0.0,0.0,0.0,0.0,0.0,-3.5753,-3.9032,-4.1742,-4.3131,-4.3291,-4.3291,-4.3291,-3.9487,-3.6644,0.0,0.0,0.0,0.0,0.0,0.0,0.0,0.0,0.0,0.0,0.0,0.0,0.0,0.0,0.0,0.0,0.0,0.0,0.0,0.0,0.0,0.0,0.0,0.0,0.0,0.0,0.0,0.0,0.0,0.0,0.0,0.0,0.0,0.0,0.0,0.0,0.0,0.0,0.0,0.0,0.0,0.0,0.0,0.0,0.0,0.0,0.0,0.0,0.0,0.0,0.0,0.0,0.0,0.0,0.0,0.0,0.0,0.0,0.0,0.0,0.0,0.0,0.0,0.0,0.0,0.0,0.0,0.0,0.0,0.0,0.0,0.0,0.0,0.0,0.0,0.0,0.0,0.0,0.0,0.0,0.0,0.0,0.0,0.0,0.0,0.0,0.0,0.0,0.0,0.0,0.0,0.0,0.0,0.0,0.0,0.0,0.0,0.0,0.0,0.0,0.0,0.0,0.0,-3.4099,-3.8289,-4.1349,-4.1784,-4.2287,-4.239,-4.1878,-3.9747,-3.7192,-3.4216,0.0,0.0,0.0,0.0,0.0,0.0,0.0,0.0,0.0,0.0,0.0,0.0,0.0,0.0,0.0,0.0,0.0,0.0,0.0,0.0,0.0,0.0,0.0,0.0,0.0,0.0,0.0,0.0,0.0,0.0,0.0,0.0,0.0,0.0,0.0,0.0,0.0,0.0,0.0,0.0,0.0,0.0,0.0,0.0,0.0,0.0,0.0,0.0,0.0,0.0,0.0,0.0,0.0,0.0,0.0,0.0,0.0,0.0,0.0,0.0,0.0,0.0,0.0,0.0,0.0,0.0,0.0,0.0,0.0,0.0,0.0,0.0,0.0,0.0,0.0,0.0,0.0,0.0,0.0,0.0,0.0,0.0,0.0,0.0,0.0,0.0,0.0,0.0,0.0,0.0,0.0,0.0,0.0,0.0,0.0,0.0,0.0,0.0,0.0,0.0,0.0,0.0,-3.3795,-3.7889,-4.0747,-4.0747,-4.1153,-4.1221,-4.0798,-3.9665,-3.7398,-3.3643,0.0,0.0,0.0,0.0,0.0,0.0,0.0,0.0,0.0,0.0,0.0,0.0,0.0,0.0,0.0,0.0,0.0,0.0,0.0,0.0,0.0,0.0,0.0,0.0,0.0,0.0,0.0,0.0,0.0,0.0,0.0,0.0,0.0,0.0,0.0,0.0,0.0,0.0,0.0,0.0,0.0,0.0,0.0,0.0,0.0,0.0,0.0,0.0,0.0,0.0,0.0,0.0,0.0,0.0,0.0,0.0,0.0,0.0,0.0,0.0,0.0,0.0,0.0,0.0,0.0,0.0,0.0,0.0,0.0,0.0,0.0,0.0,0.0,0.0,0.0,0.0,0.0,0.0,0.0,0.0,0.0,0.0,0.0,0.0,0.0,0.0,0.0,0.0,0.0,0.0,0.0,0.0,0.0,0.0,0.0,0.0,0.0,0.0,0.0,0.0,0.0,0.0,-3.43,-3.7566,-3.9817,-3.9876,-3.9876,-3.9876,-3.9876,-3.9202,-3.7242,-3.3657,0.0,0.0,0.0,0.0,0.0,0.0,0.0,0.0,0.0,0.0,0.0,0.0,0.0,0.0,0.0,0.0,0.0,0.0,0.0,0.0,0.0,0.0,0.0,0.0,0.0,0.0,0.0,0.0,0.0,0.0,0.0,0.0,0.0,0.0,0.0,0.0,0.0,0.0,0.0,0.0,0.0,0.0,0.0,0.0,0.0,0.0,0.0,0.0,0.0,0.0,0.0,0.0,0.0,0.0,0.0,0.0,0.0,0.0,0.0,0.0,-3.3702,0.0,0.0,0.0,0.0,0.0,0.0,0.0,0.0,0.0,0.0,0.0,0.0,0.0,0.0,0.0,0.0,0.0,0.0,0.0,0.0,0.0,0.0,0.0,0.0,0.0,0.0,0.0,0.0,0.0,0.0,0.0,0.0,0.0,0.0,0.0,0.0,0.0,0.0,0.0,0.0,0.0,-3.3419,-3.5894,-3.7713,-3.8225,-3.829,-3.829,-3.829,-3.7598,-3.613,-3.3637,-3.1787,0.0,0.0,0.0,0.0,0.0,0.0,0.0,0.0,0.0,0.0,0.0,0.0,0.0,0.0,0.0,0.0,0.0,0.0,0.0,0.0,0.0,0.0,0.0,0.0,0.0,0.0,0.0,0.0,0.0,0.0,0.0,0.0,0.0,0.0,0.0,0.0,0.0,0.0,0.0,0.0,0.0,0.0,0.0,0.0,0.0,0.0,0.0,0.0,0.0,0.0,0.0,0.0,0.0,0.0,0.0,0.0,0.0,0.0,0.0,0.0,-3.5085,0.0,0.0,0.0,0.0,0.0,0.0,0.0,0.0,0.0,0.0,0.0,0.0,0.0,0.0,0.0,0.0,0.0,0.0,0.0,0.0,0.0,0.0,0.0,0.0,0.0,0.0,0.0,0.0,0.0,0.0,0.0,0.0,0.0,0.0,0.0,0.0,0.0,0.0,0.0,0.0,-3.3226,-3.5438,-3.6918,-3.7274,-3.7614,-3.7678,-3.7354,-3.7262,-3.6294,-3.4064,-3.265,0.0,0.0,0.0,0.0,0.0,0.0,0.0,0.0,0.0,0.0,0.0,0.0,0.0,0.0,0.0,0.0,0.0,0.0,0.0,0.0,0.0,0.0,0.0,0.0,0.0,0.0,0.0,0.0,0.0,0.0,0.0,0.0,0.0,0.0,0.0,0.0,0.0,0.0,0.0,0.0,0.0,0.0,0.0,0.0,0.0,0.0,0.0,0.0,0.0,0.0,0.0,0.0,0.0,-3.9341,-3.9535,-3.8792,-3.9121,-3.8547,-3.722,-3.704,-3.6873,-3.6614,-3.535,0.0,0.0,0.0,0.0,0.0,0.0,0.0,0.0,0.0,0.0,0.0,0.0,0.0,0.0,0.0,0.0,0.0,0.0,0.0,0.0,0.0,0.0,0.0,0.0,-3.2923,-3.3136,0.0,0.0,0.0,0.0,0.0,0.0,0.0,0.0,0.0,0.0,0.0,0.0,-3.2813,-3.4811,-3.6105,-3.6216,-3.6714,-3.6825,-3.628,-3.673,-3.6213,-3.4195,-3.3398,-3.1889,0.0,0.0,0.0,0.0,0.0,0.0,0.0,0.0,0.0,0.0,0.0,0.0,0.0,0.0,0.0,0.0,0.0,0.0,0.0,0.0,0.0,0.0,0.0,0.0,0.0,0.0,0.0,0.0,0.0,0.0,0.0,0.0,-3.4389,-3.3509,0.0,0.0,0.0,0.0,0.0,0.0,0.0,0.0,0.0,0.0,0.0,0.0,0.0,-3.9409,-4.0457,-4.1773,-4.1893,-4.0876,-4.1638,-4.1396,-4.019,-3.924,-3.8962,-3.9279,-3.9284,0.0,-3.7473,-3.6596,0.0,0.0,0.0,0.0,0.0,0.0,0.0,0.0,0.0,0.0,0.0,0.0,0.0,0.0,0.0,0.0,0.0,0.0,0.0,0.0,0.0,0.0,-3.3459,-3.3015,-3.2406,-3.1698,0.0,-3.0075,-2.952,-2.86,-2.7212,0.0,0.0,0.0,0.0,0.0,0.0,0.0,-3.0722,-3.2176,-3.329,-3.3864,-3.4001,-3.4031,-3.394,-3.4016,-3.3698,-3.2808,-3.1585,-3.0712,-3.0322,-2.8473,0.0,0.0,0.0,0.0,0.0,0.0,0.0,0.0,0.0,0.0,0.0,0.0,0.0,0.0,0.0,0.0,0.0,0.0,0.0,0.0,0.0,0.0,0.0,0.0,0.0,0.0,0.0,0.0,0.0,-3.4382,-3.5381,-3.3576,-3.5251,-3.5402,0.0,0.0,0.0,0.0,0.0,0.0,0.0,0.0,0.0,-3.7761,-3.8866,-3.9916,-4.0897,-4.1838,-4.2196,-4.2038,-4.2312,-4.2158,-4.1595,-4.0747,-3.9963,-3.9285,-3.9672,-3.9284,-3.8304,-3.751,-3.6385,-3.5025,0.0,0.0,0.0,0.0,-3.3387,-3.3615,-3.3987,-3.3878,0.0,-3.2645,0.0,0.0,0.0,0.0,0.0,0.0,0.0,0.0,0.0,0.0,-3.3465,-3.2919,-3.2765,-3.2552,-3.1874,-3.118,-3.0306,0.0,-2.9016,-2.8702,-2.6771,0.0,0.0,0.0,0.0,-2.9057,-3.0346,-3.1667,-3.2617,-3.2916,-3.3275,-3.335,-3.2976,-3.3275,-3.3166,-3.2377,-3.1438,-3.0749,-3.0412,-2.9211,-2.8257,0.0,0.0,0.0,0.0,0.0,0.0,0.0,0.0,0.0,0.0,0.0,0.0,0.0,0.0,0.0,0.0,0.0,0.0,0.0,0.0,0.0,0.0,0.0,0.0,0.0,0.0,0.0,0.0,-3.5198,-3.6128,-3.3705,-3.6086,-3.6416,0.0,0.0,0.0,0.0,0.0,0.0,-3.5648,-3.636,-3.7396,-3.8895,-3.9803,-4.0584,-4.1265,-4.1764,-4.2265,-4.2733,-4.2418,-4.2263,-4.2249,-4.122,-3.9987,-3.8673,-3.9053,-3.8868,-3.8232,-3.7885,-3.6784,-3.5169,-3.4189,-3.3561,-3.3311,-3.3971,-3.4289,-3.4574,-3.5708,-3.5789,-3.513,-3.4004,-3.3011,-3.1733,-2.9066,0.0,0.0,0.0,0.0,-3.016,-3.1289,-3.2091,-3.2552,-3.2309,-3.2445,-3.2479,-3.1996,-3.1694,-3.1033,0.0,-3.0331,-3.0441,-2.7752,0.0,0.0,0.0,0.0,-2.8726,-2.9517,-3.0764,-3.1676,-3.1901,-3.2375,-3.2555,-3.2273,-3.2511,-3.2397,-3.176,-3.1034,-3.0437,-2.9995,-2.9194,-2.8354,-2.7521,0.0,0.0,0.0,0.0,0.0,0.0,0.0,0.0,0.0,0.0,0.0,0.0,0.0,0.0,0.0,0.0,0.0,0.0,0.0,0.0,0.0,0.0,0.0,0.0,0.0,0.0,0.0,0.0,0.0,-3.4564,-3.7304,0.0,0.0,0.0,0.0,-3.4247,-3.5572,-3.6162,-3.5524,-3.7945,-3.9491,-3.9806,-4.1488,-4.2651,-4.3352,-4.3393,-4.3421,-4.3448,-4.2226,-4.165,-4.1561,-3.9248,-3.8125,-3.8025,-3.7568,-3.7038,-3.6577,-3.7507,-3.8101,-3.8292,-3.6469,-3.5731,-3.5598,-3.4791,-3.4802,-3.5119,-3.4316,-3.3707,-3.3391,-3.4319,-3.3185,-3.1246,-3.0046,-2.9516,0.0,0.0,-2.9772,-3.0423,-3.1334,-3.0784,-3.0215,-3.1082,-3.0621,-2.9972,-2.9946,-3.0607,-3.1063,0.0,-2.9635,-2.8629,-2.7876,0.0,-2.6683,-2.611,-2.7161,-2.7815,-2.7232,-2.8346,-2.9484,-3.0312,-3.0431,-3.0761,-3.1497,-3.088,-3.046,-3.0385,-2.9605,-2.9093,-2.9066,-2.7931,-2.7282,-2.7228,-2.4898,0.0,0.0,0.0,0.0,0.0,0.0,0.0,0.0,0.0,0.0,0.0,0.0,0.0,0.0,0.0,0.0,0.0,0.0,0.0,0.0,0.0,0.0,0.0,0.0,0.0,0.0,0.0,0.0,-3.5156,-3.8383,0.0,-3.5149,-3.6465,-3.7278,-3.673,-3.7214,-3.7855,-3.8668,-3.9288,-3.9829,-4.0262,-4.0873,-4.1151,-4.1082,-4.1032,-4.1032,-4.1032,-4.0605,-4.0364,-4.0338,-3.9146,-3.8366,-3.7977,-3.7425,-3.7073,-3.693,-3.6913,-3.7059,-3.7105,-3.6043,-3.5624,-3.5624,-3.5251,-3.5245,-3.5429,-3.5491,-3.4889,-3.396,-3.2918,-3.1574,-3.0294,-2.9917,-2.9467,-2.9156,-2.9539,-2.9526,-2.9537,-3.0232,-3.0139,-2.9895,-3.0203,-3.0037,-2.9691,-2.9315,-2.9466,-2.9598,-2.9103,-2.9438,-2.9453,-2.8352,-2.7714,-2.7184,-2.672,-2.7432,-2.793,-2.7666,-2.8429,-2.9129,-2.9442,-2.9473,-2.9566,-2.9858,-2.9306,-2.87,-2.8142,-2.7507,-2.7135,-2.7135,-2.6354,-2.5765,-2.5467,-2.425,-2.3183,0.0,0.0,0.0,0.0,0.0,0.0,0.0,0.0,0.0,0.0,0.0,0.0,0.0,0.0,0.0,0.0,0.0,0.0,0.0,0.0,0.0,0.0,0.0,0.0,0.0,0.0,-3.6986,-3.6012,-3.8939,-3.9821,-3.6676,-3.826,-3.9316,-3.8894,-3.9019,-3.9622,-4.0739,-4.045,-4.0325,-4.0513,-4.0513,-4.0249,-3.9697,-3.9697,-3.9697,-3.9697,-3.9697,-3.9597,-3.9396,-3.8831,-3.8366,-3.7965,-3.7224,-3.701,-3.7149,-3.6631,-3.6518,-3.6631,-3.6031,-3.5818,-3.5818,-3.5818,-3.5818,-3.5818,-3.5805,-3.509,-3.3859,-3.1989,-3.0796,-3.0043,-2.9842,-2.9528,-2.9302,-2.9679,-2.9515,-2.9315,-2.9691,-2.9792,-2.9741,-2.9553,-2.9503,-2.9352,-2.8775,-2.8612,-2.8499,-2.8185,-2.8935,-2.9269,-2.8204,-2.7726,-2.741,-2.715,-2.7344,-2.7544,-2.7744,-2.7996,-2.8279,-2.8524,-2.8556,-2.8684,-2.8971,-2.841,-2.7701,-2.6942,-2.6117,-2.5569,-2.5405,-2.4819,-2.4439,-2.4316,-2.3553,-2.2764,-2.1961,0.0,0.0,0.0,0.0,0.0,0.0,0.0,0.0,0.0,0.0,0.0,0.0,0.0,0.0,0.0,0.0,0.0,0.0,0.0,0.0,0.0,0.0,0.0,-3.3995,-3.6213,-3.7599,-3.7121,-3.9102,-3.991,-3.8266,-4.0047,-4.1112,-4.0639,-4.1012,-4.1326,-4.1338,-4.1326,-4.1062,-4.0563,-4.0538,-4.0275,-3.9697,-3.9697,-3.9697,-3.9697,-3.9697,-3.9408,-3.8906,-3.8291,-3.8015,-3.7927,-3.6908,-3.6732,-3.7111,-3.6631,-3.6719,-3.7086,-3.6619,-3.6417,-3.643,-3.6405,-3.6367,-3.6204,-3.5052,-3.396,-3.2867,-3.1738,-3.1009,-3.0495,-2.9955,-2.9792,-2.9792,-2.9792,-2.9792,-2.9792,-2.9792,-2.9792,-2.9654,-2.9051,-2.89,-2.8737,-2.8222,-2.8097,-2.8072,-2.8059,-2.8059,-2.7896,-2.7369,-2.7281,-2.7268,-2.7291,-2.6839,0.0,-2.7241,-2.6839,-2.6794,-2.7623,-2.7709,-2.8012,-2.8871,-2.8136,-2.7394,-2.6852,-2.5505,-2.4474,-2.3966,-2.3358,-2.3308,-2.3904,-2.2849,-2.1757,-2.0717,0.0,0.0,0.0,0.0,0.0,0.0,0.0,0.0,0.0,0.0,0.0,0.0,0.0,0.0,0.0,0.0,0.0,0.0,0.0,0.0,0.0,0.0,-3.4221,-3.4499,-3.6177,-3.7607,-3.8293,-3.9965,-4.0874,-4.041,-4.1693,-4.2459,-4.2308,-4.207,-4.2108,-4.2509,-4.2145,-4.1681,-4.1075,-4.1062,-4.0664,-3.9697,-3.9697,-3.9697,-3.9697,-3.9697,-3.9408,-3.8906,-3.8705,-3.8178,-3.7387,-3.7098,-3.6857,-3.6619,-3.6468,-3.6219,-3.6019,-3.6317,-3.6656,-3.686,-3.6069,-3.5516,-3.5014,-3.3909,-3.3056,-3.2265,-3.1185,-3.047,-2.9993,-2.9842,-2.9792,-2.9792,-2.9792,-2.9792,-2.9792,-2.9792,-2.9792,-2.9754,-2.9591,-2.9239,-2.8737,-2.8222,-2.7795,-2.7394,-2.7027,-2.6952,-2.7027,-2.7278,-2.7281,-2.719,-2.6788,-2.6587,0.0,-2.7241,-2.6839,-2.687,-2.7865,-2.7621,-2.7518,-2.7748,-2.6785,-2.5772,-2.4861,-2.3649,-2.2937,-2.2786,-2.2234,-2.202,-2.2171,-2.187,-2.1556,0.0,0.0,0.0,0.0,0.0,0.0,0.0,0.0,0.0,0.0,0.0,0.0,0.0,0.0,0.0,0.0,0.0,0.0,0.0,0.0,0.0,0.0,-3.4555,-3.627,-3.6734,-3.7425,-3.8391,-3.9747,-4.0752,-4.1463,-4.1982,-4.261,-4.2974,-4.2974,-4.274,-4.269,-4.2961,-4.2728,-4.2145,-4.1313,-4.1288,-4.0761,-3.9697,-3.9697,-3.9697,-3.9697,-3.9697,-3.9283,-3.8504,-3.8504,-3.8027,-3.7174,-3.6935,-3.6832,-3.6732,-3.6505,-3.6031,0.0,0.0,0.0,0.0,0.0,-3.4512,-3.3909,-3.3018,-3.2202,-3.1436,-3.0821,-3.0244,-2.9792,-2.9792,-2.9792,-2.9792,-2.9792,-2.9792,-2.9792,-2.9792,-2.9792,-2.9729,-2.949,-2.9001,-2.8436,-2.7883,-2.7318,-2.6876,-2.6562,-2.6499,0.0,-2.6914,-2.6964,-2.6939,-2.6851,-2.6637,-2.6688,-2.7241,-2.6839,-2.6738,-2.7344,-2.7165,-2.6964,-2.6964,-2.6373,0.0,0.0,0.0,-2.2811,-2.2334,-2.2234,0.0,0.0,0.0,-2.2648,-2.2184,0.0,0.0,0.0,-2.2895,-2.3058,0.0,0.0,0.0,0.0,0.0,0.0,0.0,0.0,0.0,0.0,0.0,0.0,0.0,0.0,0.0,0.0,-3.7161,-3.8567,-3.9634,-3.9421,-3.9647,-4.0937,-4.1213,-4.1718,-4.2698,-4.2911,-4.2974,-4.2974,-4.2974,-4.2974,-4.2974,0.0,0.0,0.0,0.0,-4.0761,-3.9697,-3.9697,-3.9659,-3.9597,-3.9597,-3.9007,-3.7914,-3.7914,-3.7613,-3.7061,-3.6619,-3.6681,-3.7048,-3.6619,-3.6006,-3.5408,-3.5408,-3.5031,-3.4474,-3.3985,-3.342,-3.2805,-3.224,0.0,0.0,-3.0545,-3.0193,-2.9792,-2.9792,-2.9792,-2.9792,-2.9792,-2.9792,-2.9779,-2.9716,-2.9691,-2.9553,-2.8938,-2.8411,-2.7871,-2.7394,-2.6889,-2.6499,-2.6499,-2.6499,-2.6499,-2.6499,-2.6499,-2.6663,-2.7153,-2.6801,-2.6688,-2.7241,-2.6839,-2.6549,-2.6663,0.0,0.0,-2.6587,-2.6524,-2.6021,-2.4863,-2.4305,-2.3552,-2.2535,-2.3007,-2.2977,-2.2264,-2.371,-2.3909,-2.2793,-2.3814,-2.4137,-2.3827,-2.3467,-2.3797,0.0,0.0,0.0,0.0,0.0,0.0,0.0,0.0,0.0,0.0,0.0,0.0,0.0,0.0,0.0,-3.7136,-3.8567,-3.9597,-4.0262,-4.0651,-4.0651,-4.0086,-4.0802,-4.1376,-4.163,-4.2459,-4.2974,-4.2974,-4.2974,-4.2974,-4.2974,-4.2974,-4.2472,-4.1326,-4.1288,-4.0761,-3.9697,-3.9697,-3.9471,-3.9032,0.0,0.0,-3.7337,-3.7337,-3.7048,-3.6568,-3.6455,-3.6468,-3.6556,-3.6455,-3.578,-3.4831,-3.4831,-3.4274,-3.3382,-3.3269,-3.2591,-3.1637,-3.111,-3.0783,-3.0545,-3.0093,-2.988,-2.9792,-2.9792,-2.9792,0.0,-2.9792,-2.9792,-2.9691,-2.9214,-2.9051,-2.895,-2.8398,-2.7846,-2.7419,-2.7306,-2.6889,-2.6499,-2.6499,-2.6499,-2.6499,-2.6499,-2.6499,-2.6524,-2.6637,-2.6562,-2.6688,-2.7241,-2.6839,-2.6839,-2.7695,-2.7394,-2.7165,-2.7165,-2.6751,-2.6021,-2.4863,-2.4305,-2.3904,-2.3678,-2.4205,-2.3691,-2.2005,-2.2313,-2.1942,-2.0919,-2.1156,-2.1829,-2.2983,-2.3993,-2.4368,0.0,0.0,0.0,0.0,0.0,0.0,0.0,0.0,0.0,0.0,0.0,-3.1602,0.0,0.0,-3.7098,-3.9308,-4.0375,-4.0927,-4.0927,-4.1112,-4.0974,-4.0212,-4.0786,-4.1388,-4.1718,-4.2246,-4.274,-4.2949,-4.2974,-4.2974,-4.2974,-4.2778,-4.2183,-4.1313,-4.1012,-4.0526,-3.9697,-3.9697,-3.9421,-3.8919,-3.8919,-3.8278,-3.7186,-3.7186,-3.6933,-3.6405,-3.6405,-3.6405,-3.6367,-3.5768,-3.5215,-3.4663,-3.411,-3.3558,-3.3048,-3.2441,-3.1876,-3.1273,-3.0482,-3.0206,-3.0156,-2.988,-2.9792,-2.9792,-2.9792,-2.9792,-2.9792,-2.9792,-2.9792,-2.9666,-2.9076,-2.8888,-2.875,-2.8235,-2.7682,-2.7281,-2.7281,-2.6889,-2.6499,-2.6499,-2.6499,-2.6499,-2.6499,-2.6094,-2.5921,-2.6418,-2.606,-2.5867,-2.61,-2.548,-2.5409,-2.6431,-2.6296,-2.635,-2.6866,-2.6386,-2.5799,-2.5247,-2.4707,-2.4406,-2.4406,-2.4669,-2.4114,-2.263,-2.2879,-2.257,-2.1542,-2.1821,-2.2358,-2.3109,-2.3828,-2.4294,0.0,0.0,0.0,0.0,0.0,0.0,0.0,0.0,-2.8549,-3.0252,-3.13,-3.299,-3.6455,-3.7879,-3.9157,-4.1166,-4.1869,-4.1969,-4.1363,-4.1376,-4.1216,-4.0438,-4.0852,-4.1354,-4.1848,-4.1986,-4.2183,-4.2622,-4.266,-4.266,-4.266,-4.2233,-4.1743,-4.115,-4.0752,-4.0249,-3.9697,-3.9697,-3.9358,-3.8705,-3.8705,-3.8115,-3.7023,-3.7023,-3.6832,-3.6405,-3.6108,-3.5951,-3.5777,-3.4505,-3.3887,-3.3736,-3.2653,-3.2364,-3.2468,-3.168,-3.126,-3.0959,-3.0093,-2.9792,-2.9792,-2.9792,-2.9792,-2.9792,-2.9792,-2.9792,-2.9792,-2.9792,-2.9792,-2.9666,-2.9076,-2.8813,-2.8599,-2.8084,-2.7519,-2.7118,-2.7118,-2.6813,-2.6499,-2.6499,-2.6499,-2.643,-2.6245,-2.5596,-2.5373,-2.6107,-2.5358,-2.4754,-2.4812,-2.4148,-2.4002,-2.5016,-2.5123,-2.5408,-2.6141,-2.5741,-2.54,-2.5185,-2.4771,-2.455,-2.455,-2.455,-2.4044,-2.2947,-2.3398,-2.3151,-2.2143,-2.2597,-2.2837,-2.2936,-2.311,-2.3745,-2.8002,-2.8059,-2.8574,-3.0532,-2.9407,-2.8574,0.0,0.0,-2.98,-3.0946,-3.3365,-3.5571,-3.6589,-3.8644,-4.0639,-4.1869,-4.2175,-4.1969,-4.1363,-4.1756,-4.1492,-3.9973,-4.0275,-4.0639,-4.0689,-4.1141,-4.1401,-4.1463,-4.1463,-4.1463,-4.1463,-4.1413,-4.1125,-4.0626,-4.0551,-4.0249,-3.9697,-3.9697,-3.9157,-3.8103,-3.8103,-3.7525,-3.6505,-3.6505,-3.6468,-3.631,-3.5126,-3.4414,-3.3875,-3.2083,-3.1103,-3.0591,-2.9647,-2.9878,-3.0764,-3.1228,-3.0783,-2.9955,-2.9829,-2.9792,-2.9792,-2.9792,-2.9792,-2.9792,-2.9792,-2.9792,-2.9792,-2.9792,-2.9792,-2.9666,-2.9076,-2.8561,-2.8059,-2.7507,-2.6989,-2.6587,-2.6587,-2.6537,-2.6499,-2.6499,-2.6499,-2.6211,-2.5335,-2.5385,-2.5455,-2.5182,-2.4301,-2.383,-2.4243,-2.4186,-2.4476,-2.5426,-2.5536,-2.5419,-2.5194,-2.5098,-2.4696,-2.38,-2.3682,-2.3648,-2.3648,-2.3648,-2.3,-2.1645,-2.1688,-2.1219,-2.0202,-2.0289,-2.0518,-2.0934,-2.1783,-2.2702,-2.8923,-2.9327,0.0,0.0,-3.1335,-3.1342,-3.1518,-3.136,-3.1219,-3.1508,-3.2765,-3.4721,-3.7564,-3.8972,-4.0372,0.0,-4.269,-4.2333,-4.1413,-4.1543,-4.1065,-3.9408,-3.9697,-4.0162,-4.0488,-4.0727,-4.0937,-4.1263,-4.1288,-4.1288,-4.1288,-4.0974,-4.0752,-4.0526,-4.0212,-3.9772,-3.922,-3.922,-3.8642,-3.7525,-3.7525,-3.7123,-3.6358,-3.5571,-3.4812,-3.3983,-3.3403,-3.2917,-3.246,-3.1329,-3.0642,-3.0092,-2.9161,-2.8865,-2.9046,-2.9695,-3.0087,-3.0231,-2.9905,-2.9792,-2.9792,-2.9792,-2.9792,-2.9792,-2.9792,-2.9792,-2.9792,-2.9792,-2.9792,-2.9666,-2.9076,-2.8712,-2.8448,-2.7896,-2.7379,-2.6977,-2.6977,-2.6725,-2.6499,-2.6499,-2.6499,-2.6164,-2.5182,-2.4875,-2.4524,-2.3749,-2.3504,-2.3386,-2.3311,-2.3061,-2.3229,-2.4166,-2.4574,-2.4711,-2.4542,-2.4519,-2.4246,-2.3537,-2.3514,-2.3514,-2.3514,-2.3514,-2.2948,-2.1792,-2.1754,-2.1278,-2.0293,-2.0293,-2.0429,-2.0605,-2.1001,-2.1413,-2.9681,0.0,0.0,-3.1876,-3.2562,-3.2723,-3.1592,-3.1436,-3.1443,-3.1407,-3.2131,-3.3946,-3.7588,-3.8761,-3.99,-4.2363,-4.2803,-4.2421,-4.1413,-4.115,-4.0563,-3.9044,-3.9082,-3.9446,-4.0011,-4.0199,-4.0463,-4.0852,-4.0837,-4.0837,-4.0837,-4.0513,-4.0224,-4.0061,-3.9823,-3.9346,-3.8642,-3.8844,-3.8304,-3.7186,-3.7186,-3.6741,-3.581,-3.4422,-3.3185,-3.2129,-3.1739,-3.1296,-3.0749,-2.9959,-2.9315,-2.8722,-2.7898,-2.7424,-2.727,-2.7619,-2.8666,-2.9858,-2.9462,-2.9534,-2.9792,-2.9792,-2.9585,-2.9326,-2.9326,-2.9118,-2.8882,-2.8882,-2.8882,-2.8785,-2.8344,-2.8355,-2.8311,-2.778,-2.726,-2.6863,-2.6714,-2.6144,-2.5687,-2.5687,-2.5687,-2.5394,-2.4522,-2.4142,-2.3621,-2.2625,-2.2909,-2.3104,-2.2713,-2.2453,-2.2574,-2.3252,-2.3732,-2.3902,-2.36,-2.36,-2.3345,-2.2734,-2.2713,-2.2713,-2.2713,-2.2713,-2.2376,-2.1631,-2.1593,-2.1298,-2.0605,-2.0605,-2.0605,-2.0605,-2.0605,-2.0605,-3.0142,-3.0972,-3.1763,-3.3407,-3.2306,-3.1173,-3.2576,-3.1261,-2.9816,-3.0145,-3.2197,-3.435,-3.5927,-3.778,-3.978,-4.1906,-4.2238,-4.2037,-4.1363,-4.0824,-4.0124,-3.9057,-3.8391,-3.8278,0.0,-3.9408,-3.9722,-3.9747,-3.9747,-3.9747,-3.9747,-3.9722,-3.9471,-3.8931,-3.9421,-3.9157,-3.804,-3.8592,-3.8304,-3.7186,-3.7186,-3.6245,-3.4434,-3.2994,-3.2134,-3.1636,-3.0364,-2.9302,-2.841,-2.7071,-2.6035,-2.52,-2.4702,-2.4922,-2.5415,-2.5072,-2.6295,-2.8148,-2.8176,-2.8897,-2.9792,-2.9792,-2.9067,-2.8136,-2.8136,-2.7452,-2.6607,-2.6607,-2.6607,-2.6607,-2.6584,-2.6978,-2.7219,-2.6667,-2.6183,-2.5683,-2.5171,-2.4276,-2.3588,-2.3588,-2.3588,-2.3412,-2.2857,-2.3077,-2.3,-2.2062,-2.2611,-2.2939,-2.2562,-2.293,-2.3282,-2.3282,-2.3427,-2.3132,-2.2161,-2.2086,-2.168,-2.075,-2.0683,-2.0683,-2.0683,-2.0683,-2.0673,-2.0644,-2.0644,-2.0644,-2.0605,-2.0605,-2.0605,-2.0605,-2.0605,-2.0605,-2.9617,-3.1289,-3.2817,-3.4123,-3.3784,-3.3125,-3.2993,-3.1998,-3.0836,-2.9971,-2.9986,-3.099,-3.3586,-3.4721,-3.6285,-3.9486,-4.0902,-4.143,-4.0877,-4.0899,-4.0375,-3.8517,-3.8781,0.0,0.0,0.0,0.0,-3.9634,-3.9358,-3.9145,-3.9145,-3.9145,-3.8881,-3.8316,-3.8479,-3.7792,-3.6158,-3.634,-3.5613,-3.3945,-3.3945,-3.3154,-3.1633,-3.1173,-3.0271,-2.9004,-2.8561,-2.7863,-2.7031,-2.6261,-2.5605,-2.5047,-2.4277,-2.4132,-2.4291,-2.3841,-2.4628,-2.6108,-2.7591,-2.8347,-2.8688,-2.8688,-2.8426,-2.7976,-2.7238,-2.6801,-2.6524,-2.6524,-2.6524,-2.6524,-2.6524,-2.6635,-2.6708,-2.6548,-2.5862,-2.5238,-2.504,-2.4431,-2.388,-2.3545,-2.3746,-2.3687,-2.2854,-2.3018,-2.3176,-2.2745,-2.2682,-2.273,-2.2867,-2.2836,-2.2768,-2.2768,-2.2818,-2.2605,-2.2,-2.194,-2.166,-2.1025,-2.0732,-2.0605,-2.0605,-2.0605,-2.0605,-2.0605,-2.0605,-2.0605,-2.0605,-2.0605,-2.0605,-2.0605,-2.0605,-2.0605,-2.9905,-3.1951,-3.3834,-3.4419,-3.4126,-3.3438,-3.2726,-3.1614,-3.0455,-2.9351,-2.8672,-2.8996,-3.1232,-3.2073,-3.3507,-3.6848,-3.8603,-3.949,-3.9377,-3.9795,-3.954,-3.7921,-3.8514,-3.8881,0.0,0.0,0.0,-3.932,-3.9258,-3.8994,-3.858,-3.8755,-3.8304,-3.7048,-3.7171,-3.629,-3.4178,-3.4365,-3.3738,-3.228,-3.1825,-3.1036,-3.0076,-2.957,-2.86,-2.7258,-2.7258,-2.6719,-2.5898,-2.5615,-2.5146,-2.4607,-2.4004,-2.3691,-2.3525,-2.3198,-2.3551,-2.4457,-2.6273,-2.7186,-2.7522,-2.7522,-2.7227,-2.6767,-2.6088,-2.5599,-2.5274,-2.5274,-2.5274,-2.5274,-2.5274,-2.5599,-2.5848,-2.5642,-2.5168,-2.4653,-2.4439,-2.3863,-2.3246,-2.2766,-2.3065,-2.315,-2.2528,-2.2869,-2.322,-2.309,-2.2867,-2.2789,-2.3062,-2.273,-2.251,-2.251,-2.2373,-2.2178,-2.1904,-2.1748,-2.1533,-2.121,-2.081,-2.0605,-2.0605,-2.0605,-2.0605,-2.0605,-2.0605,-2.0605,-2.0605,-2.0605,-2.0605,-2.0605,-2.0605,-2.0605,-3.1021,-3.2983,-3.4695,-3.4523,-3.3403,-3.2221,-3.187,-3.0238,-2.8701,-2.8281,-2.8144,-2.8284,0.0,0.0,-3.1604,-3.4161,-3.5619,-3.6615,-3.7203,-3.7765,-3.7926,0.0,0.0,0.0,0.0,0.0,0.0,-3.873,0.0,-3.9132,-3.8065,-3.8479,-3.7666,-3.521,-3.5551,-3.4668,-3.2241,-3.271,-3.2659,-3.2079,-3.0803,-2.9963,-2.9544,-2.8241,-2.7178,-2.6387,-2.6367,-2.5869,-2.5106,-2.5067,-2.4568,-2.3789,-2.3769,-2.3506,-2.3091,-2.3091,-2.3091,-2.3256,-2.4339,-2.5462,-2.6389,-2.6389,-2.5672,-2.4787,-2.4745,-2.3963,-2.3091,-2.3091,-2.3091,-2.3091,-2.3091,-2.392,-2.4566,-2.4065,-2.4023,-2.3959,-2.3377,-2.2564,-2.1787,-2.1317,-2.1621,-2.1924,-2.1924,-2.2598,-2.3091,-2.3091,-2.3091,-2.3091,-2.3091,-2.275,-2.2539,-2.251,-2.2178,-2.1943,-2.1924,-2.1533,-2.1259,-2.1259,-2.0859,-2.0635,-2.0635,-2.0635,-2.0635,-2.0635,-2.0635,-2.0635,-2.0635,-2.0615,-2.0605,-2.0605,-2.0605,-2.0605,-3.2057,-3.3931,-3.5399,-3.5792,-3.4093,-3.2208,-3.1794,-2.9507,-2.7383,-2.6963,-2.6094,-2.5605,0.0,0.0,0.0,-3.2483,-3.5053,0.0,-3.7399,-3.885,0.0,-3.7111,0.0,-3.8724,-3.7363,-3.8372,0.0,0.0,-3.8001,-3.8316,-3.8027,-3.7192,-3.61,-3.4649,-3.3715,-3.2487,-3.0824,-2.9983,-2.9477,-2.9303,-2.8675,-2.8319,-2.8199,-2.7479,-2.6894,-2.6367,-2.6045,-2.5586,-2.5067,-2.4375,-2.3984,-2.376,-2.3437,-2.3198,-2.3091,-2.3091,-2.3091,-2.3135,-2.343,-2.4296,-2.521,-2.521,-2.5041,-2.4617,-2.38,-2.3343,-2.3091,-2.3091,-2.3091,-2.3091,-2.3091,-2.3299,-2.3487,-2.3378,-2.3153,-2.2884,-2.2723,-2.2512,-2.2227,-2.1797,-2.206,-2.2353,-2.2353,-2.275,-2.3091,-2.3091,-2.3091,-2.3091,-2.3091,-2.3003,-2.2818,-2.2549,-2.2695,-2.2652,-2.2383,-2.2256,-2.2187,-2.2187,-2.1444,-2.1064,-2.1064,-2.1064,-2.1064,-2.1064,-2.1064,-2.1064,-2.1064,-2.0772,-2.0605,-2.0605,-2.0605,-2.0605,-3.311,-3.4593,-3.5828,-3.5593,-3.3781,-3.1739,-3.051,-2.8247,-2.6172,-2.5176,-2.4385,0.0,-2.3859,0.0,0.0,0.0,0.0,0.0,-3.4713,-3.6325,-3.6932,0.0,-3.6776,0.0,-3.62,-3.6873,-3.7003,0.0,-3.7128,-3.7512,-3.6788,-3.5675,-3.429,-3.2639,-3.1836,-3.0773,-2.946,-2.8698,-2.8203,-2.8018,-2.7836,-2.7523,-2.71,-2.6855,-2.6396,-2.5791,0.0,-2.5088,-2.4473,-2.3984,-2.3789,-2.3769,-2.3516,-2.3428,-2.3428,-2.3428,-2.3257,-2.3091,-2.3091,-2.3507,-2.4049,-2.4049,-2.4049,-2.392,-2.3299,-2.3091,-2.3091,-2.3091,-2.3091,-2.3091,-2.3091,-2.3091,-2.3091,-2.3091,-2.2916,-2.274,-2.274,-2.274,-2.2715,-2.248,-2.248,-2.2568,-2.2711,-2.2945,-2.3091,-2.3091,-2.3091,-2.3091,-2.3091,-2.3091,-2.3003,-2.2769,-2.2955,-2.3003,-2.2769,-2.2617,-2.251,-2.251,-2.1894,-2.1523,-2.1523,-2.1523,-2.1523,-2.1523,-2.1523,-2.1426,-2.119,-2.0986,-2.0762,-2.0605,-2.0605,-2.0605,-3.4352,-3.5424,-3.6308,-3.5102,-3.3226,-3.1198,-2.9074,-2.6944,-2.5019,-2.3452,0.0,-2.2797,-2.1953,-2.3031,-2.4587,-2.6169,0.0,-2.9731,-3.1334,-3.2771,-3.3692,-3.3622,-3.4599,-3.5233,-3.5024,-3.4722,-3.4621,-3.4891,-3.6113,-3.6297,-3.5088,-3.4027,-3.2407,-3.0089,-3.0016,-2.946,-2.8291,-2.8232,-2.8027,-2.7718,-2.7601,-2.7109,-2.6387,-2.6269,-2.5801,-2.5106,-2.4998,0.0,-2.3789,-2.3789,-2.3789,-2.3799,-2.3857,-2.3838,-2.3789,-2.3789,-2.3516,-2.3091,-2.3091,-2.3091,-2.3091,-2.3091,-2.3091,-2.3091,-2.3091,-2.3091,-2.3091,-2.3091,-2.3091,-2.3091,-2.3091,-2.3091,-2.3091,-2.3091,-2.3091,-2.3091,-2.3091,-2.3091,-2.3091,-2.3091,-2.2799,-2.2672,-2.3033,-2.3091,-2.3091,-2.3091,-2.3091,-2.3091,-2.3091,-2.3091,-2.3091,-2.3091,-2.3091,-2.3091,-2.3091,-2.276,-2.2598,-2.2598,-2.2197,-2.1973,-2.1973,-2.1973,-2.1973,-2.1973,-2.1973,-2.1758,-2.1278,-2.122,-2.1006,-2.0605,-2.0605,-2.0605,-3.6911,-3.7491,-3.7564,-3.6894,-3.4267,-3.1476,-2.989,-2.6739,0.0,0.0,-2.2353,-2.1953,-2.1405,-2.2443,-2.4186,-2.6711,0.0,0.0,0.0,0.0,-3.4119,0.0,0.0,0.0,0.0,0.0,0.0,0.0,0.0,-3.3519,-3.4034,-3.2483,-3.0672,-2.8717,-2.8654,-2.8548,-2.8291,-2.7949,-2.7796,-2.7708,-2.6943,-2.6533,-2.6367,-2.5625,-2.5262,-2.5077,-2.4316,0.0,-2.3789,-2.3789,-2.3789,-2.3828,-2.417,-2.4092,-2.3789,-2.3789,-2.3516,-2.3091,-2.3091,-2.3091,-2.3091,-2.3091,-2.3091,-2.3091,-2.3091,-2.3091,-2.3091,-2.3091,-2.3091,-2.3091,-2.3091,-2.3091,-2.3091,-2.3091,-2.3091,-2.3091,-2.3091,-2.3091,-2.3091,-2.3091,-2.3033,-2.3013,-2.3081,-2.3091,-2.3091,-2.3091,-2.3091,-2.3091,-2.3091,-2.3091,-2.3091,-2.3091,-2.3091,-2.3091,-2.3091,-2.3033,-2.2984,-2.2984,-2.2637,-2.2402,-2.2402,-2.2402,-2.2402,-2.2402,-2.2402,-2.2197,-2.1777,-2.1375,-2.1006,-2.0605,-2.0605,-2.0605,-3.7704,-3.7801,-3.7513,-3.7249,-3.4114,-3.0769,-2.942,0.0,0.0,0.0,-2.1378,-2.1133,-2.0928,-2.1582,0.0,0.0,0.0,0.0,0.0,0.0,0.0,0.0,0.0,0.0,0.0,0.0,0.0,0.0,0.0,-3.1089,-3.2348,-3.064,-2.9226,-2.8354,-2.8291,-2.8193,-2.7969,-2.7826,-2.7493,-2.7002,-2.6582,-2.6143,-2.5742,-2.5508,-2.5166,-2.4707,-2.4297,0.0,-2.4082,-2.3633,-2.3711,-2.4111,-2.4092,-2.3965,-2.3789,-2.3789,-2.3516,-2.3091,-2.3091,-2.3091,-2.3091,-2.3091,-2.3091,-2.3091,-2.3091,-2.3091,-2.3091,-2.3091,-2.3091,-2.3091,-2.3091,-2.3091,-2.3091,-2.3091,-2.3091,-2.3091,-2.3091,-2.3091,-2.3091,-2.3091,-2.3091,-2.3091,-2.3091,-2.3091,-2.3091,-2.3091,-2.3091,-2.3091,-2.3091,-2.3091,-2.3091,-2.3091,-2.3091,-2.3091,-2.3091,-2.3091,-2.3091,-2.3091,-2.2906,-2.2789,-2.2789,-2.2789,-2.2789,-2.2789,-2.2789,-2.2627,-2.2207,-2.2002,-2.168,-2.129,-2.129,-2.129,-3.784,-3.7776,-3.7462,-3.7098,-3.3707,-3.0079,-2.8665,-2.5221,0.0,-2.086,-2.0605,-2.0605,-2.0605,-2.0859,-2.1543,0.0,-2.3428,0.0,0.0,0.0,0.0,0.0,0.0,0.0,0.0,0.0,0.0,0.0,0.0,0.0,-3.045,-2.909,-2.8291,-2.8291,-2.8291,-2.8096,-2.7718,-2.762,-2.7139,-2.6387,-2.6201,-2.5742,-2.5125,-2.5332,-2.5031,-2.4414,-2.4316,0.0,0.0,-2.3647,-2.3764,-2.4394,-2.416,-2.3955,-2.3789,-2.3789,-2.3516,-2.3091,-2.3091,-2.3091,-2.3091,-2.3091,-2.3091,-2.3091,-2.3091,-2.3091,-2.3091,-2.3091,-2.3091,-2.3091,-2.3091,-2.3091,-2.3091,-2.3091,-2.3091,-2.3091,-2.3091,-2.3091,-2.3091,-2.3091,-2.3091,-2.3091,-2.3091,-2.3091,-2.3091,-2.3091,-2.3091,-2.3091,-2.3091,-2.3091,-2.3091,-2.3091,-2.3091,-2.3091,-2.3091,-2.3091,-2.3091,-2.3091,-2.3091,-2.3091,-2.3091,-2.3091,-2.3091,-2.3091,-2.3091,-2.2886,-2.251,-2.251,-2.2295,-2.1885,-2.1885,-2.1885,-3.768,-3.8354,-3.8404,-3.687,-3.3491,-3.0091,-2.8177,0.0,-2.168,-2.0791,-2.0605,-2.0605,-2.0605,-2.0635,-2.1172,0.0,0.0,-2.4258,0.0,0.0,0.0,0.0,0.0,0.0,0.0,0.0,0.0,0.0,0.0,0.0,-2.8554,-2.8364,-2.8291,-2.8291,-2.8291,-2.8096,-2.7718,-2.7275,-2.6846,-2.6377,-2.5624,-2.5194,-2.5106,-2.4697,-2.4492,-2.4394,-2.4014,0.0,0.0,-2.4326,-2.4346,-2.4453,-2.4814,-2.4519,-2.3789,-2.3789,-2.3516,-2.3091,-2.3091,-2.3091,-2.3091,-2.3091,-2.3091,-2.3091,-2.3091,-2.3091,-2.3091,-2.3091,-2.3091,-2.3091,-2.3091,-2.3091,-2.3091,-2.3091,-2.3091,-2.3091,-2.3091,-2.3091,-2.3091,-2.3091,-2.3091,-2.3091,-2.3091,-2.3091,-2.3091,-2.3091,-2.3091,-2.3091,-2.3091,-2.3091,-2.3091,-2.3091,-2.3091,-2.3091,-2.3091,-2.3091,-2.3091,-2.3091,-2.3091,-2.3091,-2.3091,-2.3091,-2.3091,-2.3091,-2.3091,-2.2886,-2.251,-2.251,-2.2295,-2.1885,-2.1885,-2.1885,-3.6148,-3.7159,-3.7626,-3.6634,-3.3033,-2.9329,-2.8026,0.0,-2.1396,-2.1045,-2.0967,-2.0967,-2.0967,-2.0967,-2.1191,-2.1843,-2.1768,0.0,-2.5322,0.0,0.0,0.0,0.0,0.0,0.0,0.0,0.0,0.0,0.0,0.0,-2.8291,-2.8291,-2.8291,-2.8291,-2.8047,-2.7705,-2.7275,-2.6855,-2.6289,-2.5586,-2.5282,-2.4842,-2.4297,-2.4375,-2.4277,-2.4043,-2.4131,0.0,0.0,-2.4521,-2.4414,-2.4414,-2.4326,-2.3935,-2.3398,-2.3398,-2.3247,-2.3091,-2.3091,-2.3091,-2.3091,-2.3091,-2.3091,-2.3091,-2.3091,-2.3091,-2.3091,-2.3091,-2.3091,-2.3091,-2.3091,-2.3091,-2.3091,-2.3091,-2.3091,-2.3091,-2.3091,-2.3091,-2.3091,-2.3091,-2.3091,-2.3091,-2.3091,-2.3091,-2.3091,-2.3091,-2.3091,-2.3091,-2.3091,-2.3091,-2.3091,-2.3091,-2.3091,-2.3091,-2.3091,-2.3091,-2.3091,-2.3091,-2.3091,-2.3091,-2.3091,-2.3091,-2.3091,-2.3091,-2.3091,-2.3013,-2.2847,-2.2847,-2.276,-2.2637,-2.2637,-2.2637,-3.3793,-3.5102,-3.5911,-3.4841,-3.1697,-2.8525,0.0,0.0,-2.1385,-2.1385,-2.1385,-2.1346,-2.122,-2.119,-2.119,-2.119,-2.1084,-2.1719,-2.3926,0.0,0.0,0.0,0.0,0.0,0.0,0.0,0.0,0.0,0.0,0.0,-2.8291,-2.8174,-2.8105,-2.8105,-2.7875,-2.7393,-2.6836,-2.6533,-2.5947,-2.5116,-2.4941,-2.4492,-2.3799,-2.4092,-2.4072,-2.3809,-2.4102,0.0,0.0,-2.4414,-2.4228,-2.4199,-2.3906,-2.3525,-2.3091,-2.3091,-2.3091,-2.3091,-2.3091,-2.3091,-2.3091,-2.3091,-2.3091,-2.3091,-2.3091,-2.3091,-2.3091,-2.3091,-2.3091,-2.3091,-2.3091,-2.3091,-2.3091,-2.3091,-2.3091,-2.3091,-2.3091,-2.3091,-2.3091,-2.3091,-2.3091,-2.3091,-2.3091,-2.3091,-2.3091,-2.3091,-2.3091,-2.3091,-2.3091,-2.3091,-2.3091,-2.3091,-2.3091,-2.3091,-2.3091,-2.3091,-2.3091,-2.3091,-2.3091,-2.3091,-2.3091,-2.3091,-2.3091,-2.3091,-2.3091,-2.3091,-2.3091,-2.3091,-2.3091,-2.3091,-2.3091,-2.3091,-3.0619,-3.2354,-3.3173,-3.0829,-2.9263,-2.7714,0.0,-2.3378,-2.1875,-2.1875,-2.1875,-2.1748,-2.1278,-2.119,-2.119,-2.119,-2.1592,-2.2324,-2.3613,0.0,0.0,0.0,0.0,0.0,0.0,0.0,0.0,0.0,0.0,0.0,-2.8291,-2.79,-2.7728,-2.7728,-2.7718,-2.7256,-2.6406,-2.6387,-2.5947,-2.5106,-2.4629,-2.4199,-2.3789,-2.3799,-2.3799,0.0,0.0,0.0,0.0,-2.3975,-2.3799,-2.3799,-2.3789,-2.3525,-2.3091,-2.3091,-2.3091,-2.3091,-2.3091,-2.3091,-2.3091,-2.3091,-2.3091,-2.3091,-2.3091,-2.3091,-2.3091,-2.3091,-2.3091,-2.3091,-2.3091,-2.3091,-2.3091,-2.3091,-2.3091,-2.3091,-2.3091,-2.3091,-2.3091,-2.3091,-2.3091,-2.3091,-2.3091,-2.3091,-2.3091,-2.3091,-2.3091,-2.3091,-2.3091,-2.3091,-2.3091,-2.3091,-2.3091,-2.3091,-2.3091,-2.3091,-2.3091,-2.3091,-2.3091,-2.3091,-2.3091,-2.3091,-2.3091,-2.3091,-2.3091,-2.3091,-2.3091,-2.3091,-2.3091,-2.3091,-2.3091,-2.3091,-2.8125,-2.9663,-3.0767,-2.9591,-2.7955,-2.6314,-2.5232,-2.3378,-2.1963,-2.2256,-2.2314,-2.2275,-2.2139,-2.1875,-2.168,-2.168,-2.1543,-2.1787,0.0,0.0,0.0,0.0,0.0,0.0,0.0,0.0,0.0,0.0,0.0,0.0,-2.7422,-2.7295,-2.7363,-2.7708,-2.71,-2.6523,-2.5947,-2.5635,-2.5049,-2.4189,-2.4053,-2.376,-2.3305,-2.3305,-2.3305,0.0,0.0,0.0,0.0,-2.415,-2.4043,-2.3789,-2.3789,-2.3525,-2.3091,-2.3091,-2.3091,-2.3091,-2.3091,-2.3091,-2.3091,-2.3091,-2.3091,-2.3091,-2.3091,-2.3091,-2.3091,-2.3091,-2.3091,-2.3091,-2.3091,-2.3091,-2.3091,-2.3091,-2.3091,-2.3091,-2.3091,-2.3091,-2.3091,-2.3091,-2.3091,-2.3091,-2.3091,-2.3091,-2.3091,-2.3091,-2.3091,-2.3091,-2.3091,-2.3091,-2.3091,-2.3091,-2.3091,-2.3091,-2.3091,-2.3091,-2.3091,-2.3091,-2.3091,-2.3091,-2.3091,-2.3091,-2.3091,-2.3091,-2.3091,-2.3091,-2.3091,-2.3091,-2.3091,-2.3091,-2.3091,-2.3091,-2.5894,-2.7259,-2.8262,-2.7415,-2.6341,0.0,-2.4454,-2.3062,-2.2002,-2.2432,-2.2383,-2.2227,-2.206,-2.1816,-2.1592,-2.1416,-2.1445,-2.167,0.0,0.0,0.0,0.0,0.0,0.0,0.0,0.0,0.0,0.0,0.0,0.0,-2.7012,-2.6709,-2.6728,-2.7168,-2.6504,-2.6016,-2.5693,-2.5127,-2.4551,-2.4023,-2.3867,-2.3555,-2.3091,-2.3091,-2.3091,0.0,0.0,0.0,0.0,-2.3828,-2.3779,-2.3545,-2.3545,-2.3379,-2.3091,-2.3091,-2.3091,-2.3091,-2.3091,-2.3091,-2.3091,-2.3091,-2.3091,-2.3091,-2.3091,-2.3091,-2.3091,-2.3091,-2.3091,-2.3091,-2.3091,-2.3091,-2.3091,-2.3091,-2.3091,-2.3091,-2.3091,-2.3091,-2.3091,-2.3091,-2.2721,-2.2403,-2.2403,-2.2403,-2.2403,-2.2403,-2.2818,-2.3091,-2.3091,-2.3091,-2.3091,-2.3091,-2.3091,-2.3091,-2.3091,-2.3091,-2.3091,-2.3091,-2.2677,-2.2403,-2.2403,-2.1996,-2.1721,-2.1721,-2.1721,-2.1952,-2.2403,-2.2862,-2.3091,-2.3091,-2.3091,-2.3091,0.0,-2.5128,-2.5768,-2.4542,-2.454,-2.4501,-2.3308,-2.2441,0.0,-2.2383,-2.2158,-2.1777,-2.1356,-2.1239,-2.1093,-2.0801,-2.1427,-2.1904,0.0,0.0,0.0,0.0,0.0,0.0,0.0,0.0,0.0,0.0,0.0,0.0,-2.6816,-2.6025,-2.583,-2.624,-2.583,-2.5567,-2.5596,-2.4795,-2.4355,-2.4326,-2.3935,-2.3525,-2.3091,-2.3091,-2.3091,0.0,0.0,0.0,0.0,-2.3091,-2.3091,-2.3091,-2.3091,-2.3091,-2.3091,-2.3091,-2.3091,-2.3091,-2.3091,-2.3091,-2.3091,-2.3091,-2.3091,-2.3091,-2.3091,-2.3091,-2.3091,-2.3091,-2.3091,-2.3091,-2.3091,-2.3091,-2.3091,-2.3091,-2.3091,-2.3091,-2.3091,-2.3091,-2.3047,-2.3003,-2.2076,-2.1293,-2.1203,-2.1248,-2.1293,-2.1293,-2.2378,-2.313,-2.3101,-2.312,-2.313,-2.3101,-2.3091,-2.3091,-2.3091,-2.3091,-2.3047,-2.3003,-2.1933,-2.1248,-2.1159,-2.0079,-1.9497,-1.9497,-1.9497,-2.0034,-2.1159,-2.2306,-2.2916,-2.296,-2.296,-2.3003,-2.2578,0.0,-2.3328,-2.3046,-2.3018,-2.2941,0.0,-2.2031,-2.1914,-2.2012,-2.1953,-2.1953,-2.2168,-2.1639,-2.1483,-2.235,-2.2168,-2.2109,0.0,0.0,0.0,0.0,0.0,0.0,0.0,0.0,0.0,0.0,0.0,-2.5273,-2.5039,-2.4834,-2.4775,-2.4873,-2.4463,-2.4404,-2.468,-2.4199,-2.3769,-2.3393,-2.3296,-2.3198,-2.3091,-2.3091,-2.3091,0.0,0.0,0.0,-2.3091,-2.3091,-2.3091,-2.3091,-2.3091,-2.3091,-2.3091,-2.3091,-2.3091,-2.3091,-2.3091,-2.3091,-2.3091,-2.3091,-2.3091,-2.3091,-2.3091,-2.3091,-2.3091,-2.3091,-2.3091,-2.3091,-2.3091,-2.3091,-2.3091,-2.3091,-2.3091,-2.3091,-2.3091,-2.3091,-2.2818,-2.1889,-2.1471,-2.1025,-2.0079,-2.0711,-2.1293,-2.1293,-2.2624,-2.3516,-2.314,-2.3428,-2.3516,-2.313,-2.3091,-2.3091,-2.3091,-2.3091,-2.2731,-2.18,-2.148,-2.089,-1.9943,-1.967,-1.9497,-1.9497,-1.9497,-1.9625,-1.9898,-2.0223,-2.0809,-2.1702,-2.1702,-2.2217,-2.1709,-2.2178,-2.2711,-2.2559,-2.251,-2.2451,-2.2227,-2.1865,-2.1592,-2.1592,0.0,0.0,-2.1582,-2.1406,-2.1424,-2.2116,-2.2217,0.0,0.0,0.0,0.0,0.0,0.0,0.0,0.0,0.0,0.0,0.0,0.0,-2.4463,-2.4414,-2.4228,-2.4219,-2.4414,-2.4004,-2.3984,-2.4414,-2.3799,-2.3467,-2.3437,-2.3188,-2.3091,-2.3091,-2.3091,-2.3091,0.0,0.0,0.0,-2.3047,-2.2492,-2.2262,-2.2217,-2.1676,-2.1454,-2.1498,-2.2085,-2.2262,-2.235,-2.2916,-2.2721,-2.2173,-2.1632,-2.181,-2.2262,-2.2262,-2.2677,-2.3091,-2.3091,-2.3091,-2.3091,-2.3091,-2.3091,-2.3091,-2.3091,-2.3091,-2.3091,-2.3091,-2.2677,-2.2076,-2.1426,-2.0395,-1.9451,-1.8772,-1.9222,-1.9852,-2.0395,-2.1889,-2.2986,-2.3106,-2.3516,-2.3623,-2.314,-2.3091,-2.3091,-2.3091,-2.3091,-2.2818,-2.2164,-2.1078,-2.0169,-1.9542,-1.8395,-1.7801,-1.7801,-1.8357,-1.868,-1.868,-1.9222,-2.0124,-2.1293,-2.1293,-2.1943,-2.0918,-2.1723,-2.2485,-2.2434,-2.2461,-2.248,-2.2353,-2.1717,-2.1181,0.0,0.0,0.0,0.0,-2.0977,0.0,0.0,0.0,0.0,0.0,0.0,0.0,0.0,0.0,0.0,0.0,0.0,0.0,0.0,0.0,-2.3916,-2.4209,-2.3887,-2.3857,-2.4209,-2.3877,-2.3857,-2.4219,-2.3452,-2.3276,-2.3682,-2.3276,-2.3003,-2.2818,-2.2818,-2.2721,-2.2545,0.0,0.0,-2.2448,-2.1436,-2.1025,-2.0935,-1.9898,-1.9497,-1.9625,-2.0666,-2.1025,-2.1159,-2.2183,-2.1898,-2.0845,-1.9852,-2.0215,-2.1025,-2.1025,-2.1756,-2.2589,-2.2775,-2.296,-2.3091,-2.3091,-2.3091,-2.3091,-2.3091,-2.296,-2.2818,-2.2818,-2.1898,-2.098,-2.08,-1.9085,-1.766,-1.7525,-1.7626,-1.814,-1.9192,-2.0723,-2.2053,-2.2796,-2.3099,-2.3147,-2.2857,-2.2677,-2.2545,-2.2545,-2.2731,-2.2775,-2.2545,-2.0629,-1.9314,-1.894,-1.6929,-1.5784,-1.5784,-1.685,-1.7412,-1.7412,-1.8449,-1.967,-2.1025,-2.1025,-2.1756,-1.9674,-1.9775,-2.007,-2.161,-2.2246,-2.2324,-2.1551,-2.1288,-2.1083,0.0,0.0,0.0,0.0,-2.1151,-2.1434,0.0,0.0,0.0,0.0,0.0,0.0,0.0,0.0,0.0,0.0,0.0,0.0,0.0,0.0,-2.3662,-2.3305,-2.3227,-2.3227,-2.3286,-2.3227,-2.3227,-2.3296,-2.3159,-2.313,-2.3198,-2.312,-2.2536,-2.1569,-2.1569,-2.1033,-2.0042,0.0,-2.0042,-2.0042,-1.9852,-1.9761,-1.9761,-1.9579,-1.9497,-1.9542,-1.9724,-1.9761,-1.9807,-1.9997,-1.9943,-1.9761,-1.9534,-1.9633,-1.9761,-1.9761,-1.9898,-2.026,-2.1302,-2.2306,-2.3091,-2.3091,-2.3091,-2.3091,-2.3091,-2.2306,-2.1569,-2.1569,-2.0621,-1.9488,-1.8457,-1.7956,-1.7453,-1.6636,-1.7344,-1.8192,-1.86,-1.9886,-2.1084,-2.1888,-2.1217,-2.0902,-2.1516,-2.0666,-2.0042,-2.0042,-2.098,-2.1123,-2.0133,-1.9716,-1.858,-1.6473,-1.6015,-1.5784,-1.5784,-1.5967,-1.6109,-1.6109,-1.6292,-1.7529,-1.9761,-1.9761,-2.0989,-1.8288,-1.8439,-1.8897,-2.0559,-2.1264,-2.1598,-2.1845,-2.1748,-2.1533,0.0,0.0,0.0,0.0,0.0,-2.2207,0.0,0.0,0.0,0.0,0.0,0.0,0.0,0.0,0.0,0.0,0.0,0.0,0.0,0.0,0.0,-2.311,-2.3091,-2.3091,-2.3091,-2.3091,-2.3091,-2.3091,-2.3091,-2.3091,-2.3091,-2.3091,-2.2492,-2.1293,-2.1293,-2.0621,-1.9497,0.0,-1.9497,-1.9451,-1.8818,-1.8549,-1.8457,-1.7762,-1.7483,-1.7569,-1.8265,-1.8956,-1.9405,-1.8772,-1.8549,-1.8403,-1.7708,-1.7987,-1.8549,-1.8549,-1.9001,-1.9625,-2.0169,-2.1212,-2.2262,-2.2916,-2.3091,-2.295,-2.2262,-2.1702,-2.1114,-2.0486,-1.936,-1.8365,-1.7824,-1.7131,-1.6529,-1.6101,-1.6505,-1.7113,-1.7967,-1.8795,-1.9637,-2.0448,-2.0281,-2.0163,-2.0294,-1.9852,-1.9497,-1.9497,-1.9988,-2.0079,-1.9542,-1.891,-1.7716,-1.5879,-1.5784,-1.5784,-1.5784,-1.5784,-1.5905,-1.6072,-1.6564,-1.795,-2.0113,-2.0357,-2.1563,-1.6887,-1.7061,-1.7608,-1.9309,-2.0155,-2.0936,-2.2341,-2.2334,-2.206,-2.2168,0.0,0.0,0.0,-2.2383,0.0,0.0,0.0,0.0,0.0,0.0,0.0,0.0,0.0,0.0,0.0,0.0,0.0,0.0,0.0,0.0,-2.3091,-2.3091,-2.3091,-2.3091,-2.3091,-2.3091,-2.3091,-2.2766,-2.2766,-2.3091,-2.3091,-2.2492,-2.1293,-2.1025,-2.0215,-1.9039,-1.8764,-1.8626,-1.858,-1.763,-1.7271,-1.7178,-1.6204,-1.5784,-1.592,-1.6897,-1.7855,-1.8488,-1.7591,-1.7271,-1.7084,-1.6109,-1.648,-1.7271,-1.7271,-1.7902,-1.8718,-1.8993,-1.9716,-2.0711,-2.1952,-2.2271,-2.2041,-2.1114,-2.0666,-2.0215,-1.9268,-1.8133,-1.7271,-1.7271,-1.648,-1.5804,-1.5919,-1.5932,-1.6286,-1.7293,-1.7684,-1.8168,-1.9062,-1.9135,-1.9104,-1.9072,-1.881,-1.8764,-1.9039,-1.881,-1.8764,-1.9039,-1.8234,-1.7131,-1.5825,-1.5784,-1.5784,-1.5784,-1.5899,-1.6046,-1.6321,-1.7387,-1.887,-2.0609,-2.1301,-2.2396,-1.5703,-1.541,-1.5325,-1.7744,-1.9283,-2.0747,-2.264,-2.2773,-2.2588,-2.3032,0.0,0.0,0.0,-2.2822,0.0,0.0,0.0,0.0,0.0,0.0,0.0,0.0,0.0,0.0,0.0,0.0,0.0,0.0,0.0,0.0,-2.3091,-2.3091,-2.3091,-2.3091,-2.3091,-2.3091,-2.3091,-2.1745,-2.1745,-2.3091,-2.3091,-2.2492,-2.1248,-2.0124,-1.8948,-1.7777,-1.6567,-1.6062,-1.6055,-1.5967,-1.592,-1.592,-1.5825,-1.5784,-1.5832,-1.592,-1.6015,-1.6055,-1.5967,-1.592,-1.592,-1.5832,-1.5872,-1.592,-1.592,-1.6015,-1.6292,-1.7505,-1.787,-1.8234,-1.9451,-1.977,-1.9724,-1.9633,-1.8772,-1.7963,-1.787,-1.685,-1.592,-1.592,-1.5872,-1.5919,-1.6192,-1.6239,-1.6382,-1.6699,-1.6574,-1.6884,-1.8044,-1.7001,-1.6548,-1.7684,-1.6756,-1.652,-1.7731,-1.6756,-1.6574,-1.7731,-1.7738,-1.7131,-1.5825,-1.5784,-1.5784,-1.5784,-1.6099,-1.6301,-1.6321,-1.7869,-1.932,-2.0618,-2.1919,-2.2954,-1.4365,-1.435,-1.4661,-1.6342,-1.7379,-1.8458,-2.041,-2.1726,-2.2517,-2.237,-2.3286,0.0,0.0,0.0,0.0,0.0,0.0,0.0,0.0,0.0,0.0,0.0,0.0,0.0,0.0,0.0,0.0,0.0,0.0,0.0,-2.2721,-2.2711,-2.2627,-2.2373,-2.1679,-2.1398,-2.1615,-2.0199,-1.9852,-2.0642,-2.1388,-2.0802,-1.9085,-1.936,-1.8395,-1.648,-1.6015,-1.5784,-1.5784,-1.5784,-1.5784,-1.5784,-1.5784,-1.5784,-1.5784,-1.5784,-1.5784,-1.5784,-1.5784,-1.5784,-1.5784,-1.5784,-1.5784,-1.5784,-1.5784,-1.5784,-1.592,-1.6386,-1.6527,-1.6983,-1.8993,-1.9497,-1.9314,-1.8549,-1.8048,-1.7505,-1.6669,-1.6157,-1.5784,-1.5784,-1.5784,-1.5818,-1.5979,-1.5999,-1.6099,-1.6393,-1.6186,-1.6251,-1.6912,-1.6293,-1.5967,-1.648,-1.6109,-1.6015,-1.648,-1.6062,-1.6015,-1.648,-1.6527,-1.6292,-1.5825,-1.6005,-1.6019,-1.5784,-1.6299,-1.6547,-1.6547,-1.7915,-1.9056,-2.0046,-2.1712,-2.2232,-1.352,-1.3788,-1.4292,-1.5137,-1.5741,-1.6535,-1.8103,-2.0282,-2.2055,-2.2503,-2.3928,-2.4711,-2.3482,0.0,0.0,0.0,0.0,0.0,0.0,0.0,0.0,0.0,0.0,0.0,0.0,0.0,0.0,0.0,0.0,0.0,0.0,-2.1845,-2.1644,-2.1358,-2.0601,-2.0162,-2.0052,-1.8587,-1.8035,-1.839,-1.909,-1.8993,-1.8164,-1.8597,-1.7934,-1.6386,-1.5967,-1.5784,-1.5784,-1.5784,-1.5784,-1.5784,-1.5784,-1.5784,-1.5784,-1.5784,-1.5784,-1.5784,-1.5784,-1.5784,-1.5784,-1.5784,-1.5784,-1.5784,-1.5784,-1.5784,-1.5784,-1.5784,-1.5784,-1.6197,-1.7894,-1.8349,-1.8126,-1.7311,-1.7084,-1.685,-1.5967,-1.5784,-1.5784,-1.5784,-1.5784,-1.5784,-1.5784,-1.5784,-1.5899,-1.6106,-1.5959,-1.5905,-1.6106,-1.5952,-1.5784,-1.5784,-1.5784,-1.5784,-1.5784,-1.5784,-1.5784,-1.5784,-1.5784,-1.5872,-1.5965,-1.6072,-1.6079,-1.5972,-1.6453,-1.6707,-1.6707,-1.8175,-1.9093,-1.962,-2.1345,-2.1636,-1.3367,-1.3634,-1.4082,-1.4082,-1.4579,-1.5243,-1.612,-1.8409,-2.1119,-2.3764,-2.469,-2.441,-2.2364,0.0,0.0,0.0,0.0,0.0,0.0,0.0,0.0,0.0,0.0,0.0,0.0,0.0,0.0,0.0,0.0,0.0,0.0,-2.037,-2.0196,-2.0186,-2.0144,-1.9637,-1.8579,-1.706,-1.6468,-1.6755,-1.646,-1.7255,-1.9004,-1.7784,-1.7401,-1.7598,-1.6339,-1.5784,-1.5784,-1.5784,-1.5784,-1.5784,-1.5784,-1.5784,-1.5784,-1.5784,-1.5784,-1.5784,-1.5784,-1.5784,-1.5784,-1.5784,-1.5784,-1.5784,-1.5784,-1.5784,-1.5784,-1.5784,-1.5784,-1.5784,-1.5784,-1.5784,-1.5784,-1.5784,-1.5784,-1.5784,-1.5784,-1.5784,-1.5784,-1.5784,-1.5784,-1.5784,-1.5784,-1.5784,-1.5784,-1.5784,-1.5784,-1.5784,-1.5784,-1.5784,-1.5784,-1.5784,-1.5784,-1.5784,-1.5784,-1.5784,-1.5784,-1.5784,-1.5784,-1.5965,-1.6259,-1.5985,-1.5972,-1.6315,-1.656,-1.6707,-1.6707,-1.8658,-1.9576,-1.9627,-2.1041,-2.1403,-1.3085,-1.332,0.0,-1.3733,0.0,0.0,0.0,-1.8554,-2.1294,0.0,-2.2554,-2.1358,-2.1079,0.0,0.0,0.0,0.0,0.0,0.0,0.0,0.0,0.0,0.0,0.0,0.0,0.0,0.0,0.0,0.0,0.0,0.0,-1.8734,-1.8505,-1.8158,-1.7441,-1.697,-1.6831,-1.5432,-1.4899,-1.5198,-1.4892,-1.5388,-1.6517,-1.6987,-1.6897,-1.6339,-1.5967,-1.5784,-1.5784,-1.5784,-1.5784,-1.5784,-1.5784,-1.5784,-1.5784,-1.5784,-1.5784,-1.5784,-1.5784,-1.5784,-1.5784,-1.5784,-1.5784,-1.5784,-1.5784,-1.5784,-1.5784,-1.5784,-1.5784,-1.5784,-1.5784,-1.5784,-1.5784,-1.5784,-1.5784,-1.5784,-1.5784,-1.5784,-1.5784,-1.5784,-1.5784,-1.5784,-1.5784,-1.5784,-1.5899,-1.6112,-1.5965,-1.5784,-1.5784,-1.5784,-1.5784,-1.5784,-1.5784,-1.5784,-1.5784,-1.5784,-1.5784,-1.5784,-1.5784,-1.5824,-1.5959,-1.6079,-1.6186,-1.6321,-1.6817,-1.7065,-1.7072,-1.7804,-1.8199,-1.8251,-1.9576,-1.955,-1.3353,-1.3547,0.0,-1.4352,-1.5132,-1.6027,-1.6967,0.0,0.0,0.0,-2.1555,-2.0429,-2.0411,-1.8918,0.0,0.0,0.0,0.0,0.0,0.0,0.0,0.0,0.0,0.0,0.0,0.0,0.0,0.0,0.0,0.0,0.0,-1.7155,-1.6946,-1.669,-1.6026,-1.5551,-1.529,-1.4378,-1.4062,-1.4342,-1.4048,-1.4309,-1.505,-1.5906,-1.6022,-1.5491,-1.5605,-1.5718,-1.5784,-1.5784,-1.5784,-1.5784,-1.5784,-1.5784,-1.5784,-1.5784,-1.5784,-1.5784,-1.5784,-1.5784,-1.5784,-1.5784,-1.5784,-1.5784,-1.5784,-1.5784,-1.5784,-1.5784,-1.5784,-1.5784,-1.5784,-1.5784,-1.5784,-1.5784,-1.5784,-1.5784,-1.5784,-1.5784,-1.5784,-1.5784,-1.5784,-1.5784,-1.5784,-1.5784,-1.5885,-1.6072,-1.5945,-1.5784,-1.5784,-1.5784,-1.5784,-1.5784,-1.5784,-1.5784,-1.5784,-1.5784,-1.5784,-1.5784,-1.5784,-1.5879,-1.5999,-1.6179,-1.6429,-1.6663,-1.7018,-1.7199,-1.7199,-1.7494,-1.7582,-1.7635,-1.8454,-1.8303,-1.3861,-1.4028,-1.4329,-1.5498,-1.5804,0.0,-1.7934,-1.9198,-2.021,-2.106,0.0,-2.0557,-1.9857,-1.8543,0.0,0.0,0.0,0.0,0.0,0.0,0.0,0.0,0.0,0.0,0.0,0.0,0.0,0.0,0.0,0.0,0.0,-1.5671,-1.5493,-1.5493,-1.5505,-1.5009,-1.405,-1.37,-1.3713,-1.4041,-1.3733,-1.3893,-1.4489,-1.4783,-1.4995,-1.5062,-1.5284,-1.5565,-1.5784,-1.5784,-1.5784,-1.5784,-1.5784,-1.5784,-1.5784,-1.5784,-1.5784,-1.5778,-1.5751,-1.5758,-1.5778,-1.5751,-1.5758,-1.5784,-1.5784,-1.5784,-1.5784,-1.5784,-1.5784,-1.5784,-1.5784,-1.5784,-1.5784,-1.5784,-1.5784,-1.5784,-1.5784,-1.5784,-1.5784,-1.5784,-1.5784,-1.5784,-1.5784,-1.5784,-1.5784,-1.5784,-1.5784,-1.5784,-1.5784,-1.5784,-1.5784,-1.5784,-1.5784,-1.5784,-1.5784,-1.5784,-1.5784,-1.5784,-1.5804,-1.6005,-1.6299,-1.6286,-1.6603,-1.7192,-1.7199,-1.7213,-1.7239,-1.7507,-1.7582,-1.7582,-1.7582,-1.7582,-1.3367,-1.3567,0.0,-1.5197,-1.6005,-1.6596,-1.7023,-1.7294,-1.7815,-1.8922,-1.8211,-1.733,-1.7147,0.0,0.0,0.0,0.0,0.0,0.0,0.0,0.0,0.0,0.0,0.0,0.0,0.0,0.0,0.0,0.0,0.0,-1.4508,-1.422,-1.4056,-1.4056,-1.3864,-1.3627,-1.34,-1.3333,-1.3447,0.0,-1.3633,-1.3793,-1.4195,-1.4482,-1.487,-1.5304,-1.5364,-1.5565,-1.5784,-1.5784,-1.5784,-1.5784,-1.5784,-1.5784,-1.5784,-1.5784,-1.5784,-1.5751,-1.5571,-1.5638,-1.5792,-1.5565,-1.5645,-1.5784,-1.5784,-1.5784,-1.5784,-1.5784,-1.5784,-1.5784,-1.5784,-1.5784,-1.5784,-1.5784,-1.5784,-1.5784,-1.5784,-1.5784,-1.5784,-1.5784,-1.5784,-1.5784,-1.5784,-1.5784,-1.5784,-1.5784,-1.5784,-1.5784,-1.5784,-1.5784,-1.5784,-1.5784,-1.5784,-1.5784,-1.5784,-1.5784,-1.5784,-1.5784,-1.6046,-1.6306,-1.66,-1.6393,-1.6603,-1.7192,-1.7199,-1.7313,-1.7488,-1.7555,-1.7582,-1.7582,-1.7582,-1.7582,-1.3514,-1.3841,0.0,-1.5524,0.0,-1.6707,-1.6707,-1.66,-1.6691,-1.7316,-1.6856,-1.642,-1.6888,0.0,0.0,0.0,0.0,0.0,0.0,0.0,0.0,0.0,0.0,0.0,0.0,0.0,0.0,0.0,0.0,-1.4021,-1.3881,-1.3686,-1.354,-1.34,-1.3287,-1.3213,-1.3213,-1.3066,-1.314,-1.34,-1.34,-1.3667,-1.4088,-1.4242,-1.4629,-1.5177,-1.5037,-1.5144,-1.5424,-1.5565,-1.5538,-1.5431,-1.5571,-1.5538,-1.5418,-1.5418,-1.5418,-1.5391,-1.5244,-1.5291,-1.5391,-1.5237,-1.5384,-1.5591,-1.5458,-1.5611,-1.5751,-1.5658,-1.5718,-1.5784,-1.5784,-1.5784,-1.5784,-1.5784,-1.5784,-1.5784,-1.5784,-1.5784,-1.5784,-1.5784,-1.5784,-1.5784,-1.5784,-1.5784,-1.5784,-1.5784,-1.5784,-1.5784,-1.5784,-1.5784,-1.5784,-1.5784,-1.5784,-1.5784,-1.5784,-1.5784,-1.5885,-1.6032,-1.6186,-1.6466,-1.6901,-1.6824,-1.6951,-1.74,-1.7407,-1.7481,-1.7582,-1.7582,-1.7582,-1.7582,-1.7582,-1.7582,-1.3668,-1.4255,-1.4903,-1.5879,-1.638,0.0,-1.6567,-1.6366,-1.6192,-1.6192,-1.6192,-1.6436,0.0,0.0,0.0,0.0,0.0,0.0,0.0,0.0,0.0,0.0,0.0,0.0,0.0,0.0,0.0,0.0,0.0,-1.3901,-1.3613,-1.3507,-1.338,-1.314,-1.308,-1.3053,-1.3053,-1.2837,-1.2864,-1.3133,-1.3233,-1.3567,-1.4088,-1.4088,-1.4382,-1.4921,-1.4629,-1.4689,-1.5028,-1.5224,-1.5177,-1.5035,-1.5224,-1.5223,-1.5008,-1.5008,-1.5008,-1.5001,-1.4948,-1.4961,-1.5008,-1.5008,-1.5157,-1.5351,-1.5156,-1.5404,-1.5718,-1.5478,-1.5605,-1.5784,-1.5784,-1.5784,-1.5784,-1.5784,-1.5784,-1.5784,-1.5784,-1.5784,-1.5784,-1.5784,-1.5784,-1.5784,-1.5784,-1.5784,-1.5784,-1.5784,-1.5784,-1.5784,-1.5784,-1.5784,-1.5784,-1.5784,-1.5784,-1.5804,-1.5905,-1.5905,-1.6032,-1.6333,-1.64,-1.669,-1.7179,-1.7246,-1.7387,-1.7582,-1.7582,-1.7582,-1.7582,-1.7582,-1.7582,-1.7582,-1.7582,-1.7582,-1.2797,0.0,-1.5317,0.0,-1.5925,-1.6266,0.0,0.0,-1.5885,0.0,-1.5885,-1.5846,0.0,0.0,0.0,0.0,0.0,0.0,0.0,0.0,0.0,0.0,0.0,0.0,0.0,0.0,0.0,0.0,-1.3848,-1.3646,-1.3606,-1.3146,-1.2884,-1.2851,-1.2559,-1.2425,-1.2425,-1.2385,-1.2512,-1.2851,-1.334,-1.372,-1.4088,-1.4088,-1.4269,-1.4576,-1.4536,-1.4689,-1.5015,-1.5055,-1.5042,-1.5015,-1.5055,-1.5042,-1.5008,-1.5008,-1.5008,-1.4975,-1.4669,-1.475,-1.5008,-1.5008,-1.5157,-1.5391,-1.5351,-1.5571,-1.5718,-1.5478,-1.5605,-1.5784,-1.5784,-1.5784,-1.5784,-1.5784,-1.5784,-1.5784,-1.5784,-1.5784,-1.5784,-1.5784,-1.5784,-1.5784,-1.5784,-1.5784,-1.5784,-1.5784,-1.5784,-1.5784,-1.5784,-1.5784,-1.5784,-1.5784,-1.5784,-1.5932,-1.6192,-1.6213,-1.6339,-1.6627,-1.6938,-1.7119,-1.7199,-1.744,-1.7542,-1.7582,-1.7582,-1.7582,-1.7582,-1.7582,-1.7582,-1.7582,-1.7582,-1.7582,-1.3286,-1.3948,-1.4569,0.0,-1.5471,-1.5591,-1.5785,0.0,-1.5784,-1.5784,-1.5784,0.0,0.0,0.0,0.0,0.0,0.0,0.0,0.0,0.0,0.0,0.0,0.0,0.0,0.0,0.0,0.0,0.0,-1.3808,-1.3533,-1.3367,-1.3025,-1.2703,-1.2543,-1.2371,-1.2225,-1.2094,-1.2218,-1.2538,-1.3013,-1.3273,-1.3641,-1.4088,-1.4088,-1.4155,-1.4282,-1.4282,-1.4355,-1.4526,-1.4649,-1.4616,-1.4489,-1.4649,-1.4616,-1.4519,-1.4519,-1.4519,-1.4449,-1.4322,-1.4362,-1.4519,-1.4519,-1.4669,-1.4877,-1.471,-1.5097,-1.5524,-1.5237,-1.5478,-1.5784,-1.5784,-1.5784,-1.5784,-1.5784,-1.5784,-1.5784,-1.5784,-1.5784,-1.5784,-1.5784,-1.5784,-1.5784,-1.5784,-1.5784,-1.5838,-1.6052,-1.6079,-1.6079,-1.6079,-1.6219,-1.6259,-1.6092,-1.6226,-1.6373,-1.6506,-1.6513,-1.664,-1.6934,-1.7125,-1.7273,-1.7434,-1.7515,-1.7582,-1.7582,-1.7582,-1.7582,-1.7582,-1.7582,-1.7582,-1.7582,-1.7582,-1.7582,0.0,0.0,-1.3681,-1.479,-1.4957,-1.5003,0.0,0.0,-1.5651,0.0,-1.5712,0.0,0.0,0.0,0.0,0.0,0.0,0.0,0.0,0.0,0.0,0.0,0.0,0.0,0.0,0.0,0.0,0.0,-1.3748,-1.34,-1.322,-1.2846,-1.2569,-1.2311,-1.2231,-1.2091,-1.1906,-1.2084,-1.2538,-1.3213,-1.3133,-1.344,-1.4082,-1.4008,-1.3975,-1.3981,-1.4055,-1.4088,-1.4108,-1.4322,-1.4282,-1.4108,-1.4322,-1.4282,-1.4088,-1.4088,-1.4088,-1.4088,-1.4088,-1.4088,-1.4095,-1.4175,-1.4396,-1.4589,-1.4376,-1.487,-1.5444,-1.5202,-1.5438,-1.5784,-1.5784,-1.5784,-1.5784,-1.5784,-1.5784,-1.5804,-1.5925,-1.5879,-1.5852,-1.5925,-1.5879,-1.5852,-1.5925,-1.5879,-1.5952,-1.6326,-1.6319,-1.6299,-1.6373,-1.6573,-1.662,-1.6406,-1.6573,-1.6734,-1.6814,-1.682,-1.6947,-1.7293,-1.7306,-1.7407,-1.7575,-1.7582,-1.7582,-1.7582,-1.7582,-1.7582,-1.7582,-1.7582,-1.7582,-1.7582,-1.7582,-1.7582,0.0,-1.263,0.0,-1.397,-1.4349,0.0,0.0,0.0,0.0,0.0,-1.5391,0.0,0.0,0.0,0.0,0.0,0.0,0.0,0.0,0.0,0.0,0.0,0.0,0.0,0.0,0.0,0.0,0.0,-1.3554,-1.3227,-1.3213,-1.2645,-1.2318,-1.2305,-1.2037,-1.1919,-1.1906,-1.1919,-1.2338,-1.3206,-1.2951,-1.3273,-1.4075,-1.3753,-1.3626,-1.364,-1.3968,-1.4088,-1.4088,-1.4108,-1.4102,-1.4088,-1.4108,-1.4102,-1.4088,-1.4088,-1.4088,-1.4088,-1.4088,-1.4088,-1.4135,-1.4409,-1.4696,-1.4981,-1.4968,-1.5337,-1.5698,-1.5451,-1.5591,-1.5784,-1.5784,-1.5784,-1.5784,-1.5784,-1.5784,-1.5905,-1.6186,-1.6025,-1.5912,-1.6192,-1.6019,-1.5919,-1.6206,-1.6019,-1.6025,-1.6593,-1.6446,-1.6373,-1.6647,-1.6693,-1.67,-1.6687,-1.67,-1.682,-1.7152,-1.7179,-1.73,-1.7542,-1.7562,-1.7569,-1.7582,-1.7582,-1.7582,-1.7582,-1.7582,-1.7582,-1.7582,-1.7582,-1.7582,-1.7582,-1.7582,-1.7582,0.0,0.0,0.0,-1.3347,-1.3601,-1.3834,-1.4422,-1.4623,-1.4736,-1.4943,-1.4977,0.0,0.0,0.0,0.0,0.0,0.0,0.0,0.0,0.0,0.0,0.0,0.0,0.0,0.0,0.0,0.0,0.0,0.0,-1.3038,-1.32,-1.2458,-1.2111,-1.2291,-1.1837,-1.1677,-1.1899,-1.1906,-1.2254,-1.2951,-1.2837,-1.3058,-1.352,-1.3414,-1.3327,-1.334,-1.3633,-1.376,-1.3814,-1.4008,-1.3975,-1.378,-1.4015,-1.3968,-1.3828,-1.4015,-1.4088,-1.4088,-1.4088,-1.4088,-1.4135,-1.4429,-1.4589,-1.4716,-1.4948,-1.5237,-1.5531,-1.5424,-1.5605,-1.5784,-1.5784,-1.5784,-1.5784,-1.5784,-1.5784,-1.5912,-1.6213,-1.6039,-1.5865,-1.5965,-1.6052,-1.6086,-1.6005,-1.6213,-1.6466,-1.6673,-1.678,-1.6924,-1.7025,-1.7154,-1.7194,-1.7065,-1.7154,-1.7315,-1.7474,-1.7481,-1.7521,-1.7575,-1.7582,-1.7582,-1.7582,-1.7582,-1.7582,-1.7582,-1.7582,-1.7582,-1.7582,-1.7582,-1.7582,-1.7589,-1.7789,-1.7883,-1.1799,0.0,0.0,0.0,0.0,-1.2627,-1.3394,0.0,-1.3638,-1.3928,-1.4298,0.0,0.0,0.0,0.0,0.0,0.0,0.0,0.0,0.0,0.0,0.0,0.0,0.0,0.0,0.0,0.0,0.0,0.0,0.0,-1.3053,-1.2392,-1.2011,-1.2004,-1.1536,-1.1423,-1.1717,-1.1724,-1.21,-1.2784,-1.2683,-1.2812,-1.3206,-1.3106,-1.3053,-1.3073,-1.3427,-1.36,-1.3626,-1.3968,-1.3915,-1.3633,-1.3975,-1.3908,-1.364,-1.3975,-1.4088,-1.4088,-1.4088,-1.4088,-1.4135,-1.4429,-1.4589,-1.4723,-1.5017,-1.5311,-1.5538,-1.5538,-1.5678,-1.5784,-1.5784,-1.5784,-1.5784,-1.5784,-1.5784,-1.5838,-1.6079,-1.5972,-1.5811,-1.5959,-1.6139,-1.6246,-1.6139,-1.6446,-1.6774,-1.6967,-1.7139,-1.7239,-1.7333,-1.7514,-1.7508,-1.7367,-1.7468,-1.7582,-1.7582,-1.7582,-1.7582,-1.7582,-1.7582,-1.7582,-1.7582,-1.7582,-1.7629,-1.7736,-1.7635,-1.7629,-1.7736,-1.7629,-1.7635,-1.7742,-1.7896,-1.7995,0.0,0.0,0.0,0.0,0.0,0.0,-1.2272,0.0,-1.1898,-1.275,-1.3201,0.0,0.0,0.0,0.0,0.0,0.0,0.0,0.0,0.0,0.0,0.0,0.0,0.0,0.0,0.0,0.0,0.0,-1.3327,-1.3066,-1.2804,-1.2465,-1.2031,-1.1395,-1.1156,-1.1142,-1.1375,-1.1395,-1.187,-1.2757,-1.2438,-1.2612,-1.3173,-1.2911,-1.2808,-1.2804,-1.336,-1.358,-1.36,-1.3948,-1.3901,-1.362,-1.3961,-1.3853,-1.3585,-1.3933,-1.4046,-1.4004,-1.4004,-1.4004,-1.405,-1.4293,-1.4635,-1.5017,-1.5258,-1.5551,-1.5784,-1.5784,-1.5784,-1.5784,-1.5784,-1.5784,-1.5784,-1.5784,-1.5784,-1.5784,-1.5784,-1.5784,-1.5919,-1.6213,-1.6328,-1.6373,-1.666,-1.672,-1.6921,-1.7482,-1.7387,-1.732,-1.7549,-1.7582,-1.7582,-1.7582,-1.7582,-1.7582,-1.7582,-1.7582,-1.7582,-1.7582,-1.7589,-1.7595,-1.7595,-1.7595,-1.7736,-1.7982,-1.7742,-1.7736,-1.7975,-1.7729,-1.7742,-1.7995,-1.8009,-1.8015,-1.1249,0.0,0.0,0.0,0.0,0.0,0.0,0.0,0.0,-1.0522,-1.0878,0.0,0.0,0.0,0.0,0.0,0.0,0.0,0.0,0.0,0.0,0.0,0.0,0.0,0.0,0.0,0.0,0.0,-1.3166,-1.2878,-1.279,-1.2465,-1.1937,-1.1136,-1.145,-1.1497,-1.1116,-1.1536,-1.1906,-1.2147,-1.2245,-1.2392,-1.2552,-1.2465,-1.2425,-1.2445,-1.2864,-1.3032,-1.3072,-1.3554,-1.3553,-1.336,-1.3613,-1.3078,-1.214,-1.2637,-1.2291,-1.1563,-1.1563,-1.1563,-1.1602,-1.1937,-1.2769,-1.3771,-1.4087,-1.4929,-1.5784,-1.5784,-1.5784,-1.5784,-1.5784,-1.5784,-1.5784,-1.5784,-1.5784,-1.5784,-1.5784,-1.5784,-1.5919,-1.6213,-1.644,-1.6613,-1.6693,-1.7061,-1.7321,-1.7326,-1.7434,-1.7548,-1.7569,-1.7582,-1.7582,-1.7582,-1.7582,-1.7582,-1.7582,-1.7582,-1.7582,-1.7582,-1.7796,-1.7909,-1.7896,-1.7909,-1.7902,-1.7995,-1.7742,-1.7622,-1.7709,-1.7622,-1.7742,-1.8002,-1.8428,-1.8628,0.0,0.0,0.0,0.0,0.0,0.0,-1.0081,-0.9563,-0.9074,0.0,-0.9409,0.0,0.0,0.0,0.0,0.0,0.0,0.0,0.0,0.0,0.0,0.0,0.0,0.0,0.0,-1.3846,-1.3553,-1.3427,-1.3058,-1.273,-1.2603,-1.2285,-1.183,-1.1196,-1.139,-1.1396,-1.1176,-1.1516,-1.181,-1.2051,-1.2225,-1.2305,-1.2305,-1.2305,-1.2305,-1.2318,-1.2656,-1.2784,-1.2811,-1.3126,-1.3166,-1.3007,-1.2853,-1.2215,-1.1391,-1.1477,-1.1107,-1.0527,-1.0575,-1.0611,-1.0733,-1.1531,-1.245,-1.3356,-1.418,-1.5076,-1.5784,-1.5784,-1.5784,-1.5784,-1.5784,-1.5784,-1.5784,-1.5784,-1.5784,-1.5784,-1.5784,-1.5784,-1.5919,-1.6213,-1.6506,-1.6747,-1.6867,-1.7275,-1.7522,-1.7407,-1.7475,-1.7582,-1.7582,-1.7582,-1.7582,-1.7582,-1.7582,-1.7582,-1.7582,-1.7702,-1.7769,-1.7762,-1.8056,-1.8223,-1.821,-1.8049,-1.8109,-1.8355,-1.7989,-1.7836,-1.7963,-1.7836,-1.7996,-1.8368,-1.8891,-1.8978,0.0,0.0,0.0,0.0,0.0,0.0,-0.9617,-0.9,-0.8355,0.0,0.0,0.0,0.0,0.0,0.0,0.0,0.0,0.0,0.0,0.0,0.0,0.0,0.0,0.0,-1.4449,-1.3926,-1.3487,-1.3233,-1.2931,-1.2616,-1.2318,-1.2058,-1.1764,-1.1402,-1.1176,-1.1136,-1.1295,-1.1362,-1.1655,-1.2204,-1.2271,-1.2224,-1.215,-1.2261,-1.2224,-1.2164,-1.2579,-1.2737,-1.2737,-1.2737,-1.2712,-1.2542,-1.1918,-1.1356,-1.0824,-1.0398,-1.0144,-1.0085,-1.0325,-1.0394,-1.0641,-1.2068,-1.2835,-1.3441,-1.4753,-1.5478,-1.5784,-1.5784,-1.5784,-1.5784,-1.5784,-1.5784,-1.5784,-1.5784,-1.5784,-1.5784,-1.5784,-1.5784,-1.5919,-1.6213,-1.6506,-1.68,-1.7146,-1.744,-1.7582,-1.7582,-1.7582,-1.7582,-1.7582,-1.7582,-1.7582,-1.7582,-1.7582,-1.7582,-1.7582,-1.7836,-1.7949,-1.8016,-1.8317,-1.8504,-1.8537,-1.8283,-1.8335,-1.8911,-1.8288,-1.8176,-1.8444,-1.8176,-1.8275,-1.8885,-1.9178,-1.9038,0.0,0.0,0.0,0.0,0.0,0.0,-0.9953,-0.8852,-0.7802,0.0,-0.6841,0.0,0.0,0.0,0.0,0.0,0.0,0.0,0.0,0.0,0.0,0.0,0.0,0.0,-1.4168,-1.3848,-1.3487,-1.3233,-1.2699,-1.2365,-1.2305,-1.2245,-1.1977,-1.1409,-1.1335,-1.1142,-1.0767,-1.1189,-1.1449,-1.1568,-1.2078,-1.1885,-1.1124,-1.1922,-1.1848,-1.113,-1.2018,-1.2385,-1.2385,-1.2385,-1.2029,-1.1489,-1.155,-1.0407,-0.8805,-0.9076,-0.857,-0.7876,-0.8873,-0.9235,-0.9414,-1.0661,-1.2021,-1.3269,-1.355,-1.4657,-1.5784,-1.5784,-1.5784,-1.5784,-1.5784,-1.5784,-1.5784,-1.5784,-1.5784,-1.5784,-1.5784,-1.5784,-1.5919,-1.6213,-1.6506,-1.68,-1.7146,-1.744,-1.7582,-1.7582,-1.7582,-1.7582,-1.7582,-1.7582,-1.7582,-1.7582,-1.7582,-1.7582,-1.7582,-1.7642,-1.7776,-1.7975,-1.8323,-1.8597,-1.8831,-1.8784,-1.8804,-1.8918,-1.8288,-1.8022,-1.8075,-1.8022,-1.8175,-1.8577,-1.8878,-1.8951,0.0,0.0,0.0,-1.2124,0.0,0.0,0.0,-0.9359,-0.8589,-0.8056,-0.7376,-0.713,-0.7913,0.0,0.0,0.0,0.0,0.0,0.0,0.0,0.0,0.0,0.0,0.0,-1.4246,-1.386,-1.342,-1.3013,-1.2559,-1.2305,-1.2305,-1.2305,-1.2104,-1.1663,-1.1503,-1.1356,-1.1249,-1.1356,-1.1535,-1.1864,-1.2158,-1.2033,-1.1583,-1.207,-1.2033,-1.1583,-1.2077,-1.2305,-1.2305,-1.2305,-1.1783,-1.0962,-1.0551,-0.9836,-0.8955,-0.8123,-0.7862,-0.7985,-0.8686,-0.9279,-0.9923,-1.108,-1.2246,-1.3308,-1.3902,-1.4896,-1.5784,-1.5784,-1.5784,-1.5784,-1.5784,-1.5784,-1.5784,-1.5784,-1.5784,-1.5635,-1.4997,-1.5343,-1.5721,-1.5358,-1.6047,-1.68,-1.7146,-1.744,-1.7582,-1.7582,-1.7582,-1.7582,-1.7582,-1.7582,-1.7582,-1.7582,-1.7582,-1.7582,-1.7582,-1.7722,-1.7883,-1.7982,-1.833,-1.8617,-1.8911,-1.8784,-1.8704,-1.8704,-1.8417,-1.827,-1.827,-1.7963,-1.805,-1.8497,-1.8637,-1.8631,0.0,0.0,0.0,0.0,0.0,-1.1801,0.0,0.0,0.0,-0.9157,-0.8573,0.0,0.0,0.0,0.0,0.0,0.0,0.0,0.0,0.0,0.0,0.0,0.0,0.0,-1.3944,-1.3728,-1.3333,-1.2824,-1.2509,-1.2305,-1.2305,-1.2305,-1.2171,-1.1913,-1.1637,-1.1597,-1.1819,-1.1603,-1.175,-1.2218,-1.2278,-1.2187,-1.204,-1.2224,-1.2077,-1.1737,-1.1929,-1.1885,-1.1737,-1.1922,-1.1459,-1.0521,-0.9889,-0.9725,-0.9606,-0.7702,-0.7693,-0.8717,-0.9083,-0.9836,-1.0826,-1.2206,-1.3049,-1.374,-1.4819,-1.5458,-1.5784,-1.5784,-1.5784,-1.5784,-1.5784,-1.5784,-1.5784,-1.5784,-1.5784,-1.5439,-1.4166,-1.4902,-1.5523,-1.4508,-1.5588,-1.68,-1.7146,-1.744,-1.7582,-1.7582,-1.7582,-1.7582,-1.7582,-1.7582,-1.7582,-1.7582,-1.7582,-1.7582,-1.7582,-1.7816,-1.7929,-1.7989,-1.827,-1.8564,-1.8911,-1.8751,-1.8631,-1.8577,-1.8517,-1.8464,-1.8404,-1.7909,-1.7815,-1.8004,-1.8293,-1.8106,0.0,0.0,0.0,0.0,-1.2516,0.0,0.0,0.0,-1.0694,-1.0084,0.0,0.0,0.0,0.0,0.0,0.0,0.0,0.0,0.0,0.0,0.0,0.0,0.0,0.0,0.0,-1.2968,-1.312,-1.2811,-1.2509,-1.2305,-1.2305,-1.2305,-1.2171,-1.1913,-1.1873,-1.171,-1.1442,-1.1703,-1.1893,-1.1953,-1.2178,-1.1842,-1.1013,-1.1885,-1.1323,-0.9674,-1.0565,-1.0453,-0.9707,-1.0602,-1.0508,-0.9896,-1.0556,-1.0273,-0.9419,-0.8538,-0.8302,-0.8636,-0.9938,-1.0481,-1.0956,-1.3167,-1.4302,-1.4921,-1.5525,-1.5731,-1.5784,-1.5784,-1.5784,-1.5784,-1.5784,-1.5784,-1.5784,-1.5784,-1.5784,-1.5439,-1.4166,-1.4902,-1.5523,-1.4508,-1.5588,-1.68,-1.7146,-1.744,-1.7582,-1.7582,-1.7582,-1.7582,-1.7582,-1.7582,-1.7582,-1.7582,-1.7582,-1.7582,-1.7582,-1.7615,-1.7756,-1.7975,-1.8029,-1.8288,-1.8905,-1.9145,-1.9145,-1.8878,-1.8617,-1.8364,-1.8042,-1.7975,-1.7354,-1.6241,-1.7479,-1.7351,0.0,0.0,0.0,0.0,0.0,0.0,-1.196,0.0,-1.1476,0.0,0.0,0.0,0.0,0.0,0.0,0.0,-0.9037,0.0,0.0,0.0,0.0,0.0,0.0,0.0,0.0,0.0,0.0,0.0,-1.2509,-1.2305,-1.2305,-1.2305,-1.2245,-1.2124,-1.1993,-1.1926,-1.1931,-1.1926,-1.1986,-1.2124,-1.2245,-1.2077,-1.1657,-1.1502,-1.0975,-1.0153,-1.0008,-0.9707,-0.9334,-0.9744,-0.9765,-0.9509,-0.9854,-0.954,-0.8743,-0.7771,-0.7892,-0.876,-1.0148,-1.1169,-1.2211,-1.423,-1.5017,-1.5291,-1.5705,-1.5784,-1.5784,-1.5784,-1.5784,-1.5784,-1.5784,-1.5242,-1.4704,-1.4704,-1.4076,-1.3204,-1.1891,-1.2619,-1.3477,-1.3221,-1.4527,-1.5916,-1.6992,-1.744,-1.7582,-1.7582,-1.7582,-1.7582,-1.7582,-1.7582,-1.7582,-1.7582,-1.7582,-1.7582,-1.7582,-1.7749,-1.7829,-1.7776,-1.811,-1.8417,-1.8664,-1.9118,-1.9225,-1.8931,-1.8804,-1.8597,-1.8303,-1.8303,-1.7563,-1.6133,-1.7444,-1.7657,-1.2084,0.0,0.0,0.0,0.0,0.0,0.0,0.0,0.0,0.0,0.0,0.0,0.0,0.0,0.0,0.0,0.0,-0.9326,0.0,0.0,0.0,0.0,0.0,0.0,0.0,0.0,0.0,-1.2834,-1.2518,-1.2305,-1.2305,-1.2305,-1.2305,-1.2305,-1.2098,-1.2091,-1.2298,-1.2091,-1.2091,-1.2305,-1.2305,-1.215,-1.1848,-1.1124,-1.0519,-0.9976,-0.9263,-0.8774,-0.8544,-0.8813,-0.8932,-0.8889,-0.8942,-0.8675,-0.8211,-0.7417,-0.7746,-0.8811,-1.026,-1.1904,-1.3622,-1.4943,-1.5398,-1.5451,-1.5745,-1.5784,-1.5784,-1.5784,-1.554,-1.5289,-1.5289,-1.4316,-1.3343,-1.3343,-1.2624,-1.1556,-1.0293,-1.1023,-1.1869,-1.1834,-1.3461,-1.5194,-1.6414,-1.718,-1.7582,-1.7582,-1.7582,-1.7582,-1.7582,-1.7582,-1.7582,-1.7582,-1.7582,-1.7582,-1.7582,-1.7869,-1.7896,-1.7722,-1.8277,-1.8577,-1.8497,-1.9058,-1.9265,-1.9052,-1.8965,-1.8818,-1.8611,-1.8611,-1.8043,-1.6925,-1.775,-1.7939,0.0,0.0,0.0,-1.1913,0.0,0.0,0.0,0.0,-1.2211,0.0,0.0,0.0,0.0,0.0,0.0,0.0,0.0,0.0,0.0,0.0,0.0,0.0,0.0,0.0,0.0,0.0,-1.3154,-1.3193,-1.2639,-1.2305,-1.2305,-1.2305,-1.2305,-1.2305,-1.2291,-1.2291,-1.2305,-1.2291,-1.2291,-1.2305,-1.2305,-1.1774,-1.0864,-1.082,-0.9812,-0.8076,-0.8076,-0.749,-0.6664,-0.7644,-0.7974,-0.7876,-0.8008,-0.8045,-0.8034,-0.8098,-0.8242,-0.8666,-1.0475,-1.2752,-1.4997,-1.5297,-1.5398,-1.5451,-1.5745,-1.5784,-1.5784,-1.5784,-1.4902,-1.3968,-1.3968,-1.2958,-1.1945,-1.1945,-1.1945,-1.1556,-1.0293,-1.1023,-1.1619,-1.0632,-1.28,-1.4883,-1.5213,-1.6539,-1.7582,-1.7582,-1.7582,-1.7582,-1.7582,-1.7582,-1.7582,-1.7582,-1.7582,-1.7582,-1.7582,-1.7869,-1.7989,-1.7975,-1.8528,-1.8784,-1.8504,-1.9058,-1.9366,-1.9352,-1.9072,-1.8918,-1.8911,-1.8911,-1.8708,-1.8435,-1.8484,-1.7723,0.0,0.0,-1.1383,-1.1806,0.0,0.0,0.0,0.0,0.0,0.0,0.0,0.0,0.0,0.0,0.0,0.0,0.0,0.0,0.0,0.0,0.0,0.0,0.0,0.0,0.0,0.0,0.0,-1.2281,-1.2131,-1.2053,-1.2053,-1.2198,-1.2305,-1.2305,-1.2529,-1.263,-1.263,-1.2042,-1.178,-1.178,-1.178,-1.1183,-1.0077,-1.015,-0.9399,-0.7974,-0.7381,-0.683,-0.6417,-0.6824,-0.6994,-0.6953,-0.7005,-0.7119,-0.7275,-0.7333,-0.7407,-0.7819,-0.9627,-1.1848,-1.397,-1.4286,-1.4999,-1.5698,-1.5751,-1.5194,-1.4555,-1.4555,-1.359,-1.2576,-1.2576,-1.1604,-1.0632,-1.0632,-0.9948,-0.9213,-0.8775,-0.9019,-0.9508,-1.0129,-1.1225,-1.2714,-1.4729,-1.5674,-1.6499,-1.747,-1.7582,-1.7582,-1.7582,-1.7582,-1.7582,-1.7582,-1.7582,-1.7582,-1.7582,-1.7869,-1.8075,-1.833,-1.8704,-1.8878,-1.8784,-1.9158,-1.9424,-1.9424,-1.9265,-1.9219,-1.9219,-1.9219,-1.9165,-1.9072,-1.9072,-1.8724,-1.1243,-1.1136,0.0,-1.1463,-1.1349,0.0,-1.173,0.0,0.0,0.0,0.0,0.0,0.0,0.0,0.0,0.0,0.0,0.0,0.0,-1.1015,0.0,0.0,0.0,0.0,0.0,0.0,-1.0985,-1.1842,-1.1481,-1.1433,0.0,-1.1712,-1.168,-1.184,-1.1707,-1.1656,-1.1708,-1.1118,-1.0877,-1.0877,-1.0877,-1.0272,-0.9181,-0.9258,-0.8657,-0.7515,-0.6942,-0.6563,-0.6385,-0.6532,-0.676,-0.6995,-0.6753,-0.6961,-0.7393,-0.7011,-0.7344,-0.8099,-0.9299,-1.1067,-1.2897,-1.3101,-1.374,-1.4418,-1.4418,-1.3836,-1.3199,-1.3199,-1.2237,-1.1219,-1.1219,-1.0243,-0.9266,-0.9266,-0.8627,-0.7988,-0.7988,-0.7988,-0.8261,-0.9253,-1.0114,-1.13,-1.3148,-1.455,-1.5902,-1.7364,-1.7582,-1.7582,-1.7582,-1.7582,-1.7582,-1.7582,-1.7582,-1.7629,-1.7736,-1.8029,-1.829,-1.8477,-1.8858,-1.9032,-1.8925,-1.9205,-1.9412,-1.9519,-1.9419,-1.9477,-1.9519,-1.9477,-1.9424,-1.9424,-1.9259,-1.9165]},{"header":{"parameterUnit":"m.s-1","parameterCategory":1,"la1":30.6,"la2":29.2853,"lo1":-89.7004,"lo2":-87.6739,"dy":0.0162,"dx":0.0183,"nx":112,"ny":82,"refTime":"2023-09-05T06:00:00:Z","depth":0,"parameterNumber":3,"parameterNumberName":"V-component_of_WINDS"},"data":[0.0,0.0,0.0,0.0,0.0,0.0,0.0,0.0,0.0,0.0,0.0,0.0,0.0,0.0,0.0,0.0,0.0,0.0,0.0,0.0,0.0,0.0,0.0,0.0,0.0,0.0,0.0,0.0,0.0,0.0,0.0,0.0,0.0,0.0,0.0,0.0,0.0,0.0,0.0,0.0,0.0,0.0,0.0,0.0,0.0,0.0,0.0,0.0,0.0,0.0,0.0,0.0,0.0,0.0,0.0,0.0,0.0,0.0,0.0,0.0,0.0,0.0,0.0,0.0,0.0,0.0,0.0,0.0,0.0,0.0,0.0,0.0,0.0,0.0,0.0,0.0,0.0,0.0,0.0,0.0,0.0,0.0,0.0,0.0,0.0,0.0,0.0,0.0,0.0,0.0,0.0,1.438,1.575,1.6965,1.7848,1.7583,1.6777,1.5538,0.0,0.0,0.0,0.0,0.0,0.0,0.0,0.0,0.0,0.0,0.0,0.0,0.0,0.0,0.0,0.0,0.0,0.0,0.0,0.0,0.0,0.0,0.0,0.0,0.0,0.0,0.0,0.0,0.0,0.0,0.0,0.0,0.0,0.0,0.0,0.0,0.0,0.0,0.0,0.0,0.0,0.0,0.0,0.0,0.0,0.0,0.0,0.0,0.0,0.0,0.0,0.0,0.0,0.0,0.0,0.0,0.0,0.0,0.0,0.0,0.0,0.0,0.0,0.0,0.0,0.0,0.0,0.0,0.0,0.0,0.0,0.0,0.0,0.0,0.0,0.0,0.0,0.0,0.0,0.0,0.0,0.0,0.0,0.0,0.0,0.0,0.0,0.0,0.0,0.0,0.0,0.0,0.0,0.0,0.0,0.0,0.0,0.0,0.0,0.0,0.0,0.0,0.0,0.0,1.5774,1.8227,1.9404,1.9804,1.9482,1.8501,1.7259,1.5824,0.0,0.0,0.0,0.0,0.0,0.0,0.0,0.0,0.0,0.0,0.0,0.0,0.0,0.0,0.0,0.0,0.0,0.0,0.0,0.0,0.0,0.0,0.0,0.0,0.0,0.0,0.0,0.0,0.0,0.0,0.0,0.0,0.0,0.0,0.0,0.0,0.0,0.0,0.0,0.0,0.0,0.0,0.0,0.0,0.0,0.0,0.0,0.0,0.0,0.0,0.0,0.0,0.0,0.0,0.0,0.0,0.0,0.0,0.0,0.0,0.0,0.0,0.0,0.0,0.0,0.0,0.0,0.0,0.0,0.0,0.0,0.0,0.0,0.0,0.0,0.0,0.0,0.0,0.0,0.0,0.0,0.0,0.0,0.0,0.0,0.0,0.0,0.0,0.0,0.0,0.0,0.0,0.0,0.0,0.0,0.0,0.0,0.0,0.0,0.0,0.0,0.0,0.0,1.5435,1.7085,1.9352,2.01,2.0201,1.9619,1.8631,1.7542,1.6413,1.5917,0.0,0.0,0.0,0.0,0.0,0.0,0.0,0.0,0.0,0.0,0.0,0.0,0.0,0.0,0.0,0.0,0.0,0.0,0.0,0.0,0.0,0.0,0.0,0.0,0.0,0.0,0.0,0.0,0.0,0.0,0.0,0.0,0.0,0.0,0.0,0.0,0.0,0.0,0.0,0.0,0.0,0.0,0.0,0.0,0.0,0.0,0.0,0.0,0.0,0.0,0.0,0.0,0.0,0.0,0.0,0.0,0.0,0.0,0.0,0.0,0.0,0.0,0.0,0.0,0.0,0.0,0.0,0.0,0.0,0.0,0.0,0.0,0.0,0.0,0.0,0.0,0.0,0.0,0.0,0.0,0.0,0.0,0.0,0.0,0.0,0.0,0.0,0.0,0.0,0.0,0.0,0.0,0.0,0.0,0.0,0.0,0.0,0.0,0.0,0.0,0.0,0.0,1.759,1.8653,1.9832,2.0205,2.0164,1.9702,1.8245,1.7203,1.6708,1.5727,0.0,0.0,0.0,0.0,0.0,0.0,0.0,0.0,0.0,0.0,0.0,0.0,0.0,0.0,0.0,0.0,0.0,0.0,0.0,0.0,0.0,0.0,0.0,0.0,0.0,0.0,0.0,0.0,0.0,0.0,0.0,0.0,0.0,0.0,0.0,0.0,0.0,0.0,0.0,0.0,0.0,0.0,0.0,0.0,0.0,0.0,0.0,0.0,0.0,0.0,0.0,0.0,0.0,0.0,0.0,0.0,0.0,0.0,0.0,0.0,0.0,0.0,0.0,0.0,0.0,0.0,0.0,0.0,0.0,0.0,0.0,0.0,0.0,0.0,0.0,0.0,0.0,0.0,0.0,0.0,0.0,0.0,0.0,0.0,0.0,0.0,0.0,0.0,0.0,0.0,0.0,0.0,0.0,0.0,0.0,0.0,0.0,0.0,0.0,0.0,0.0,0.0,1.8697,2.1004,2.0528,2.067,2.0722,2.0438,1.7449,1.5766,1.6226,1.4832,0.0,0.0,0.0,0.0,0.0,0.0,0.0,0.0,0.0,0.0,0.0,0.0,0.0,0.0,0.0,0.0,0.0,0.0,0.0,0.0,0.0,0.0,0.0,0.0,0.0,0.0,0.0,0.0,0.0,0.0,0.0,0.0,0.0,0.0,0.0,0.0,0.0,0.0,0.0,0.0,0.0,0.0,0.0,0.0,0.0,0.0,0.0,0.0,0.0,0.0,0.0,0.0,0.0,0.0,0.0,0.0,0.0,0.0,0.0,0.0,0.0,0.0,0.0,0.0,0.0,0.0,0.0,0.0,0.0,0.0,0.0,0.0,0.0,0.0,0.0,0.0,0.0,0.0,0.0,0.0,0.0,0.0,0.0,0.0,0.0,0.0,0.0,0.0,0.0,0.0,0.0,0.0,0.0,0.0,0.0,0.0,0.0,0.0,0.0,0.0,0.0,0.0,1.8982,2.0793,0.0,2.1671,2.1693,2.1178,1.9512,1.8285,1.7662,0.0,0.0,0.0,0.0,0.0,0.0,0.0,0.0,0.0,0.0,0.0,0.0,0.0,0.0,0.0,0.0,0.0,0.0,0.0,0.0,0.0,0.0,0.0,0.0,0.0,0.0,0.0,0.0,0.0,0.0,0.0,0.0,0.0,0.0,0.0,0.0,0.0,0.0,0.0,0.0,0.0,0.0,0.0,0.0,0.0,0.0,0.0,0.0,0.0,0.0,0.0,0.0,0.0,0.0,0.0,0.0,0.0,0.0,0.0,0.0,0.0,0.0,0.0,0.0,0.0,0.0,0.0,0.0,0.0,0.0,0.0,0.0,0.0,0.0,0.0,0.0,0.0,0.0,0.0,0.0,0.0,0.0,0.0,0.0,0.0,0.0,0.0,0.0,0.0,0.0,0.0,0.0,0.0,0.0,0.0,0.0,0.0,0.0,0.0,0.0,0.0,0.0,1.7237,1.9613,2.1462,0.0,2.2273,2.2265,2.1802,2.0365,1.9125,1.8342,0.0,0.0,0.0,0.0,0.0,0.0,0.0,0.0,0.0,0.0,0.0,0.0,0.0,0.0,0.0,0.0,0.0,0.0,0.0,0.0,0.0,0.0,0.0,0.0,0.0,0.0,0.0,0.0,0.0,0.0,0.0,0.0,0.0,0.0,0.0,0.0,0.0,0.0,0.0,0.0,0.0,0.0,0.0,0.0,0.0,0.0,0.0,0.0,0.0,0.0,0.0,0.0,0.0,0.0,0.0,0.0,0.0,0.0,0.0,0.0,0.0,0.0,0.0,0.0,0.0,0.0,0.0,0.0,0.0,0.0,0.0,0.0,0.0,0.0,0.0,0.0,0.0,0.0,0.0,0.0,0.0,0.0,0.0,0.0,0.0,0.0,0.0,0.0,0.0,0.0,0.0,0.0,0.0,0.0,0.0,0.0,0.0,0.0,0.0,0.0,0.0,0.0,1.6957,2.0863,2.3436,2.2512,2.2416,2.2416,2.2416,1.9419,1.7675,0.0,0.0,0.0,0.0,0.0,0.0,0.0,0.0,0.0,0.0,0.0,0.0,0.0,0.0,0.0,0.0,0.0,0.0,0.0,0.0,0.0,0.0,0.0,0.0,0.0,0.0,0.0,0.0,0.0,0.0,0.0,0.0,0.0,0.0,0.0,0.0,0.0,0.0,0.0,0.0,0.0,0.0,0.0,0.0,0.0,0.0,0.0,0.0,0.0,0.0,0.0,0.0,0.0,0.0,0.0,0.0,0.0,0.0,0.0,0.0,0.0,0.0,0.0,0.0,0.0,0.0,0.0,0.0,0.0,0.0,0.0,0.0,0.0,0.0,0.0,0.0,0.0,0.0,0.0,0.0,0.0,0.0,0.0,0.0,0.0,0.0,0.0,0.0,0.0,0.0,0.0,0.0,0.0,0.0,0.0,0.0,0.0,0.0,0.0,0.0,0.0,0.0,0.0,1.8611,2.1608,2.3693,2.34,2.3621,2.3679,2.3393,2.1919,2.0404,1.8966,0.0,0.0,0.0,0.0,0.0,0.0,0.0,0.0,0.0,0.0,0.0,0.0,0.0,0.0,0.0,0.0,0.0,0.0,0.0,0.0,0.0,0.0,0.0,0.0,0.0,0.0,0.0,0.0,0.0,0.0,0.0,0.0,0.0,0.0,0.0,0.0,0.0,0.0,0.0,0.0,0.0,0.0,0.0,0.0,0.0,0.0,0.0,0.0,0.0,0.0,0.0,0.0,0.0,0.0,0.0,0.0,0.0,0.0,0.0,0.0,0.0,0.0,0.0,0.0,0.0,0.0,0.0,0.0,0.0,0.0,0.0,0.0,0.0,0.0,0.0,0.0,0.0,0.0,0.0,0.0,0.0,0.0,0.0,0.0,0.0,0.0,0.0,0.0,0.0,0.0,0.0,0.0,0.0,0.0,0.0,0.0,0.0,0.0,0.0,0.0,0.0,0.0,1.9512,2.1875,2.3525,2.3525,2.376,2.3799,2.3555,2.29,2.1592,1.9424,0.0,0.0,0.0,0.0,0.0,0.0,0.0,0.0,0.0,0.0,0.0,0.0,0.0,0.0,0.0,0.0,0.0,0.0,0.0,0.0,0.0,0.0,0.0,0.0,0.0,0.0,0.0,0.0,0.0,0.0,0.0,0.0,0.0,0.0,0.0,0.0,0.0,0.0,0.0,0.0,0.0,0.0,0.0,0.0,0.0,0.0,0.0,0.0,0.0,0.0,0.0,0.0,0.0,0.0,0.0,0.0,0.0,0.0,0.0,0.0,0.0,0.0,0.0,0.0,0.0,0.0,0.0,0.0,0.0,0.0,0.0,0.0,0.0,0.0,0.0,0.0,0.0,0.0,0.0,0.0,0.0,0.0,0.0,0.0,0.0,0.0,0.0,0.0,0.0,0.0,0.0,0.0,0.0,0.0,0.0,0.0,0.0,0.0,0.0,0.0,0.0,0.0,2.0003,2.1963,2.3337,2.343,2.343,2.343,2.343,2.3034,2.1937,1.9826,0.0,0.0,0.0,0.0,0.0,0.0,0.0,0.0,0.0,0.0,0.0,0.0,0.0,0.0,0.0,0.0,0.0,0.0,0.0,0.0,0.0,0.0,0.0,0.0,0.0,0.0,0.0,0.0,0.0,0.0,0.0,0.0,0.0,0.0,0.0,0.0,0.0,0.0,0.0,0.0,0.0,0.0,0.0,0.0,0.0,0.0,0.0,0.0,0.0,0.0,0.0,0.0,0.0,0.0,0.0,0.0,0.0,0.0,0.0,0.0,2.4655,0.0,0.0,0.0,0.0,0.0,0.0,0.0,0.0,0.0,0.0,0.0,0.0,0.0,0.0,0.0,0.0,0.0,0.0,0.0,0.0,0.0,0.0,0.0,0.0,0.0,0.0,0.0,0.0,0.0,0.0,0.0,0.0,0.0,0.0,0.0,0.0,0.0,0.0,0.0,0.0,0.0,2.1188,2.3477,2.5259,2.5723,2.5766,2.5766,2.5766,2.536,2.4428,2.2849,2.1541,0.0,0.0,0.0,0.0,0.0,0.0,0.0,0.0,0.0,0.0,0.0,0.0,0.0,0.0,0.0,0.0,0.0,0.0,0.0,0.0,0.0,0.0,0.0,0.0,0.0,0.0,0.0,0.0,0.0,0.0,0.0,0.0,0.0,0.0,0.0,0.0,0.0,0.0,0.0,0.0,0.0,0.0,0.0,0.0,0.0,0.0,0.0,0.0,0.0,0.0,0.0,0.0,0.0,0.0,0.0,0.0,0.0,0.0,0.0,0.0,2.6559,0.0,0.0,0.0,0.0,0.0,0.0,0.0,0.0,0.0,0.0,0.0,0.0,0.0,0.0,0.0,0.0,0.0,0.0,0.0,0.0,0.0,0.0,0.0,0.0,0.0,0.0,0.0,0.0,0.0,0.0,0.0,0.0,0.0,0.0,0.0,0.0,0.0,0.0,0.0,0.0,2.2411,2.4299,2.573,2.6039,2.6337,2.6382,2.6095,2.6091,2.5532,2.4186,2.3074,0.0,0.0,0.0,0.0,0.0,0.0,0.0,0.0,0.0,0.0,0.0,0.0,0.0,0.0,0.0,0.0,0.0,0.0,0.0,0.0,0.0,0.0,0.0,0.0,0.0,0.0,0.0,0.0,0.0,0.0,0.0,0.0,0.0,0.0,0.0,0.0,0.0,0.0,0.0,0.0,0.0,0.0,0.0,0.0,0.0,0.0,0.0,0.0,0.0,0.0,0.0,0.0,0.0,3.3452,3.3766,3.3132,3.3858,3.4481,3.486,3.1845,3.0803,3.1202,2.9793,0.0,0.0,0.0,0.0,0.0,0.0,0.0,0.0,0.0,0.0,0.0,0.0,0.0,0.0,0.0,0.0,0.0,0.0,0.0,0.0,0.0,0.0,0.0,0.0,2.8306,2.8176,0.0,0.0,0.0,0.0,0.0,0.0,0.0,0.0,0.0,0.0,0.0,0.0,2.3351,2.4888,2.5932,2.6012,2.6491,2.6571,2.6058,2.6502,2.625,2.5073,2.4376,2.3329,0.0,0.0,0.0,0.0,0.0,0.0,0.0,0.0,0.0,0.0,0.0,0.0,0.0,0.0,0.0,0.0,0.0,0.0,0.0,0.0,0.0,0.0,0.0,0.0,0.0,0.0,0.0,0.0,0.0,0.0,0.0,0.0,2.9566,3.0705,0.0,0.0,0.0,0.0,0.0,0.0,0.0,0.0,0.0,0.0,0.0,0.0,0.0,3.3068,3.3947,3.5052,3.5152,3.4299,3.7001,3.7766,3.6827,3.7894,3.8708,3.9193,3.8689,0.0,3.4038,3.1463,0.0,0.0,0.0,0.0,0.0,0.0,0.0,0.0,0.0,0.0,0.0,0.0,0.0,0.0,0.0,0.0,0.0,0.0,0.0,0.0,0.0,0.0,3.2241,3.0319,3.0685,3.1082,0.0,2.6961,2.428,2.3524,2.2382,0.0,0.0,0.0,0.0,0.0,0.0,0.0,2.352,2.5594,2.726,2.773,2.7841,2.7866,2.7792,2.7854,2.7594,2.6985,2.5921,2.5261,2.4996,2.3524,0.0,0.0,0.0,0.0,0.0,0.0,0.0,0.0,0.0,0.0,0.0,0.0,0.0,0.0,0.0,0.0,0.0,0.0,0.0,0.0,0.0,0.0,0.0,0.0,0.0,0.0,0.0,0.0,0.0,2.885,3.0419,3.0834,3.0778,3.0843,0.0,0.0,0.0,0.0,0.0,0.0,0.0,0.0,0.0,3.6866,3.7044,3.7467,3.822,3.9015,3.9348,3.9201,4.0505,4.089,4.0432,4.057,4.0934,4.1397,4.0371,3.9629,3.8978,3.6144,3.4152,3.2804,0.0,0.0,0.0,0.0,3.2595,3.3033,3.421,3.44,0.0,3.3366,0.0,0.0,0.0,0.0,0.0,0.0,0.0,0.0,0.0,0.0,3.3102,3.1928,3.2198,3.2552,3.2014,3.0242,2.8385,0.0,2.6414,2.5449,2.3946,0.0,0.0,0.0,0.0,2.4166,2.4628,2.622,2.7369,2.762,2.7921,2.7984,2.767,2.7921,2.8201,2.8457,2.7692,2.7085,2.6788,2.5787,2.4564,0.0,0.0,0.0,0.0,0.0,0.0,0.0,0.0,0.0,0.0,0.0,0.0,0.0,0.0,0.0,0.0,0.0,0.0,0.0,0.0,0.0,0.0,0.0,0.0,0.0,0.0,0.0,0.0,3.0062,3.1823,3.1499,3.2778,3.3516,0.0,0.0,0.0,0.0,0.0,0.0,3.8061,3.7817,3.8472,4.0365,4.0681,4.1118,4.1626,4.2038,4.245,4.292,4.3259,4.3384,4.337,4.2871,4.2881,4.3235,4.1696,4.1681,4.2555,3.9575,3.735,3.5788,3.4943,3.4301,3.3971,3.5101,3.5662,3.6038,3.7629,3.7714,3.702,3.6068,3.4938,3.3512,3.1033,0.0,0.0,0.0,0.0,3.096,3.1632,3.287,3.3783,3.3094,3.3452,3.3854,3.3423,3.282,3.1856,0.0,2.9547,2.8698,2.6509,0.0,0.0,0.0,0.0,2.5303,2.5942,2.7038,2.7657,2.7427,2.7774,2.7744,2.714,2.7645,2.8286,2.8912,2.875,2.8445,2.8032,2.7344,2.6096,2.4189,0.0,0.0,0.0,0.0,0.0,0.0,0.0,0.0,0.0,0.0,0.0,0.0,0.0,0.0,0.0,0.0,0.0,0.0,0.0,0.0,0.0,0.0,0.0,0.0,0.0,0.0,0.0,0.0,0.0,3.4489,3.7549,0.0,0.0,0.0,0.0,3.7786,3.765,3.8864,4.1963,4.078,4.0984,4.3156,4.2775,4.2837,4.3352,4.3393,4.3421,4.3448,4.4691,4.5255,4.5257,4.515,4.5135,4.5117,4.4378,4.3752,4.3016,3.9611,3.8519,3.8797,3.7111,3.644,3.6543,3.7472,3.8231,3.8919,3.9913,3.9816,3.9444,4.0629,3.9286,3.6909,3.5571,3.3657,0.0,0.0,3.2562,3.2839,3.2025,3.3595,3.5144,3.4143,3.4687,3.5404,3.5374,3.4595,3.3311,0.0,3.0026,2.907,2.8305,0.0,2.7094,2.6397,2.728,2.7815,2.7292,2.8222,2.8597,2.7776,2.7703,2.7395,2.6606,2.7261,2.7729,2.7782,2.8527,2.8967,2.8939,2.7809,2.7104,2.6992,2.4682,0.0,0.0,0.0,0.0,0.0,0.0,0.0,0.0,0.0,0.0,0.0,0.0,0.0,0.0,0.0,0.0,0.0,0.0,0.0,0.0,0.0,0.0,0.0,0.0,0.0,0.0,0.0,0.0,3.7372,3.9746,0.0,4.0613,4.0677,4.1311,4.2628,4.2622,4.3643,4.6082,4.5296,4.5317,4.652,4.6402,4.6207,4.5928,4.5973,4.5973,4.5973,4.6403,4.6638,4.6609,4.6139,4.5723,4.5259,4.4601,4.4182,4.3817,4.2184,4.1613,4.1755,4.0739,4.0354,4.0354,4.0731,4.0994,4.1299,4.2016,4.1579,4.0472,3.923,3.7629,3.6103,3.5654,3.4654,3.3763,3.4206,3.4191,3.4053,3.4171,3.4824,3.5392,3.5052,3.5246,3.5385,3.4936,3.4577,3.3974,3.2823,3.2126,3.1447,3.0471,2.9784,2.8835,2.725,2.7672,2.8113,2.7908,2.8553,2.8876,2.8556,2.8524,2.8427,2.8149,2.7993,2.8142,2.87,2.8609,2.8532,2.8532,2.7711,2.668,2.5411,2.4197,2.3386,0.0,0.0,0.0,0.0,0.0,0.0,0.0,0.0,0.0,0.0,0.0,0.0,0.0,0.0,0.0,0.0,0.0,0.0,0.0,0.0,0.0,0.0,0.0,0.0,0.0,0.0,3.8975,3.9559,4.2308,4.3936,4.3419,4.4403,4.5427,4.6249,4.6501,4.7219,4.8551,4.8207,4.8057,4.8282,4.8282,4.7967,4.7309,4.7309,4.7309,4.7309,4.7309,4.7189,4.695,4.6277,4.5723,4.5244,4.4362,4.4107,4.4272,4.3559,4.3424,4.3559,4.294,4.2686,4.2686,4.2686,4.2686,4.2686,4.2671,4.1818,4.0352,3.8123,3.6701,3.5804,3.5564,3.519,3.4921,3.537,3.5175,3.4936,3.5385,3.5504,3.5444,3.522,3.516,3.4981,3.4292,3.4174,3.4039,3.3589,3.336,3.2937,3.1949,3.1407,3.0643,2.9242,2.9194,2.9408,2.9622,2.9761,2.9735,2.9473,2.9442,2.9317,2.9034,2.8847,2.8937,2.9274,2.8942,2.8647,2.8401,2.7746,2.6905,2.5849,2.5038,2.4198,2.3345,0.0,0.0,0.0,0.0,0.0,0.0,0.0,0.0,0.0,0.0,0.0,0.0,0.0,0.0,0.0,0.0,0.0,0.0,0.0,0.0,0.0,0.0,0.0,3.505,3.9004,4.1758,4.1137,4.538,4.7563,4.5603,4.7832,4.9105,4.8431,4.8985,4.9359,4.9374,4.9359,4.9045,4.8341,4.8312,4.7997,4.7309,4.7309,4.7309,4.7309,4.7309,4.6965,4.6264,4.5633,4.5304,4.52,4.3888,4.3678,4.4227,4.3559,4.3663,4.4197,4.3544,4.3305,4.3319,4.329,4.3245,4.305,4.1773,4.0472,3.917,3.7823,3.6956,3.6342,3.5699,3.5504,3.5504,3.5504,3.5504,3.5504,3.5504,3.5504,3.534,3.4698,3.4518,3.4324,3.3634,3.3484,3.3455,3.344,3.344,3.3245,3.2617,3.2512,3.2497,3.2452,3.1914,0.0,3.2392,3.1914,3.1234,3.0477,3.0372,3.004,2.9188,2.9844,3.0026,2.9304,2.9405,2.9232,2.8562,2.7899,2.7839,2.8487,2.723,2.5929,2.4634,0.0,0.0,0.0,0.0,0.0,0.0,0.0,0.0,0.0,0.0,0.0,0.0,0.0,0.0,0.0,0.0,0.0,0.0,0.0,0.0,0.0,0.0,3.9891,3.9599,4.1893,4.3935,4.4736,4.7313,4.882,4.8266,4.9688,5.0601,5.0421,5.0137,5.0182,5.0661,5.0227,4.9673,4.906,4.9045,4.8461,4.7309,4.7309,4.7309,4.7309,4.7309,4.6965,4.6264,4.6127,4.5499,4.4556,4.4212,4.3828,4.3544,4.3364,4.3165,4.2925,4.3185,4.3589,4.3928,4.2985,4.2327,4.1728,4.0412,3.9394,3.8452,3.7165,3.6312,3.5744,3.5564,3.5504,3.5504,3.5504,3.5504,3.5504,3.5504,3.5504,3.5459,3.5265,3.4846,3.4324,3.3634,3.3125,3.2647,3.2138,3.2049,3.2138,3.2437,3.2512,3.2333,3.1854,3.1615,0.0,3.2392,3.1914,3.1811,3.2554,3.2198,3.1796,3.157,3.0881,2.9976,2.8853,2.7935,2.7335,2.7156,2.6497,2.6243,2.6422,2.6063,2.5689,0.0,0.0,0.0,0.0,0.0,0.0,0.0,0.0,0.0,0.0,0.0,0.0,0.0,0.0,0.0,0.0,0.0,0.0,0.0,0.0,0.0,0.0,4.1272,4.3225,4.3778,4.4601,4.5753,4.7369,4.8566,4.9524,5.0032,5.078,5.1214,5.1214,5.0823,5.0764,5.1199,5.0808,5.0227,4.9344,4.9314,4.8685,4.7309,4.7309,4.7309,4.7309,4.7309,4.6815,4.5888,4.5888,4.5319,4.4302,4.4018,4.3798,4.3678,4.3409,4.294,0.0,0.0,0.0,0.0,0.0,4.113,4.0412,3.9349,3.8377,3.7464,3.6731,3.6043,3.5504,3.5504,3.5504,3.5504,3.5504,3.5504,3.5504,3.5504,3.5504,3.5429,3.5145,3.4562,3.3888,3.323,3.2557,3.1959,3.1585,3.1511,0.0,3.2004,3.2064,3.2034,3.1929,3.1675,3.1735,3.2392,3.1914,3.1795,3.2587,3.2303,3.2064,3.2064,3.1361,0.0,0.0,0.0,2.7186,2.6617,2.6497,0.0,0.0,0.0,2.6991,2.6437,0.0,0.0,0.0,2.7345,2.754,0.0,0.0,0.0,0.0,0.0,0.0,0.0,0.0,0.0,0.0,0.0,0.0,0.0,0.0,0.0,0.0,4.4287,4.5963,4.7234,4.698,4.7249,4.8895,4.9224,4.9718,5.0885,5.1139,5.1214,5.1214,5.1214,5.1214,5.1214,0.0,0.0,0.0,0.0,4.8685,4.7309,4.7309,4.7264,4.7189,4.7189,4.6486,4.5185,4.5185,4.4825,4.4167,4.3544,4.3618,4.4152,4.3544,4.291,4.2291,4.2291,4.1841,4.1085,4.0502,3.9828,3.9095,3.8422,0.0,0.0,3.6402,3.5983,3.5504,3.5504,3.5504,3.5504,3.5504,3.5504,3.5489,3.5415,3.5385,3.522,3.4563,3.3858,3.3215,3.2647,3.1974,3.1511,3.1511,3.1511,3.1511,3.1511,3.1511,3.1705,3.2288,3.1869,3.1735,3.2392,3.1914,3.157,3.1705,0.0,0.0,3.1615,3.154,3.0943,2.9696,2.8966,2.8068,2.6856,2.748,2.7505,2.6829,2.8572,2.894,2.7835,2.9018,2.9411,2.9033,2.8216,2.8423,0.0,0.0,0.0,0.0,0.0,0.0,0.0,0.0,0.0,0.0,0.0,0.0,0.0,0.0,0.0,4.4257,4.5963,4.7189,4.7982,4.8446,4.8446,4.7773,4.8626,4.9419,4.9613,5.0601,5.1214,5.1214,5.1214,5.1214,5.1214,5.1214,5.0616,4.9359,4.9314,4.8685,4.7309,4.7309,4.704,4.6516,0.0,0.0,4.4496,4.4496,4.4152,4.3484,4.3349,4.3364,4.3469,4.3349,4.2641,4.1602,4.1602,4.0846,3.9783,3.9649,3.8841,3.7704,3.7075,3.6686,3.6402,3.5863,3.5609,3.5504,3.5504,3.5504,0.0,3.5504,3.5504,3.5385,3.4816,3.4698,3.4502,3.3844,3.3185,3.2677,3.2542,3.1974,3.1511,3.1511,3.1511,3.1511,3.1511,3.1511,3.154,3.1675,3.1585,3.1735,3.2392,3.1914,3.1914,3.3006,3.2647,3.2303,3.2303,3.1809,3.0943,2.9696,2.8966,2.8487,2.8218,2.8846,2.8867,2.8165,2.8495,2.8855,2.9125,2.9388,3.0323,3.1779,3.0029,2.9041,0.0,0.0,0.0,0.0,0.0,0.0,0.0,0.0,0.0,0.0,0.0,3.9199,0.0,0.0,4.4212,4.6845,4.8117,4.8775,4.8775,4.9105,4.894,4.7923,4.8715,4.9434,4.9718,5.0346,5.0823,5.1184,5.1214,5.1214,5.1214,5.0868,5.0272,4.9344,4.8985,4.8297,4.7309,4.7309,4.698,4.6279,4.6279,4.5618,4.4317,4.4317,4.3917,4.329,4.329,4.329,4.3245,4.2626,4.1968,4.1309,4.0651,3.9993,3.9298,3.8661,3.7988,3.727,3.6327,3.5998,3.5938,3.5609,3.5504,3.5504,3.5504,3.5504,3.5504,3.5504,3.5504,3.5355,3.4651,3.4503,3.4339,3.3649,3.2991,3.2512,3.2512,3.1974,3.1511,3.1511,3.1511,3.1511,3.1511,3.1796,3.1938,3.1553,3.1824,3.2157,3.252,3.2539,3.2669,3.3006,3.2764,3.2394,3.2018,3.1376,3.0746,3.0088,2.9445,2.9086,2.9086,2.94,2.958,2.9558,2.9884,3.0362,3.1052,3.1382,3.2079,3.3079,3.2055,3.1235,0.0,0.0,0.0,0.0,0.0,0.0,0.0,0.0,3.867,4.0421,4.1442,4.2608,4.4618,4.5443,4.6666,4.906,4.9898,5.0017,4.9404,4.9419,4.9119,4.8192,4.8686,4.9284,4.9762,4.9927,5.0272,5.0795,5.084,5.084,5.084,5.0331,4.9748,4.9149,4.8566,4.7967,4.7309,4.7309,4.6905,4.6127,4.6127,4.5424,4.4122,4.4122,4.3798,4.329,4.3512,4.3515,4.3305,4.2327,4.1847,4.1568,4.0233,3.9612,3.9299,3.7922,3.7255,3.6896,3.5863,3.5504,3.5504,3.5504,3.5504,3.5504,3.5504,3.5504,3.5504,3.5504,3.5504,3.5355,3.4651,3.4414,3.4159,3.3469,3.2796,3.2317,3.2317,3.1884,3.1511,3.1511,3.1511,3.1568,3.1697,3.2323,3.2548,3.1811,3.2312,3.285,3.3002,3.3467,3.3572,3.2897,3.2815,3.2521,3.1783,3.1227,3.0951,3.1101,3.0657,3.0384,3.0384,3.0384,3.0637,3.1152,3.1693,3.2307,3.2983,3.3501,3.3858,3.4003,3.3862,3.3443,3.3969,3.344,3.4053,3.6387,3.6804,3.7577,0.0,0.0,4.3057,4.4401,4.5504,4.6462,4.7256,4.7722,4.8431,4.9898,5.0151,5.0017,4.9404,4.9763,4.9449,4.7638,4.7997,4.8431,4.8491,4.903,4.9449,4.9524,4.9524,4.9524,4.9524,4.9464,4.912,4.8416,4.8327,4.7967,4.7309,4.7309,4.6666,4.5409,4.5409,4.4721,4.3409,4.3409,4.3364,4.3369,4.4259,4.4247,4.3652,4.3756,4.3405,4.269,4.1277,4.0286,3.9465,3.7967,3.6686,3.5699,3.5549,3.5504,3.5504,3.5504,3.5504,3.5504,3.5504,3.5504,3.5504,3.5504,3.5504,3.5355,3.4651,3.4038,3.344,3.2781,3.2093,3.1615,3.1615,3.1555,3.1511,3.1511,3.1511,3.1726,3.2355,3.3082,3.3324,3.2597,3.3066,3.3718,3.4383,3.4542,3.4314,3.3665,3.3581,3.3277,3.2539,3.2415,3.2625,3.3212,3.3201,3.3153,3.3153,3.3153,3.3155,3.3172,3.3237,3.3631,3.4297,3.4359,3.4746,3.5362,3.4776,3.4137,3.5008,3.4951,0.0,0.0,3.8182,3.9757,4.2887,4.4373,4.5636,4.7491,4.8576,4.9244,4.9511,4.9658,4.9966,0.0,5.0764,5.0451,4.9464,4.9508,4.894,4.6965,4.7309,4.7863,4.8252,4.8536,4.8895,4.9284,4.9314,4.9314,4.9314,4.894,4.8566,4.8297,4.7923,4.7399,4.6741,4.6741,4.6052,4.4721,4.4721,4.4242,4.3329,4.3927,4.4457,4.4995,4.5452,4.5203,4.4473,4.4227,4.366,4.2877,4.1454,4.0467,3.9613,3.8094,3.6907,3.6028,3.5639,3.5504,3.5504,3.5504,3.5504,3.5504,3.5504,3.5504,3.5504,3.5504,3.5504,3.5355,3.4651,3.4294,3.3903,3.3245,3.2557,3.2079,3.2079,3.178,3.1511,3.1511,3.1511,3.1739,3.2449,3.354,3.4303,3.4394,3.501,3.5417,3.5303,3.6024,3.6288,3.5576,3.4771,3.4169,3.3857,3.3825,3.3757,3.3614,3.3582,3.3582,3.3582,3.3582,3.3783,3.4124,3.4147,3.4469,3.5148,3.5148,3.5295,3.56,3.5299,3.5028,3.5926,0.0,0.0,3.7988,3.9854,4.2073,4.4495,4.6387,4.8188,5.0019,5.0925,5.1287,5.103,5.0858,5.0841,5.0936,5.0898,5.0556,4.9464,4.9149,4.8341,4.6531,4.6576,4.701,4.7683,4.7908,4.8222,4.8686,4.8775,4.8775,4.8775,4.8282,4.7938,4.7743,4.7459,4.689,4.6052,4.619,4.5648,4.4317,4.4317,4.4078,4.3732,4.4759,4.5466,4.5885,4.618,4.5749,4.4845,4.4626,4.3976,4.2986,4.1752,4.0753,3.9771,3.8453,3.7359,3.6464,3.598,3.5668,3.5504,3.5504,3.5651,3.5814,3.5814,3.5958,3.6148,3.6148,3.6148,3.6026,3.5553,3.5094,3.4651,3.4001,3.329,3.2732,3.2551,3.2285,3.2076,3.2076,3.2076,3.2358,3.3291,3.4478,3.5519,3.6208,3.7112,3.7427,3.6705,3.7184,3.7385,3.6852,3.5351,3.4455,3.4662,3.4662,3.4529,3.4185,3.4153,3.4153,3.4153,3.4153,3.4374,3.4871,3.4894,3.5098,3.56,3.56,3.56,3.56,3.56,3.56,3.6484,3.6911,3.7853,3.9813,4.2198,4.4623,4.674,4.9188,5.1255,5.2081,5.254,5.2518,5.1547,5.1057,5.0688,5.0274,5.0226,4.9986,4.9404,4.876,4.7818,4.6444,4.5753,4.5618,0.0,4.6965,4.7339,4.7369,4.7369,4.7369,4.7369,4.7339,4.704,4.6396,4.698,4.6666,4.5334,4.5992,4.5648,4.4317,4.4317,4.4461,4.4774,4.5726,4.5786,4.5181,4.6093,4.5665,4.4381,4.5278,4.4755,4.332,4.2571,4.1375,3.999,3.9166,3.7905,3.66,3.6554,3.6086,3.5504,3.5504,3.5975,3.6584,3.6584,3.71,3.7735,3.7735,3.7735,3.7735,3.7703,3.6625,3.5392,3.4831,3.4045,3.3321,3.2729,3.3108,3.3531,3.3531,3.3531,3.3986,3.5366,3.6223,3.6987,3.7735,3.9065,3.9732,3.898,3.7695,3.681,3.681,3.4897,3.3894,3.4536,3.4585,3.4864,3.5492,3.5554,3.5554,3.5554,3.5554,3.5538,3.5577,3.5577,3.5577,3.56,3.56,3.56,3.56,3.56,3.56,3.7908,3.8296,3.911,4.0666,4.2855,4.5074,4.6901,4.8805,5.0443,5.1391,5.0907,4.9958,4.8868,4.8453,4.8152,4.7688,4.8745,4.9374,4.8716,4.885,4.8117,4.5903,4.6217,0.0,0.0,0.0,0.0,4.7234,4.6905,4.6651,4.6651,4.6651,4.6337,4.5663,4.5858,4.5845,4.5559,4.5789,4.5788,4.5561,4.5561,4.5948,4.6678,4.6986,4.7062,4.6984,4.73,4.6602,4.5211,4.5031,4.435,4.3274,4.2049,4.1276,4.0728,3.9973,3.9032,3.7987,3.6948,3.6446,3.6228,3.6228,3.6384,3.6707,3.7233,3.7573,3.7793,3.7793,3.7793,3.7793,3.7793,3.7427,3.7015,3.6793,3.5843,3.4897,3.4702,3.4489,3.4184,3.3704,3.3992,3.4626,3.5531,3.6306,3.736,3.91,3.9385,3.9469,3.9706,3.8865,3.827,3.827,3.7603,3.7069,3.6796,3.6786,3.668,3.6417,3.591,3.56,3.56,3.56,3.56,3.56,3.56,3.56,3.56,3.56,3.56,3.56,3.56,3.56,3.9239,3.9721,4.0501,4.2221,4.3976,4.5813,4.7729,4.9032,4.9943,5.0328,4.9661,4.8497,4.6853,4.6234,4.5908,4.5707,4.6518,4.7482,4.841,4.8168,4.7542,4.6724,4.6617,4.6337,0.0,0.0,0.0,4.686,4.6785,4.6471,4.5978,4.6187,4.6055,4.5445,4.5698,4.5828,4.5875,4.6125,4.6224,4.6208,4.6523,4.689,4.721,4.7552,4.7481,4.7094,4.7094,4.6278,4.4857,4.4367,4.3555,4.2513,4.1576,4.1035,4.0747,4.0282,3.9782,3.9139,3.7873,3.7247,3.7024,3.7024,3.7217,3.7526,3.8048,3.8402,3.864,3.864,3.864,3.864,3.864,3.8402,3.8141,3.7926,3.7138,3.6379,3.6147,3.5968,3.5626,3.4889,3.5347,3.599,3.6406,3.732,3.8455,3.9893,3.9706,3.9571,4.0045,3.9469,3.8988,3.8988,3.8751,3.8413,3.7939,3.7669,3.7297,3.6829,3.6045,3.56,3.56,3.56,3.56,3.56,3.56,3.56,3.56,3.56,3.56,3.56,3.56,3.56,4.0427,4.1096,4.1995,4.4187,4.5452,4.6773,4.8959,4.9709,4.9712,4.8984,4.8748,4.7897,0.0,0.0,4.4103,4.4319,4.3888,4.4815,4.8484,4.695,4.6316,0.0,0.0,0.0,0.0,0.0,0.0,4.6259,0.0,4.6636,4.5364,4.596,4.61,4.568,4.633,4.6532,4.626,4.6933,4.6968,4.6349,4.7206,4.7259,4.6599,4.7469,4.7073,4.5703,4.5669,4.4807,4.3375,4.3308,4.2446,4.1204,4.117,4.0713,4.0096,4.0096,4.0096,3.9978,3.9236,3.8469,3.7863,3.7863,3.833,3.8908,3.8935,3.9489,4.0096,4.0096,4.0096,4.0096,4.0096,3.9516,3.884,3.8233,3.7982,3.7699,3.705,3.746,3.7736,3.7015,3.7449,3.7973,3.7973,3.914,4.0096,4.0096,4.0096,4.0096,4.0096,3.9503,3.9039,3.8988,3.8413,3.8007,3.7973,3.7297,3.6914,3.6914,3.6129,3.565,3.565,3.565,3.565,3.565,3.565,3.565,3.565,3.5616,3.56,3.56,3.56,3.56,4.1872,4.2088,4.2374,4.3419,4.4937,4.6212,4.626,4.6992,4.7428,4.6701,4.5196,4.3468,0.0,0.0,0.0,4.2333,4.4665,0.0,4.8629,4.8083,0.0,4.8038,0.0,4.6976,4.7395,4.686,0.0,0.0,4.6407,4.5663,4.5319,4.6133,4.6102,4.5053,4.5877,4.6612,4.7239,4.81,4.8457,4.8289,4.796,4.7718,4.7516,4.7237,4.6583,4.5669,4.5111,4.4316,4.3308,4.2219,4.1542,4.1153,4.0595,4.0282,4.0096,4.0096,4.0096,4.007,3.9876,3.9262,3.8635,3.8635,3.8745,3.9016,3.961,3.9927,4.0096,4.0096,4.0096,4.0096,4.0096,3.9952,3.9774,3.9589,3.911,3.8656,3.8479,3.8603,3.8497,3.7753,3.821,3.8717,3.8717,3.9503,4.0096,4.0096,4.0096,4.0096,4.0096,3.9943,3.9622,3.9056,3.9309,3.9334,3.8768,3.8548,3.843,3.843,3.7235,3.6485,3.6485,3.6485,3.6485,3.6485,3.6485,3.6485,3.6485,3.5887,3.56,3.56,3.56,3.56,4.2762,4.291,4.2983,4.3758,4.483,4.5539,4.4914,4.5315,4.5331,4.3606,4.2236,0.0,3.9415,0.0,0.0,0.0,0.0,0.0,4.8891,4.8756,4.8789,0.0,4.9249,0.0,4.8922,4.8491,4.8441,0.0,4.7629,4.6427,4.553,4.6703,4.6981,4.6076,4.6539,4.7273,4.8193,4.8719,4.8849,4.8528,4.8091,4.7551,4.6938,4.6515,4.572,4.4671,0.0,4.3453,4.2388,4.1542,4.1204,4.117,4.073,4.0578,4.0578,4.0578,4.0383,4.0096,4.0096,3.9808,3.9437,3.9437,3.9437,3.9516,3.9952,4.0096,4.0096,4.0096,4.0096,4.0096,4.0096,4.0096,4.0096,4.0096,3.9791,3.9486,3.9486,3.9486,3.9343,3.8937,3.8937,3.9089,3.9436,3.9842,4.0096,4.0096,4.0096,4.0096,4.0096,4.0096,3.9943,3.9537,3.9859,3.9943,3.9537,3.9174,3.8988,3.8988,3.7922,3.728,3.728,3.728,3.728,3.728,3.728,3.711,3.6795,3.6349,3.596,3.56,3.56,3.56,4.3576,4.3745,4.3752,4.4527,4.4903,4.4868,4.4136,4.4077,4.3335,4.0519,0.0,3.9386,3.8024,3.7953,3.878,4.0783,0.0,4.4286,4.9303,4.9161,4.96,5.2523,5.1415,5.0435,5.0605,4.9935,4.9791,5.0412,4.9592,4.8168,4.6143,4.7485,4.8158,4.7803,4.7803,4.8193,4.9001,4.89,4.8545,4.7889,4.7686,4.6955,4.5703,4.55,4.4688,4.3375,4.3189,0.0,4.1204,4.1204,4.1204,4.1221,4.1322,4.1288,4.1204,4.1204,4.073,4.0096,4.0096,4.0096,4.0096,4.0096,4.0096,4.0096,4.0096,4.0096,4.0096,4.0096,4.0096,4.0096,4.0096,4.0096,4.0096,4.0096,4.0096,4.0096,4.0096,4.0096,4.0096,4.0096,3.9588,3.9368,3.9994,4.0096,4.0096,4.0096,4.0096,4.0096,4.0096,4.0096,4.0096,4.0096,4.0096,4.0096,4.0096,3.952,3.914,3.914,3.8447,3.8058,3.8058,3.8058,3.8058,3.8058,3.8058,3.7686,3.6948,3.6846,3.6383,3.56,3.56,3.56,4.4976,4.4978,4.4866,4.4459,4.4657,4.4434,4.2589,4.1972,0.0,0.0,3.8717,3.8024,3.7168,3.8484,4.0153,4.1526,0.0,0.0,0.0,0.0,4.9876,0.0,0.0,0.0,0.0,0.0,0.0,0.0,0.0,4.9694,4.7935,4.8272,4.8613,4.8753,4.8767,4.8829,4.9001,4.8409,4.8024,4.7872,4.6667,4.5957,4.5669,4.4384,4.3646,4.3325,4.2117,0.0,4.1204,4.1204,4.1204,4.1271,4.1863,4.1728,4.1204,4.1204,4.073,4.0096,4.0096,4.0096,4.0096,4.0096,4.0096,4.0096,4.0096,4.0096,4.0096,4.0096,4.0096,4.0096,4.0096,4.0096,4.0096,4.0096,4.0096,4.0096,4.0096,4.0096,4.0096,4.0096,3.9994,3.996,4.0079,4.0096,4.0096,4.0096,4.0096,4.0096,4.0096,4.0096,4.0096,4.0096,4.0096,4.0096,4.0096,3.9994,3.991,3.991,3.9208,3.8802,3.8802,3.8802,3.8802,3.8802,3.8802,3.8447,3.7719,3.7117,3.6383,3.56,3.56,3.56,4.5233,4.505,4.4706,4.4392,4.4059,4.3236,4.1055,0.0,0.0,0.0,3.6935,3.6603,3.6248,3.7381,0.0,0.0,0.0,0.0,0.0,0.0,0.0,0.0,0.0,0.0,0.0,0.0,0.0,0.0,0.0,4.9873,4.8527,4.8679,4.8882,4.8987,4.9001,4.8832,4.8443,4.8075,4.75,4.6769,4.6041,4.528,4.4474,4.4181,4.3589,4.2794,4.2083,0.0,4.1711,4.0933,4.1068,4.1762,4.1728,4.1508,4.1204,4.1204,4.073,4.0096,4.0096,4.0096,4.0096,4.0096,4.0096,4.0096,4.0096,4.0096,4.0096,4.0096,4.0096,4.0096,4.0096,4.0096,4.0096,4.0096,4.0096,4.0096,4.0096,4.0096,4.0096,4.0096,4.0096,4.0096,4.0096,4.0096,4.0096,4.0096,4.0096,4.0096,4.0096,4.0096,4.0096,4.0096,4.0096,4.0096,4.0096,4.0096,4.0096,4.0096,3.9774,3.9571,3.9571,3.9571,3.9571,3.9571,3.9571,3.9191,3.8464,3.8108,3.755,3.6783,3.6783,3.6783,4.5196,4.502,4.4646,4.4212,4.3436,4.2169,3.9818,3.9024,0.0,3.6039,3.56,3.56,3.56,3.6129,3.7313,0.0,4.0578,0.0,0.0,0.0,0.0,0.0,0.0,0.0,0.0,0.0,0.0,0.0,0.0,0.0,4.873,4.8895,4.9001,4.9001,4.9001,4.8663,4.7889,4.772,4.7005,4.5703,4.5382,4.4587,4.3409,4.3876,4.3464,4.2286,4.2117,0.0,0.0,4.106,4.1264,4.2252,4.1847,4.1491,4.1204,4.1204,4.073,4.0096,4.0096,4.0096,4.0096,4.0096,4.0096,4.0096,4.0096,4.0096,4.0096,4.0096,4.0096,4.0096,4.0096,4.0096,4.0096,4.0096,4.0096,4.0096,4.0096,4.0096,4.0096,4.0096,4.0096,4.0096,4.0096,4.0096,4.0096,4.0096,4.0096,4.0096,4.0096,4.0096,4.0096,4.0096,4.0096,4.0096,4.0096,4.0096,4.0096,4.0096,4.0096,4.0096,4.0096,4.0096,4.0096,4.0096,4.0096,3.974,3.8988,3.8988,3.8616,3.7905,3.7905,3.7905,4.5507,4.5708,4.5666,4.3843,4.306,4.1992,3.923,0.0,3.755,3.5921,3.56,3.56,3.56,3.565,3.6671,0.0,0.0,4.2016,0.0,0.0,0.0,0.0,0.0,0.0,0.0,0.0,0.0,0.0,0.0,0.0,4.8962,4.9004,4.9001,4.9001,4.9001,4.8663,4.7889,4.7242,4.6498,4.5686,4.4271,4.3527,4.3375,4.2777,4.2422,4.2252,4.1593,0.0,0.0,4.2134,4.2168,4.2354,4.298,4.2361,4.1204,4.1204,4.073,4.0096,4.0096,4.0096,4.0096,4.0096,4.0096,4.0096,4.0096,4.0096,4.0096,4.0096,4.0096,4.0096,4.0096,4.0096,4.0096,4.0096,4.0096,4.0096,4.0096,4.0096,4.0096,4.0096,4.0096,4.0096,4.0096,4.0096,4.0096,4.0096,4.0096,4.0096,4.0096,4.0096,4.0096,4.0096,4.0096,4.0096,4.0096,4.0096,4.0096,4.0096,4.0096,4.0096,4.0096,4.0096,4.0096,4.0096,4.0096,3.974,3.8988,3.8988,3.8616,3.7905,3.7905,3.7905,4.5343,4.5278,4.484,4.3658,4.2376,4.0928,3.893,0.0,3.706,3.6451,3.6315,3.6315,3.6315,3.6315,3.6705,3.7929,3.7702,0.0,4.3859,0.0,0.0,0.0,0.0,0.0,0.0,0.0,0.0,0.0,0.0,0.0,4.9001,4.9001,4.9001,4.9001,4.8578,4.7986,4.7242,4.6515,4.5534,4.4316,4.368,4.2919,4.2083,4.2219,4.2049,4.1644,4.1796,0.0,0.0,4.2472,4.2286,4.2286,4.2134,4.1457,4.0527,4.0527,4.0367,4.0096,4.0096,4.0096,4.0096,4.0096,4.0096,4.0096,4.0096,4.0096,4.0096,4.0096,4.0096,4.0096,4.0096,4.0096,4.0096,4.0096,4.0096,4.0096,4.0096,4.0096,4.0096,4.0096,4.0096,4.0096,4.0096,4.0096,4.0096,4.0096,4.0096,4.0096,4.0096,4.0096,4.0096,4.0096,4.0096,4.0096,4.0096,4.0096,4.0096,4.0096,4.0096,4.0096,4.0096,4.0096,4.0096,4.0096,4.0096,3.996,3.9673,3.9673,3.952,3.9208,3.9208,3.9208,4.4845,4.4626,4.3953,4.3411,4.1778,3.999,0.0,0.0,3.7134,3.7134,3.7134,3.7066,3.6846,3.6795,3.6795,3.6795,3.6518,3.7618,4.1441,0.0,0.0,0.0,0.0,0.0,0.0,0.0,0.0,0.0,0.0,0.0,4.9001,4.8798,4.868,4.868,4.8159,4.7445,4.6481,4.5957,4.4942,4.3392,4.32,4.2422,4.1221,4.1728,4.1694,4.1238,4.1745,0.0,0.0,4.2286,4.1965,4.1914,4.1407,4.0747,4.0096,4.0096,4.0096,4.0096,4.0096,4.0096,4.0096,4.0096,4.0096,4.0096,4.0096,4.0096,4.0096,4.0096,4.0096,4.0096,4.0096,4.0096,4.0096,4.0096,4.0096,4.0096,4.0096,4.0096,4.0096,4.0096,4.0096,4.0096,4.0096,4.0096,4.0096,4.0096,4.0096,4.0096,4.0096,4.0096,4.0096,4.0096,4.0096,4.0096,4.0096,4.0096,4.0096,4.0096,4.0096,4.0096,4.0096,4.0096,4.0096,4.0096,4.0096,4.0096,4.0096,4.0096,4.0096,4.0096,4.0096,4.0096,4.4034,4.3823,4.3526,4.3121,4.131,3.9487,0.0,3.8337,3.7889,3.7889,3.7889,3.7669,3.6948,3.6795,3.6795,3.6795,3.7398,3.8667,4.0899,0.0,0.0,0.0,0.0,0.0,0.0,0.0,0.0,0.0,0.0,0.0,4.9001,4.8325,4.7906,4.7906,4.7889,4.7208,4.5737,4.5703,4.4942,4.3375,4.2658,4.1914,4.1204,4.1221,4.1221,0.0,0.0,0.0,0.0,4.1525,4.1221,4.1221,4.1204,4.0747,4.0096,4.0096,4.0096,4.0096,4.0096,4.0096,4.0096,4.0096,4.0096,4.0096,4.0096,4.0096,4.0096,4.0096,4.0096,4.0096,4.0096,4.0096,4.0096,4.0096,4.0096,4.0096,4.0096,4.0096,4.0096,4.0096,4.0096,4.0096,4.0096,4.0096,4.0096,4.0096,4.0096,4.0096,4.0096,4.0096,4.0096,4.0096,4.0096,4.0096,4.0096,4.0096,4.0096,4.0096,4.0096,4.0096,4.0096,4.0096,4.0096,4.0096,4.0096,4.0096,4.0096,4.0096,4.0096,4.0096,4.0096,4.0096,4.2492,4.2462,4.2153,4.1581,4.058,3.9568,3.8947,3.8337,3.8041,3.8548,3.865,3.8582,3.8345,3.7889,3.755,3.755,3.7313,3.7736,0.0,0.0,0.0,0.0,0.0,0.0,0.0,0.0,0.0,0.0,0.0,0.0,4.7496,4.7276,4.7394,4.7872,4.6938,4.594,4.4942,4.4401,4.3386,4.1897,4.166,4.1153,4.0468,4.0468,4.0468,0.0,0.0,0.0,0.0,4.183,4.1644,4.1204,4.1204,4.0747,4.0096,4.0096,4.0096,4.0096,4.0096,4.0096,4.0096,4.0096,4.0096,4.0096,4.0096,4.0096,4.0096,4.0096,4.0096,4.0096,4.0096,4.0096,4.0096,4.0096,4.0096,4.0096,4.0096,4.0096,4.0096,4.0096,4.0096,4.0096,4.0096,4.0096,4.0096,4.0096,4.0096,4.0096,4.0096,4.0096,4.0096,4.0096,4.0096,4.0096,4.0096,4.0096,4.0096,4.0096,4.0096,4.0096,4.0096,4.0096,4.0096,4.0096,4.0096,4.0096,4.0096,4.0096,4.0096,4.0096,4.0096,4.0096,4.1742,4.1776,4.1412,4.1322,4.0369,0.0,3.9325,3.8573,3.8108,3.8853,3.8768,3.8497,3.821,3.7787,3.7398,3.7094,3.7144,3.7533,0.0,0.0,0.0,0.0,0.0,0.0,0.0,0.0,0.0,0.0,0.0,0.0,4.6786,4.6261,4.6295,4.7056,4.5906,4.506,4.4615,4.3521,4.2523,4.161,4.1339,4.0798,4.0096,4.0096,4.0096,0.0,0.0,0.0,0.0,4.1271,4.1187,4.0781,4.0781,4.0493,4.0096,4.0096,4.0096,4.0096,4.0096,4.0096,4.0096,4.0096,4.0096,4.0096,4.0096,4.0096,4.0096,4.0096,4.0096,4.0096,4.0096,4.0096,4.0096,4.0096,4.0096,4.0096,4.0096,4.0096,4.0096,4.0096,4.0262,4.0417,4.0417,4.0417,4.0417,4.0417,4.0229,4.0096,4.0096,4.0096,4.0096,4.0096,4.0096,4.0096,4.0096,4.0096,4.0096,4.0096,4.0286,4.0417,4.0417,4.0618,4.0744,4.0744,4.0744,4.0642,4.0417,4.0204,4.0096,4.0096,4.0096,4.0096,0.0,4.141,4.1038,4.1873,4.0441,3.902,3.9767,3.887,0.0,3.8768,3.8379,3.7719,3.7083,3.688,3.6626,3.6028,3.7019,3.7939,0.0,0.0,0.0,0.0,0.0,0.0,0.0,0.0,0.0,0.0,0.0,0.0,4.6447,4.519,4.4739,4.5449,4.4739,4.4395,4.4445,4.2946,4.2185,4.2134,4.1457,4.0747,4.0096,4.0096,4.0096,0.0,0.0,0.0,0.0,4.0096,4.0096,4.0096,4.0096,4.0096,4.0096,4.0096,4.0096,4.0096,4.0096,4.0096,4.0096,4.0096,4.0096,4.0096,4.0096,4.0096,4.0096,4.0096,4.0096,4.0096,4.0096,4.0096,4.0096,4.0096,4.0096,4.0096,4.0096,4.0096,4.0121,4.0146,4.0552,4.0903,4.0949,4.0926,4.0903,4.0903,4.0476,4.0163,4.0113,4.0146,4.0163,4.0113,4.0096,4.0096,4.0096,4.0096,4.0121,4.0146,4.0607,4.0926,4.0972,4.1512,4.181,4.181,4.181,4.1534,4.0972,4.0449,4.0196,4.0171,4.0171,4.0146,3.9106,0.0,3.9505,3.9716,3.937,3.8849,0.0,3.8159,3.7956,3.8125,3.8024,3.8024,3.8396,3.7574,3.7303,3.8809,3.8396,3.8294,0.0,0.0,0.0,0.0,0.0,0.0,0.0,0.0,0.0,0.0,0.0,4.3775,4.3369,4.3014,4.2912,4.3081,4.2371,4.2269,4.2855,4.1914,4.117,4.062,4.0451,4.0282,4.0096,4.0096,4.0096,0.0,0.0,0.0,4.0096,4.0096,4.0096,4.0096,4.0096,4.0096,4.0096,4.0096,4.0096,4.0096,4.0096,4.0096,4.0096,4.0096,4.0096,4.0096,4.0096,4.0096,4.0096,4.0096,4.0096,4.0096,4.0096,4.0096,4.0096,4.0096,4.0096,4.0096,4.0096,4.0096,4.0229,4.0631,4.081,4.1041,4.1512,4.1201,4.0903,4.0903,4.092,4.073,4.018,4.0578,4.073,4.0163,4.0096,4.0096,4.0096,4.0096,4.0279,4.0679,4.0827,4.111,4.1578,4.1707,4.181,4.181,4.181,4.1729,4.1599,4.1464,4.1173,4.0709,4.0709,4.0497,3.7601,3.8413,3.9436,3.9073,3.8988,3.8886,3.8497,3.7872,3.7398,3.7398,0.0,0.0,3.7381,3.7077,3.7202,3.8403,3.8481,0.0,0.0,0.0,0.0,0.0,0.0,0.0,0.0,0.0,0.0,0.0,0.0,4.2371,4.2286,4.1965,4.1948,4.2286,4.1576,4.1542,4.2286,4.1221,4.0646,4.0595,4.0265,4.0096,4.0096,4.0096,4.0096,0.0,0.0,0.0,4.0121,4.0368,4.0473,4.0497,4.0767,4.0885,4.0861,4.057,4.0473,4.0424,4.0196,4.0262,4.0521,4.0791,4.0696,4.0473,4.0473,4.0286,4.0096,4.0096,4.0096,4.0096,4.0096,4.0096,4.0096,4.0096,4.0096,4.0096,4.0096,4.0286,4.0552,4.0833,4.1358,4.1832,4.2162,4.1937,4.1621,4.1358,4.1494,4.1255,4.0222,4.073,4.0916,4.018,4.0096,4.0096,4.0096,4.0096,4.0229,4.0504,4.1036,4.1468,4.1789,4.2306,4.2581,4.2581,4.2344,4.2203,4.2203,4.1937,4.149,4.0903,4.0903,4.0625,3.6973,3.8493,3.9946,3.9054,3.8903,3.8937,3.8717,3.7709,3.6778,0.0,0.0,0.0,0.0,3.6332,0.0,0.0,0.0,0.0,0.0,0.0,0.0,0.0,0.0,0.0,0.0,0.0,0.0,0.0,0.0,4.1424,4.1931,4.1373,4.1322,4.1931,4.1356,4.1322,4.1948,4.0722,4.0417,4.1018,4.0417,4.0146,4.0229,4.0229,4.0262,4.036,0.0,0.0,4.0392,4.085,4.1041,4.1087,4.1599,4.181,4.1729,4.1223,4.1041,4.0972,4.0538,4.0648,4.1133,4.1621,4.1446,4.1041,4.1041,4.0703,4.0336,4.0254,4.0171,4.0096,4.0096,4.0096,4.0096,4.0096,4.0171,4.0229,4.0229,4.0648,4.1064,4.1155,4.2,4.2767,4.297,4.295,4.2735,4.2359,4.2372,4.1916,4.0601,4.1035,4.112,4.0297,4.0286,4.036,4.036,4.0279,4.0254,4.036,4.1263,4.1895,4.2044,4.2977,4.3515,4.3515,4.305,4.2826,4.2826,4.2304,4.1707,4.1041,4.1041,4.0703,3.7694,3.8916,4.0145,3.8489,3.8531,3.8667,3.7422,3.6965,3.6609,0.0,0.0,0.0,0.0,3.6728,3.7218,0.0,0.0,0.0,0.0,0.0,0.0,0.0,0.0,0.0,0.0,0.0,0.0,0.0,0.0,4.0984,4.0468,4.0333,4.0333,4.0434,4.0333,4.0333,4.0451,4.0214,4.0163,4.0282,4.0146,4.0343,4.078,4.078,4.1059,4.1552,0.0,4.1552,4.1552,4.1621,4.1664,4.1664,4.175,4.181,4.1789,4.1703,4.1664,4.1643,4.1573,4.1578,4.1664,4.1771,4.1746,4.1664,4.1664,4.1599,4.1424,4.092,4.0449,4.0096,4.0096,4.0096,4.0096,4.0096,4.0449,4.078,4.078,4.1246,4.1793,4.2322,4.2559,4.3062,4.42,4.4031,4.392,4.4491,4.4146,4.3348,4.2046,4.2323,4.2153,4.0896,4.1223,4.1552,4.1552,4.1064,4.1013,4.1508,4.1686,4.2226,4.3196,4.341,4.3515,4.3515,4.3427,4.3375,4.3375,4.3286,4.2715,4.1664,4.1664,4.1082,3.7496,3.8335,3.9177,3.8463,3.8859,3.9166,3.8221,3.7669,3.7297,0.0,0.0,0.0,0.0,0.0,3.8464,0.0,0.0,0.0,0.0,0.0,0.0,0.0,0.0,0.0,0.0,0.0,0.0,0.0,0.0,0.0,4.013,4.0096,4.0096,4.0096,4.0096,4.0096,4.0096,4.0096,4.0096,4.0096,4.0096,4.0368,4.0903,4.0903,4.1246,4.181,0.0,4.181,4.1832,4.2142,4.2282,4.2322,4.2619,4.2734,4.2678,4.2384,4.208,4.1853,4.2162,4.2282,4.2324,4.262,4.2503,4.2282,4.2282,4.2059,4.1729,4.1468,4.0967,4.0473,4.0196,4.0096,4.0154,4.0473,4.0709,4.0995,4.1313,4.1874,4.2362,4.2635,4.2939,4.3342,4.394,4.3852,4.3723,4.3781,4.3878,4.3465,4.2158,4.252,4.2511,4.1494,4.1621,4.181,4.181,4.1556,4.1512,4.1789,4.2101,4.2638,4.348,4.3515,4.3515,4.3515,4.3515,4.3699,4.4158,4.3433,4.3069,4.301,4.1855,4.1092,3.7378,3.7985,3.8638,3.8517,3.9029,3.9479,3.9287,3.8684,3.821,3.8396,0.0,0.0,0.0,3.8768,0.0,0.0,0.0,0.0,0.0,0.0,0.0,0.0,0.0,0.0,0.0,0.0,0.0,0.0,0.0,0.0,4.0096,4.0096,4.0096,4.0096,4.0096,4.0096,4.0096,4.0034,4.0034,4.0096,4.0096,4.0368,4.0903,4.1041,4.1446,4.2021,4.2144,4.2206,4.2226,4.2694,4.2883,4.292,4.3339,4.3515,4.3444,4.3032,4.258,4.2266,4.2732,4.2883,4.2958,4.3375,4.3214,4.2883,4.2883,4.256,4.2165,4.2041,4.1686,4.1201,4.0642,4.049,4.0594,4.0995,4.1223,4.1446,4.1916,4.2462,4.2883,4.2883,4.3214,4.357,4.3736,4.3773,4.3705,4.3484,4.3769,4.3592,4.2439,4.2727,4.2784,4.2092,4.2124,4.2144,4.2021,4.2124,4.2144,4.2021,4.244,4.2939,4.3479,4.3515,4.3515,4.3515,4.3681,4.4085,4.4691,4.372,4.3527,4.4071,4.2259,4.1356,3.7911,3.8747,3.9536,3.849,3.8465,3.8917,3.9814,3.9445,3.9123,3.9792,0.0,0.0,0.0,3.9529,0.0,0.0,0.0,0.0,0.0,0.0,0.0,0.0,0.0,0.0,0.0,0.0,0.0,0.0,0.0,0.0,4.0096,4.0096,4.0096,4.0096,4.0096,4.0096,4.0096,3.9843,3.9843,4.0096,4.0096,4.0368,4.0926,4.149,4.2062,4.2655,4.316,4.3392,4.3374,4.3427,4.3444,4.3444,4.3479,4.3515,4.3497,4.3444,4.341,4.3374,4.3427,4.3444,4.3444,4.3497,4.3462,4.3444,4.3444,4.341,4.3286,4.2788,4.2616,4.244,4.1832,4.1682,4.1703,4.1746,4.2162,4.2577,4.2616,4.305,4.3444,4.3444,4.3462,4.3736,4.4488,4.4617,4.4856,4.5572,4.5077,4.4419,4.3833,4.3578,4.3251,4.2693,4.3087,4.3178,4.2674,4.3087,4.3178,4.2674,4.2692,4.2939,4.3479,4.3515,4.3515,4.3515,4.4232,4.4636,4.4691,4.479,4.4566,4.4089,4.3369,4.2387,3.7666,3.8382,3.8953,3.8151,3.8806,3.9924,4.0936,4.1404,4.1579,4.1415,4.158,0.0,0.0,0.0,0.0,0.0,0.0,0.0,0.0,0.0,0.0,0.0,0.0,0.0,0.0,0.0,0.0,0.0,0.0,0.0,3.9453,3.9436,3.9191,3.8751,3.901,3.9409,3.9914,3.9643,3.9817,4.0403,4.0014,4.0607,4.2,4.1874,4.2306,4.3214,4.341,4.3515,4.3515,4.3515,4.3515,4.3515,4.3515,4.3515,4.3515,4.3515,4.3515,4.3515,4.3515,4.3515,4.3515,4.3515,4.3515,4.3515,4.3515,4.3515,4.3444,4.325,4.3196,4.2977,4.2041,4.181,4.1895,4.2282,4.2519,4.2788,4.3142,4.3357,4.3515,4.3515,4.3515,4.3606,4.3901,4.3956,4.4232,4.5039,4.447,4.4051,4.4346,4.3869,4.3427,4.3214,4.3375,4.341,4.3214,4.3392,4.341,4.3214,4.3196,4.3286,4.3479,4.3975,4.4011,4.3515,4.4782,4.5461,4.5461,4.5192,4.5444,4.6104,4.4149,4.3166,3.7272,3.7881,3.8611,3.8183,3.933,4.0926,4.239,4.3125,4.3519,4.3575,4.3502,4.3017,4.1716,0.0,0.0,0.0,0.0,0.0,0.0,0.0,0.0,0.0,0.0,0.0,0.0,0.0,0.0,0.0,0.0,0.0,0.0,3.9007,3.8649,3.8138,3.8441,3.8937,3.9674,3.9411,3.9688,4.0471,3.9799,4.0385,4.2024,4.177,4.225,4.325,4.3427,4.3515,4.3515,4.3515,4.3515,4.3515,4.3515,4.3515,4.3515,4.3515,4.3515,4.3515,4.3515,4.3515,4.3515,4.3515,4.3515,4.3515,4.3515,4.3515,4.3515,4.3515,4.3515,4.3321,4.2542,4.2327,4.2444,4.2846,4.2958,4.305,4.3427,4.3515,4.3515,4.3515,4.3515,4.3515,4.3515,4.3515,4.3681,4.425,4.3846,4.3699,4.425,4.3828,4.3515,4.3515,4.3515,4.3515,4.3515,4.3515,4.3515,4.3515,4.3515,4.3608,4.3864,4.4158,4.4176,4.3883,4.5204,4.5902,4.5902,4.5845,4.638,4.7367,4.5258,4.436,3.6725,3.7459,3.8689,3.8689,3.9921,4.1737,4.4141,4.4444,4.4652,4.6265,4.4888,4.3144,4.2282,0.0,0.0,0.0,0.0,0.0,0.0,0.0,0.0,0.0,0.0,0.0,0.0,0.0,0.0,0.0,0.0,0.0,0.0,3.9027,3.8589,3.8572,3.8594,3.8854,3.9393,3.9118,3.9392,4.0203,3.9374,3.9565,4.0639,4.1145,4.188,4.275,4.3268,4.3515,4.3515,4.3515,4.3515,4.3515,4.3515,4.3515,4.3515,4.3515,4.3515,4.3515,4.3515,4.3515,4.3515,4.3515,4.3515,4.3515,4.3515,4.3515,4.3515,4.3515,4.3515,4.3515,4.3515,4.3515,4.3515,4.3515,4.3515,4.3515,4.3515,4.3515,4.3515,4.3515,4.3515,4.3515,4.3515,4.3515,4.3515,4.3515,4.3515,4.3515,4.3515,4.3515,4.3515,4.3515,4.3515,4.3515,4.3515,4.3515,4.3515,4.3515,4.3515,4.3864,4.4672,4.392,4.3883,4.4673,4.5498,4.5902,4.5902,4.6914,4.7406,4.7385,4.671,4.6029,3.583,3.6597,0.0,3.786,0.0,0.0,0.0,4.4383,4.4395,0.0,4.4383,4.3191,4.3458,0.0,0.0,0.0,0.0,0.0,0.0,0.0,0.0,0.0,0.0,0.0,0.0,0.0,0.0,0.0,0.0,0.0,0.0,3.8518,3.8151,3.7646,3.7941,3.8453,3.9174,3.8928,3.9197,3.9982,3.9179,3.9826,4.1796,4.1523,4.2086,4.3268,4.3427,4.3515,4.3515,4.3515,4.3515,4.3515,4.3515,4.3515,4.3515,4.3515,4.3515,4.3515,4.3515,4.3515,4.3515,4.3515,4.3515,4.3515,4.3515,4.3515,4.3515,4.3515,4.3515,4.3515,4.3515,4.3515,4.3515,4.3515,4.3515,4.3515,4.3515,4.3515,4.3515,4.3515,4.3515,4.3515,4.3515,4.3515,4.3681,4.4268,4.3864,4.3515,4.3515,4.3515,4.3515,4.3515,4.3515,4.3515,4.3515,4.3515,4.3515,4.3515,4.3515,4.3625,4.3846,4.4176,4.447,4.4691,4.6049,4.6727,4.6746,4.762,4.8035,4.8015,4.7406,4.6909,3.6564,3.7221,0.0,3.9567,4.1715,4.3738,4.4638,0.0,0.0,0.0,4.4812,4.3811,4.3647,4.3122,0.0,0.0,0.0,0.0,0.0,0.0,0.0,0.0,0.0,0.0,0.0,0.0,0.0,0.0,0.0,0.0,0.0,3.8307,3.7951,3.7487,3.7755,3.8249,3.8942,3.8455,3.8634,3.9405,3.8597,3.9313,4.135,4.1301,4.1738,4.2561,4.2873,4.3185,4.3515,4.3515,4.3515,4.3515,4.3515,4.3515,4.3515,4.3515,4.3515,4.3515,4.3515,4.3515,4.3515,4.3515,4.3515,4.3515,4.3515,4.3515,4.3515,4.3515,4.3515,4.3515,4.3515,4.3515,4.3515,4.3515,4.3515,4.3515,4.3515,4.3515,4.3515,4.3515,4.3515,4.3515,4.3515,4.3515,4.3644,4.4158,4.3809,4.3515,4.3515,4.3515,4.3515,4.3515,4.3515,4.3515,4.3515,4.3515,4.3515,4.3515,4.3515,4.3626,4.3956,4.4452,4.4984,4.5627,4.6599,4.7094,4.7094,4.7901,4.8306,4.8287,4.7917,4.7682,3.8083,3.8542,3.9368,4.258,4.357,0.0,4.4953,4.678,4.7903,4.6616,0.0,4.472,4.3322,4.2902,0.0,0.0,0.0,0.0,0.0,0.0,0.0,0.0,0.0,0.0,0.0,0.0,0.0,0.0,0.0,0.0,0.0,3.8305,3.7871,3.7871,3.7782,3.7982,3.8472,3.7768,3.7804,3.8579,3.786,3.83,3.9808,4.0616,4.1058,4.1242,4.1992,4.2763,4.3515,4.3515,4.3515,4.3515,4.3515,4.3515,4.3515,4.3515,4.3515,4.3496,4.3423,4.3441,4.3496,4.3423,4.3441,4.3515,4.3515,4.3515,4.3515,4.3515,4.3515,4.3515,4.3515,4.3515,4.3515,4.3515,4.3515,4.3515,4.3515,4.3515,4.3515,4.3515,4.3515,4.3515,4.3515,4.3515,4.3515,4.3515,4.3515,4.3515,4.3515,4.3515,4.3515,4.3515,4.3515,4.3515,4.3515,4.3515,4.3515,4.3515,4.357,4.3975,4.4782,4.4745,4.5461,4.7076,4.7094,4.7131,4.7204,4.7938,4.8306,4.8306,4.8306,4.8306,3.6725,3.7276,0.0,4.1754,4.3975,4.5443,4.5681,4.6101,4.6258,4.5542,4.5073,4.4708,4.4381,0.0,0.0,0.0,0.0,0.0,0.0,0.0,0.0,0.0,0.0,0.0,0.0,0.0,0.0,0.0,0.0,0.0,3.8802,3.8034,3.7595,3.7595,3.6958,3.6692,3.6817,3.6633,3.6945,0.0,3.7584,3.8025,3.9001,3.979,4.0855,4.2047,4.2213,4.2763,4.3515,4.3515,4.3515,4.3515,4.3515,4.3515,4.3515,4.3515,4.3515,4.3423,4.2782,4.2965,4.3387,4.2763,4.2983,4.3515,4.3515,4.3515,4.3515,4.3515,4.3515,4.3515,4.3515,4.3515,4.3515,4.3515,4.3515,4.3515,4.3515,4.3515,4.3515,4.3515,4.3515,4.3515,4.3515,4.3515,4.3515,4.3515,4.3515,4.3515,4.3515,4.3515,4.3515,4.3515,4.3515,4.3515,4.3515,4.3515,4.3515,4.3515,4.4085,4.48,4.5608,4.5039,4.5461,4.7076,4.7094,4.7406,4.8049,4.8233,4.8306,4.8306,4.8306,4.8306,3.7129,3.8028,0.0,4.2653,0.0,4.5902,4.5902,4.5608,4.5242,4.4964,4.4784,4.4509,4.3852,0.0,0.0,0.0,0.0,0.0,0.0,0.0,0.0,0.0,0.0,0.0,0.0,0.0,0.0,0.0,0.0,3.8524,3.8138,3.7731,3.7327,3.6942,3.6505,3.6303,3.6303,3.5899,3.6101,3.6942,3.6942,3.7551,3.8707,3.9129,4.0194,4.1699,4.1313,4.1607,4.2378,4.2763,4.269,4.2396,4.2782,4.269,4.2359,4.2359,4.2359,4.2286,4.1882,4.2011,4.2286,4.1864,4.2268,4.2837,4.247,4.2892,4.3423,4.302,4.3185,4.3515,4.3515,4.3515,4.3515,4.3515,4.3515,4.3515,4.3515,4.3515,4.3515,4.3515,4.3515,4.3515,4.3515,4.3515,4.3515,4.3515,4.3515,4.3515,4.3515,4.3515,4.3515,4.3515,4.3515,4.3515,4.3515,4.3515,4.3644,4.4048,4.447,4.5241,4.6434,4.6067,4.6415,4.7645,4.7663,4.7865,4.8306,4.8306,4.8306,4.8306,4.8306,4.8306,3.7426,3.9166,4.0946,4.3626,4.5002,0.0,4.5516,4.4966,4.4488,4.4488,4.4488,4.4107,0.0,0.0,0.0,0.0,0.0,0.0,0.0,0.0,0.0,0.0,0.0,0.0,0.0,0.0,0.0,0.0,0.0,3.8193,3.7529,3.7235,3.6762,3.6101,3.5936,3.5862,3.5862,3.5151,3.5224,3.6083,3.6358,3.7276,3.8707,3.8707,3.9515,4.0857,4.0194,4.0359,4.115,4.1827,4.1699,4.1168,4.1827,4.1682,4.1095,4.1095,4.1095,4.1077,4.093,4.0967,4.1095,4.1095,4.1644,4.2176,4.1499,4.2323,4.3331,4.2525,4.2873,4.3515,4.3515,4.3515,4.3515,4.3515,4.3515,4.3515,4.3515,4.3515,4.3515,4.3515,4.3515,4.3515,4.3515,4.3515,4.3515,4.3515,4.3515,4.3515,4.3515,4.3515,4.3515,4.3515,4.3515,4.357,4.3699,4.3699,4.4048,4.4874,4.5057,4.57,4.7039,4.7223,4.7608,4.8306,4.8306,4.8306,4.8306,4.8306,4.8306,4.8306,4.8306,4.8306,3.5041,0.0,4.2084,0.0,4.3754,4.469,0.0,0.0,4.3644,0.0,4.3644,4.3388,0.0,0.0,0.0,0.0,0.0,0.0,0.0,0.0,0.0,0.0,0.0,0.0,0.0,0.0,0.0,0.0,3.8046,3.7621,3.7511,3.6119,3.5279,3.5188,3.4504,3.4137,3.4137,3.4027,3.4376,3.5188,3.6652,3.7823,3.8707,3.8707,3.9203,4.0047,3.9937,4.0359,4.1113,4.1224,4.1187,4.1113,4.1224,4.1187,4.1095,4.1095,4.1095,4.1003,4.0304,4.0524,4.1095,4.1095,4.1644,4.2286,4.2176,4.2782,4.3331,4.2525,4.2873,4.3515,4.3515,4.3515,4.3515,4.3515,4.3515,4.3515,4.3515,4.3515,4.3515,4.3515,4.3515,4.3515,4.3515,4.3515,4.3515,4.3515,4.3515,4.3515,4.3515,4.3515,4.3515,4.3515,4.3515,4.3773,4.4488,4.4544,4.4892,4.5681,4.6379,4.6874,4.7094,4.7755,4.8196,4.8306,4.8306,4.8306,4.8306,4.8306,4.8306,4.8306,4.8306,4.8306,3.638,3.8322,4.0029,0.0,4.2506,4.2837,4.3369,0.0,4.3515,4.3515,4.3515,0.0,0.0,0.0,0.0,0.0,0.0,0.0,0.0,0.0,0.0,0.0,0.0,0.0,0.0,0.0,0.0,0.0,3.7936,3.7309,3.685,3.5665,3.4784,3.4344,3.399,3.3587,3.3115,3.3568,3.4449,3.5752,3.6468,3.7477,3.8707,3.8707,3.8891,3.9239,3.9239,3.9441,3.9774,4.0249,4.0157,3.9808,4.0249,4.0157,3.9756,3.9756,3.9756,3.9698,3.935,3.946,3.9756,3.9756,4.0304,4.0873,4.0414,4.1479,4.2653,4.1864,4.2525,4.3515,4.3515,4.3515,4.3515,4.3515,4.3515,4.3515,4.3515,4.3515,4.3515,4.3515,4.3515,4.3515,4.3515,4.3515,4.3662,4.4103,4.4176,4.4176,4.4176,4.4562,4.4672,4.4213,4.458,4.4984,4.5351,4.5369,4.5718,4.6526,4.6892,4.7296,4.7736,4.8122,4.8306,4.8306,4.8306,4.8306,4.8306,4.8306,4.8306,4.8306,4.8306,4.8306,0.0,0.0,3.7588,4.0634,4.1093,4.1222,0.0,0.0,4.3002,0.0,4.3167,0.0,0.0,0.0,0.0,0.0,0.0,0.0,0.0,0.0,0.0,0.0,0.0,0.0,0.0,0.0,0.0,0.0,3.7771,3.6942,3.6321,3.5293,3.4417,3.3825,3.3605,3.322,3.2601,3.3201,3.4449,3.6303,3.6083,3.6927,3.8689,3.8487,3.8395,3.8414,3.8615,3.8707,3.8762,3.935,3.9239,3.8762,3.935,3.9239,3.8707,3.8707,3.8707,3.8707,3.8707,3.8707,3.8726,3.8946,3.9551,4.0084,3.9496,4.0855,4.2433,4.1627,4.2415,4.3515,4.3515,4.3515,4.3515,4.3515,4.3515,4.357,4.3754,4.3626,4.3552,4.3754,4.3626,4.3552,4.3754,4.3626,4.3828,4.4856,4.4837,4.4782,4.4984,4.5535,4.5663,4.5076,4.5535,4.5975,4.6195,4.6214,4.6562,4.7351,4.7388,4.7663,4.8288,4.8306,4.8306,4.8306,4.8306,4.8306,4.8306,4.8306,4.8306,4.8306,4.8306,4.8306,0.0,3.4582,0.0,3.8251,3.9423,0.0,0.0,0.0,0.0,0.0,4.2286,0.0,0.0,0.0,0.0,0.0,0.0,0.0,0.0,0.0,0.0,0.0,0.0,0.0,0.0,0.0,0.0,0.0,3.7239,3.634,3.6303,3.4743,3.3844,3.3807,3.3073,3.2638,3.2601,3.2638,3.3899,3.6285,3.5463,3.6343,3.867,3.7915,3.7566,3.7603,3.8377,3.8707,3.8707,3.8762,3.8744,3.8707,3.8762,3.8744,3.8707,3.8707,3.8707,3.8707,3.8707,3.8707,3.8836,3.9588,4.0377,4.1022,4.0985,4.2139,4.3276,4.2451,4.2837,4.3515,4.3515,4.3515,4.3515,4.3515,4.3515,4.3699,4.447,4.403,4.3718,4.4488,4.4011,4.3736,4.4525,4.4011,4.403,4.559,4.5186,4.4984,4.5736,4.5865,4.5883,4.5847,4.5883,4.6214,4.6966,4.7039,4.7369,4.8196,4.8251,4.8269,4.8306,4.8306,4.8306,4.8306,4.8306,4.8306,4.8306,4.8306,4.8306,4.8306,4.8306,4.8306,0.0,0.0,0.0,3.667,3.7367,3.801,3.9625,4.0175,4.0487,4.1056,4.1148,0.0,0.0,0.0,0.0,0.0,0.0,0.0,0.0,0.0,0.0,0.0,0.0,0.0,0.0,0.0,0.0,0.0,0.0,3.5701,3.6266,3.4229,3.3275,3.377,3.2522,3.2082,3.2583,3.2601,3.3555,3.5463,3.5151,3.5756,3.7147,3.6853,3.674,3.6776,3.7584,3.7933,3.7955,3.8487,3.8395,3.7988,3.8505,3.8377,3.7991,3.8505,3.8707,3.8707,3.8707,3.8707,3.8836,3.9643,4.0084,4.0432,4.093,4.1864,4.2671,4.2378,4.2873,4.3515,4.3515,4.3515,4.3515,4.3515,4.3515,4.3718,4.4544,4.4066,4.3589,4.3864,4.4103,4.4195,4.3975,4.4544,4.5241,4.581,4.6104,4.6342,4.6617,4.7131,4.7241,4.6727,4.7131,4.7572,4.7846,4.7865,4.7975,4.8288,4.8306,4.8306,4.8306,4.8306,4.8306,4.8306,4.8306,4.8306,4.8306,4.8306,4.8306,4.8324,4.8875,4.9132,3.2307,0.0,0.0,0.0,0.0,3.6159,3.8354,0.0,3.9054,3.9884,3.996,0.0,0.0,0.0,0.0,0.0,0.0,0.0,0.0,0.0,0.0,0.0,0.0,0.0,0.0,0.0,0.0,0.0,0.0,0.0,3.5862,3.4045,3.2999,3.2981,3.1696,3.1384,3.2192,3.221,3.3133,3.5004,3.4729,3.5202,3.6285,3.6009,3.5862,3.5917,3.7015,3.7492,3.7566,3.8377,3.823,3.7584,3.8395,3.8212,3.7603,3.8395,3.8707,3.8707,3.8707,3.8707,3.8836,3.9643,4.0084,4.0451,4.1258,4.2066,4.269,4.269,4.3075,4.3515,4.3515,4.3515,4.3515,4.3515,4.3515,4.3662,4.4176,4.3883,4.3588,4.3846,4.4342,4.4635,4.4342,4.5186,4.6085,4.6617,4.6929,4.7204,4.7461,4.7957,4.8104,4.7553,4.7994,4.8306,4.8306,4.8306,4.8306,4.8306,4.8306,4.8306,4.8306,4.8306,4.8434,4.8728,4.8453,4.8434,4.8728,4.8434,4.8453,4.8746,4.9335,4.961,0.0,0.0,0.0,0.0,0.0,0.0,3.8194,0.0,3.7309,3.9682,3.875,0.0,0.0,0.0,0.0,0.0,0.0,0.0,0.0,0.0,0.0,0.0,0.0,0.0,0.0,0.0,0.0,0.0,3.674,3.5899,3.5059,3.4247,3.3054,3.1415,3.065,3.0613,3.136,3.1415,3.2614,3.4931,3.4174,3.4651,3.6193,3.5353,3.4954,3.5059,3.6707,3.7437,3.7492,3.8322,3.8193,3.7547,3.8358,3.819,3.7581,3.841,3.8723,3.8738,3.8738,3.8738,3.8866,3.9672,4.0483,4.1258,4.2064,4.2872,4.3515,4.3515,4.3515,4.3515,4.3515,4.3515,4.3515,4.3515,4.3515,4.3515,4.3515,4.3515,4.3736,4.4544,4.4709,4.4984,4.5773,4.5938,4.6489,4.8031,4.7608,4.7424,4.8214,4.8306,4.8306,4.8306,4.8306,4.8306,4.8306,4.8306,4.8306,4.8306,4.8324,4.8343,4.8343,4.8343,4.8728,4.9574,4.8746,4.8728,4.9555,4.871,4.8746,4.961,4.9647,4.9665,3.0907,0.0,0.0,0.0,0.0,0.0,0.0,0.0,0.0,3.6847,3.7171,0.0,0.0,0.0,0.0,0.0,0.0,0.0,0.0,0.0,0.0,0.0,0.0,0.0,0.0,0.0,0.0,0.0,3.6174,3.5261,3.5023,3.4247,3.2797,3.0595,3.1458,3.1482,3.054,3.1696,3.2601,3.3261,3.3642,3.4045,3.4486,3.4247,3.4137,3.4192,3.5224,3.5683,3.5793,3.7239,3.7364,3.6707,3.7529,3.745,3.7087,3.8465,3.9131,3.9352,3.9352,3.9352,3.9483,4.03,4.0966,4.1608,4.2409,4.3051,4.3515,4.3515,4.3515,4.3515,4.3515,4.3515,4.3515,4.3515,4.3515,4.3515,4.3515,4.3515,4.3736,4.4544,4.5168,4.5645,4.5865,4.6874,4.759,4.7443,4.7736,4.8048,4.8269,4.8306,4.8306,4.8306,4.8306,4.8306,4.8306,4.8306,4.8306,4.8306,4.8893,4.9205,4.9169,4.9205,4.9353,4.961,4.8746,4.8416,4.8655,4.8416,4.8746,4.9629,5.0804,5.1355,0.0,0.0,0.0,0.0,0.0,0.0,3.3496,3.3627,3.3864,0.0,3.527,0.0,0.0,0.0,0.0,0.0,0.0,0.0,0.0,0.0,0.0,0.0,0.0,0.0,0.0,3.8172,3.7364,3.7015,3.5756,3.4857,3.4509,3.3752,3.2504,3.076,3.1292,3.1311,3.0705,3.1641,3.2449,3.3109,3.3587,3.3807,3.3807,3.3807,3.3807,3.3844,3.4656,3.5004,3.5078,3.6064,3.6174,3.5858,3.6805,3.6774,3.6404,3.8134,3.8894,3.9116,3.9467,3.9599,3.9708,4.0378,4.1044,4.1723,4.2378,4.3021,4.3515,4.3515,4.3515,4.3515,4.3515,4.3515,4.3515,4.3515,4.3515,4.3515,4.3515,4.3515,4.3736,4.4544,4.5351,4.6012,4.6342,4.7462,4.8141,4.7663,4.8012,4.8306,4.8306,4.8306,4.8306,4.8306,4.8306,4.8306,4.8306,4.8636,4.882,4.8802,4.9609,5.0068,5.0031,4.9757,4.9922,5.0602,4.9426,4.9003,4.9352,4.9003,4.9444,5.0639,5.1903,5.2142,0.0,0.0,0.0,0.0,0.0,0.0,3.3957,3.3297,3.2599,0.0,0.0,0.0,0.0,0.0,0.0,0.0,0.0,0.0,0.0,0.0,0.0,0.0,0.0,0.0,3.9698,3.8392,3.718,3.6358,3.5408,3.4546,3.3844,3.3128,3.232,3.1433,3.0705,3.0595,3.114,3.1323,3.2131,3.3532,3.3715,3.3815,3.3842,3.3802,3.3815,3.3879,3.4559,3.4876,3.4876,3.4876,3.4926,3.5174,3.6276,3.6292,3.5965,3.7815,3.8531,3.8647,3.9392,3.9656,3.9712,4.0098,4.0864,4.1675,4.2099,4.2815,4.3515,4.3515,4.3515,4.3515,4.3515,4.3515,4.3515,4.3515,4.3515,4.3515,4.3515,4.3515,4.3736,4.4544,4.5351,4.6159,4.6947,4.7755,4.8306,4.8306,4.8306,4.8306,4.8306,4.8306,4.8306,4.8306,4.8306,4.8306,4.8306,4.9003,4.9482,4.9499,5.0325,5.0839,5.093,5.0233,5.0547,5.1958,5.0418,4.9939,5.0674,4.9939,5.0381,5.1885,5.2692,5.2307,0.0,0.0,0.0,0.0,0.0,0.0,3.2555,3.2892,3.3297,0.0,3.289,0.0,0.0,0.0,0.0,0.0,0.0,0.0,0.0,0.0,0.0,0.0,0.0,0.0,3.8927,3.8046,3.718,3.6358,3.489,3.3972,3.3807,3.3642,3.2908,3.1452,3.125,3.0613,2.9482,3.0742,3.1562,3.1892,3.3183,3.3915,3.4111,3.3902,3.3928,3.4129,3.4055,3.4027,3.4027,3.4027,3.4568,3.5491,3.6354,3.69,3.7395,3.9117,3.989,4.0053,4.0024,4.0002,3.9981,3.9788,4.0581,4.1607,4.1702,4.2567,4.3515,4.3515,4.3515,4.3515,4.3515,4.3515,4.3515,4.3515,4.3515,4.3515,4.3515,4.3515,4.3736,4.4544,4.5351,4.6159,4.6947,4.7755,4.8306,4.8306,4.8306,4.8306,4.8306,4.8306,4.8306,4.8306,4.8306,4.8306,4.8306,4.8471,4.8838,4.9555,5.0343,5.1096,5.1738,5.161,5.1665,5.1977,5.0418,4.9684,4.9831,4.9684,5.0106,5.1041,5.1867,5.2068,0.0,0.0,0.0,3.3311,0.0,0.0,0.0,3.1979,3.2194,3.2312,3.1792,3.1508,3.2186,0.0,0.0,0.0,0.0,0.0,0.0,0.0,0.0,0.0,0.0,0.0,3.9273,3.8208,3.6997,3.5752,3.4504,3.3807,3.3807,3.3807,3.3256,3.2045,3.1604,3.1201,3.0803,3.1201,3.1801,3.2596,3.3403,3.3863,3.3999,3.385,3.3863,3.3999,3.3868,3.3807,3.3807,3.3807,3.422,3.4901,3.5476,3.6389,3.748,3.8628,3.9299,3.9693,4.0005,3.9992,3.9797,3.945,4.0371,4.1574,4.14,4.2359,4.3515,4.3515,4.3515,4.3515,4.3515,4.3515,4.3515,4.3515,4.3515,4.3548,4.371,4.3631,4.3787,4.4763,4.5474,4.6159,4.6947,4.7755,4.8306,4.8306,4.8306,4.8306,4.8306,4.8306,4.8306,4.8306,4.8306,4.8306,4.8306,4.8691,4.9132,4.9574,5.0362,5.1151,5.1958,5.161,5.1389,5.1389,5.06,5.0196,5.0196,4.9352,4.9591,5.082,5.1206,5.1187,0.0,0.0,0.0,0.0,0.0,3.2868,0.0,0.0,0.0,3.1936,3.1045,0.0,0.0,0.0,0.0,0.0,0.0,0.0,0.0,0.0,0.0,0.0,0.0,0.0,3.9651,3.8235,3.6633,3.5114,3.4252,3.3807,3.3807,3.3807,3.344,3.2619,3.1971,3.1861,3.2362,3.188,3.2284,3.3568,3.3733,3.3829,3.3881,3.3815,3.3868,3.3967,3.3921,3.3915,3.3967,3.3902,3.4123,3.4547,3.4773,3.5671,3.6976,3.7857,3.8457,3.8918,3.9737,3.9819,3.9541,3.9157,4.016,4.1516,4.1558,4.247,4.3515,4.3515,4.3515,4.3515,4.3515,4.3515,4.3515,4.3515,4.3515,4.3597,4.3924,4.3742,4.3836,4.4984,4.5592,4.6159,4.6947,4.7755,4.8306,4.8306,4.8306,4.8306,4.8306,4.8306,4.8306,4.8306,4.8306,4.8306,4.8306,4.8948,4.9427,4.9592,5.0196,5.1004,5.1958,5.1518,5.1187,5.1041,5.0875,5.0729,5.0563,4.9205,4.9281,5.0666,5.0603,5.0256,0.0,0.0,0.0,0.0,3.427,0.0,0.0,0.0,3.3408,3.2106,0.0,0.0,0.0,0.0,0.0,0.0,0.0,0.0,0.0,0.0,0.0,0.0,0.0,0.0,0.0,3.753,3.6046,3.5078,3.4252,3.3807,3.3807,3.3807,3.344,3.2619,3.2509,3.2173,3.1544,3.2155,3.2564,3.2729,3.3458,3.391,3.4147,3.3915,3.4087,3.4591,3.4288,3.4323,3.4561,3.4277,3.4775,3.5684,3.5495,3.5679,3.6257,3.8118,3.8849,3.8956,3.9491,3.9634,3.9505,3.8927,3.9834,4.1417,4.2799,4.3368,4.3515,4.3515,4.3515,4.3515,4.3515,4.3515,4.3515,4.3515,4.3515,4.3597,4.3924,4.3742,4.3836,4.4984,4.5592,4.6159,4.6947,4.7755,4.8306,4.8306,4.8306,4.8306,4.8306,4.8306,4.8306,4.8306,4.8306,4.8306,4.8306,4.8398,4.8783,4.9555,4.9702,5.0418,5.194,5.2601,5.2601,5.1867,5.1151,5.0453,4.9739,4.9555,4.9694,5.0171,4.9877,4.986,0.0,0.0,0.0,0.0,0.0,0.0,3.2748,0.0,3.321,0.0,0.0,0.0,0.0,0.0,0.0,0.0,3.1909,0.0,0.0,0.0,0.0,0.0,0.0,0.0,0.0,0.0,0.0,0.0,3.4252,3.3807,3.3807,3.3807,3.3642,3.3311,3.2839,3.2656,3.2779,3.2656,3.2821,3.3311,3.3642,3.3868,3.3974,3.4006,3.4159,3.4412,3.4475,3.4561,3.4684,3.4551,3.4768,3.5183,3.5088,3.5761,3.6948,3.7983,3.8576,3.8909,3.9418,3.977,4.0096,4.0606,4.1258,4.2011,4.3149,4.3515,4.3515,4.3515,4.3515,4.3515,4.3515,4.3646,4.3788,4.3788,4.3974,4.4223,4.4574,4.4373,4.4427,4.5358,4.59,4.6388,4.7003,4.7755,4.8306,4.8306,4.8306,4.8306,4.8306,4.8306,4.8306,4.8306,4.8306,4.8306,4.8306,4.8765,4.8985,4.8838,4.9756,5.06,5.1279,5.2527,5.2821,5.2013,5.1665,5.1096,5.0288,5.0288,5.0469,5.078,4.9952,4.969,3.3201,0.0,0.0,0.0,0.0,0.0,0.0,0.0,0.0,0.0,0.0,0.0,0.0,0.0,0.0,0.0,0.0,3.1235,0.0,0.0,0.0,0.0,0.0,0.0,0.0,0.0,0.0,3.5381,3.4394,3.3807,3.3807,3.3807,3.3807,3.3807,3.3238,3.322,3.3788,3.322,3.322,3.3807,3.3807,3.3842,3.3928,3.4111,3.4404,3.4789,3.5026,3.5192,3.5249,3.5182,3.5011,3.4841,3.5049,3.5961,3.723,3.7715,3.8287,3.8937,3.9671,4.0188,4.0711,4.1908,4.2304,4.2451,4.3259,4.3515,4.3515,4.3515,4.3582,4.3629,4.3629,4.3896,4.4161,4.4161,4.4392,4.4682,4.503,4.4837,4.4883,4.576,4.6184,4.6589,4.7167,4.7849,4.8306,4.8306,4.8306,4.8306,4.8306,4.8306,4.8306,4.8306,4.8306,4.8306,4.8306,4.9095,4.9335,4.8691,5.0215,5.1041,5.082,5.2362,5.2931,5.2344,5.2105,5.1701,5.1132,5.1132,5.1128,5.1139,5.03,4.9963,0.0,0.0,0.0,3.2619,0.0,0.0,0.0,0.0,3.355,0.0,0.0,0.0,0.0,0.0,0.0,0.0,0.0,0.0,0.0,0.0,0.0,0.0,0.0,0.0,0.0,0.0,3.6262,3.6248,3.4724,3.3807,3.3807,3.3807,3.3807,3.3807,3.377,3.377,3.3807,3.377,3.377,3.3807,3.3807,3.3954,3.4195,3.4188,3.4937,3.624,3.624,3.6405,3.6625,3.6353,3.5782,3.5164,3.5935,3.6287,3.6429,3.7295,3.8163,3.909,4.0322,4.091,4.1203,4.2029,4.2304,4.2451,4.3259,4.3515,4.3515,4.3515,4.3742,4.3967,4.3967,4.4276,4.458,4.458,4.458,4.4682,4.503,4.4837,4.4928,4.6054,4.6351,4.6669,4.7527,4.8033,4.8306,4.8306,4.8306,4.8306,4.8306,4.8306,4.8306,4.8306,4.8306,4.8306,4.8306,4.9095,4.9592,4.9555,5.1079,5.161,5.0839,5.2362,5.3206,5.317,5.2399,5.1977,5.1958,5.1958,5.1575,5.0822,5.0784,5.093,0.0,0.0,3.1274,3.2326,0.0,0.0,0.0,0.0,0.0,0.0,0.0,0.0,0.0,0.0,0.0,0.0,0.0,0.0,0.0,0.0,0.0,0.0,0.0,0.0,0.0,0.0,0.0,3.3857,3.333,3.3005,3.3005,3.3513,3.3807,3.3807,3.4307,3.4582,3.4582,3.5349,3.5725,3.5725,3.5725,3.5876,3.6182,3.6141,3.6182,3.6342,3.7105,3.6853,3.5935,3.6377,3.6404,3.6194,3.6462,3.7275,3.8319,3.8626,3.9248,4.0224,4.2117,4.2541,4.2365,4.3166,4.3254,4.313,4.3423,4.3662,4.3818,4.3818,4.4106,4.4406,4.4406,4.467,4.4931,4.4931,4.5107,4.5283,4.541,4.5342,4.5462,4.6167,4.6757,4.7245,4.7618,4.824,4.8604,4.8326,4.8306,4.8306,4.8306,4.8306,4.8306,4.8306,4.8306,4.8306,4.8306,4.9095,4.9831,5.0362,5.1389,5.1867,5.161,5.2637,5.3185,5.3185,5.2931,5.2803,5.2803,5.2803,5.2656,5.2399,5.2399,5.2151,3.0889,3.0595,0.0,3.1494,3.1182,0.0,3.2228,0.0,0.0,0.0,0.0,0.0,0.0,0.0,0.0,0.0,0.0,0.0,0.0,3.0265,0.0,0.0,0.0,0.0,0.0,0.0,3.319,3.2645,3.2422,3.2397,0.0,3.3189,3.3801,3.4386,3.4988,3.5478,3.5769,3.6509,3.6866,3.6866,3.6866,3.7039,3.7345,3.7306,3.7129,3.6938,3.7686,3.7219,3.5981,3.6808,3.6925,3.6623,3.7343,3.8258,3.9172,3.9262,4.0114,4.1423,4.283,4.3376,4.354,4.405,4.408,4.3884,4.3884,4.405,4.4204,4.4204,4.4501,4.4788,4.4788,4.5041,4.5292,4.5292,4.5438,4.5594,4.5594,4.5594,4.5685,4.5992,4.683,4.7523,4.7612,4.8346,4.8761,4.8364,4.8306,4.8306,4.8306,4.8306,4.8306,4.8306,4.8306,4.8434,4.8728,4.9536,5.0251,5.0765,5.1811,5.2289,5.1995,5.2766,5.3335,5.3628,5.3353,5.3332,5.3628,5.3332,5.3185,5.3185,5.2913,5.2656]}]]